[[{"header":{"parameterUnit":"m.s-1","parameterCategory":1,"la1":31.0,"la2":29.5877,"lo1":-88.7671,"lo2":-86.6584,"dy":0.0162,"dx":0.0185,"nx":115,"ny":88,"refTime":"2024-04-07T12:00:00:Z","depth":0,"parameterNumber":2,"parameterNumberName":"U-component_of_WINDS"},"data":[0.0,0.0,0.0,0.0,0.0,0.0,0.0,0.0,0.0,0.0,0.0,0.0,0.0,0.0,0.0,0.0,0.0,0.0,0.0,0.0,0.0,0.0,0.0,0.0,0.0,0.0,0.0,0.0,0.0,0.0,0.0,0.0,0.0,0.0,0.0,0.0,0.0,0.0,0.0,0.0,0.0,0.0,0.0,0.0,0.0,0.0,0.0,0.0,0.0,0.0,0.0,0.0,0.0,0.0,0.0,0.0,0.0,0.0,0.0,0.0,0.0,0.0,0.0,0.0,0.0,0.0,0.0,0.0,0.0,0.0,0.0,0.0,0.0,0.0,0.0,0.0,0.0,0.0,0.0,0.0,0.0,0.0,0.0,0.0,0.0,0.0,0.0,0.0,0.0,0.0,0.0,0.0,0.0,0.0,0.0,0.0,0.0,0.0,0.0,0.0,0.0,0.0,0.0,0.0,0.0,0.0,0.0,0.0,0.0,0.0,0.0,0.0,0.0,0.0,0.0,0.0,0.0,0.0,0.0,0.0,0.0,0.0,0.0,0.0,0.0,0.0,0.0,0.0,0.0,0.0,0.0,0.0,0.0,0.0,0.0,0.0,0.0,0.0,0.0,0.0,0.0,0.0,0.0,0.0,0.0,0.0,0.0,0.0,0.0,0.0,0.0,0.0,0.0,0.0,0.0,0.0,0.0,0.0,0.0,0.0,0.0,0.0,0.0,0.0,0.0,0.0,0.0,0.0,0.0,0.0,0.0,0.0,0.0,0.0,0.0,0.0,0.0,0.0,0.0,0.0,0.0,0.0,0.0,0.0,0.0,0.0,0.0,0.0,0.0,0.0,0.0,0.0,0.0,0.0,0.0,0.0,0.0,0.0,0.0,0.0,0.0,0.0,0.0,0.0,0.0,0.0,0.0,0.0,0.0,0.0,0.0,0.0,0.0,0.0,0.0,0.0,0.0,0.0,0.0,0.0,0.0,0.0,0.0,0.0,0.0,0.0,0.0,0.0,0.0,0.0,0.0,0.0,0.0,0.0,0.0,0.0,0.0,0.0,0.0,0.0,0.0,0.0,0.0,0.0,0.0,0.0,0.0,0.0,0.0,0.0,0.0,0.0,0.0,0.0,0.0,0.0,0.0,0.0,0.0,0.0,0.0,0.0,0.0,0.0,0.0,0.0,0.0,0.0,0.0,0.0,0.0,0.0,0.0,0.0,0.0,0.0,0.0,0.0,0.0,0.0,0.0,0.0,0.0,0.0,0.0,0.0,0.0,0.0,0.0,0.0,0.0,0.0,0.0,0.0,0.0,0.0,0.0,0.0,0.0,0.0,0.0,0.0,0.0,0.0,0.0,0.0,0.0,0.0,0.0,0.0,0.0,0.0,0.0,0.0,0.0,0.0,0.0,0.0,0.0,0.0,0.0,0.0,0.0,0.0,0.0,0.0,0.0,0.0,0.0,0.0,0.0,0.0,0.0,0.0,0.0,0.0,0.0,0.0,0.0,0.0,0.0,0.0,0.0,0.0,0.0,0.0,0.0,0.0,0.0,0.0,0.0,0.0,0.0,0.0,0.0,0.0,0.0,0.0,0.0,0.0,0.0,0.0,0.0,0.0,0.0,0.0,0.0,0.0,0.0,0.0,0.0,0.0,0.0,0.0,0.0,0.0,0.0,0.0,0.0,0.0,0.0,0.0,0.0,0.0,0.0,0.0,0.0,0.0,0.0,0.0,0.0,0.0,0.0,0.0,0.0,0.0,0.0,0.0,0.0,0.0,0.0,0.0,0.0,0.0,0.0,0.0,0.0,0.0,0.0,0.0,0.0,0.0,0.0,0.0,0.0,0.0,0.0,0.0,0.0,0.0,0.0,0.0,0.0,0.0,0.0,0.0,0.0,0.0,0.0,0.0,0.0,0.0,0.0,0.0,0.0,0.0,0.0,0.0,0.0,0.0,0.0,0.0,0.0,0.0,0.0,0.0,0.0,0.0,0.0,0.0,0.0,0.0,0.0,0.0,0.0,0.0,0.0,0.0,0.0,0.0,0.0,0.0,0.0,0.0,0.0,0.0,0.0,0.0,0.0,0.0,0.0,0.0,0.0,0.0,0.0,0.0,0.0,0.0,0.0,0.0,0.0,0.0,0.0,0.0,0.0,0.0,0.0,0.0,0.0,0.0,0.0,0.0,0.0,0.0,0.0,0.0,0.0,0.0,0.0,0.0,0.0,0.0,0.0,0.0,0.0,0.0,0.0,0.0,0.0,0.0,0.0,0.0,0.0,0.0,0.0,0.0,0.0,0.0,0.0,0.0,0.0,0.0,0.0,0.0,0.0,0.0,0.0,0.0,0.0,0.0,0.0,0.0,0.0,0.0,0.0,0.0,0.0,0.0,0.0,0.0,0.0,0.0,0.0,0.0,0.0,0.0,0.0,0.0,0.0,0.0,0.0,0.0,0.0,0.0,0.0,0.0,0.0,0.0,0.0,0.0,0.0,0.0,0.0,0.0,0.0,0.0,0.0,0.0,0.0,0.0,0.0,0.0,0.0,0.0,0.0,0.0,0.0,0.0,0.0,0.0,0.0,0.0,0.0,0.0,0.0,0.0,0.0,0.0,0.0,0.0,0.0,0.0,0.0,0.0,0.0,0.0,0.0,0.0,0.0,0.0,0.0,0.0,0.0,0.0,0.0,0.0,0.0,0.0,0.0,0.0,0.0,0.0,0.0,0.0,0.0,0.0,0.0,0.0,0.0,0.0,0.0,0.0,0.0,0.0,0.0,0.0,0.0,0.0,0.0,0.0,0.0,0.0,0.0,0.0,0.0,0.0,0.0,0.0,0.0,0.0,0.0,0.0,0.0,0.0,0.0,0.0,0.0,0.0,0.0,0.0,0.0,0.0,0.0,0.0,0.0,0.0,0.0,0.0,0.0,0.0,0.0,0.0,0.0,0.0,0.0,0.0,0.0,0.0,0.0,0.0,0.0,0.0,0.0,0.0,0.0,0.0,0.0,0.0,0.0,0.0,0.0,0.0,0.0,0.0,0.0,0.0,0.0,0.0,0.0,0.0,0.0,0.0,0.0,0.0,0.0,0.0,0.0,0.0,0.0,0.0,0.0,0.0,0.0,0.0,0.0,0.0,0.0,0.0,0.0,0.0,0.0,0.0,0.0,0.0,0.0,0.0,0.0,0.0,0.0,0.0,0.0,0.0,0.0,0.0,0.0,0.0,0.0,0.0,0.0,0.0,0.0,0.0,0.0,0.0,0.0,0.0,0.0,0.0,0.0,0.0,0.0,0.0,0.0,0.0,0.0,0.0,0.0,0.0,0.0,0.0,0.0,0.0,0.0,0.0,0.0,0.0,0.0,0.0,0.0,0.0,0.0,0.0,0.0,0.0,0.0,0.0,0.0,0.0,0.0,0.0,0.0,0.0,0.0,0.0,0.0,0.0,0.0,0.0,0.0,0.0,0.0,0.0,0.0,0.0,0.0,0.0,0.0,0.0,0.0,0.0,0.0,0.0,0.0,0.0,0.0,0.0,0.0,0.0,0.0,0.0,0.0,0.0,0.0,0.0,0.0,0.0,0.0,0.0,0.0,0.0,0.0,0.0,0.0,0.0,0.0,0.0,0.0,0.0,0.0,0.0,0.0,0.0,0.0,0.0,0.0,0.0,0.0,0.0,0.0,0.0,0.0,0.0,0.0,0.0,0.0,0.0,0.0,0.0,0.0,0.0,0.0,0.0,0.0,0.0,0.0,0.0,0.0,0.0,0.0,0.0,0.0,0.0,0.0,0.0,0.0,0.0,0.0,0.0,0.0,0.0,0.0,0.0,0.0,0.0,0.0,0.0,0.0,0.0,0.0,0.0,0.0,0.0,0.0,0.0,0.0,0.0,0.0,0.0,0.0,0.0,0.0,0.0,0.0,0.0,0.0,0.0,0.0,0.0,0.0,0.0,0.0,0.0,0.0,0.0,0.0,0.0,0.0,0.0,0.0,0.0,0.0,0.0,0.0,0.0,0.0,0.0,0.0,0.0,0.0,0.0,0.0,0.0,0.0,0.0,0.0,0.0,0.0,0.0,0.0,0.0,0.0,0.0,0.0,0.0,0.0,0.0,0.0,0.0,0.0,0.0,0.0,0.0,0.0,0.0,0.0,0.0,0.0,0.0,0.0,0.0,0.0,0.0,0.0,0.0,0.0,0.0,0.0,0.0,0.0,0.0,0.0,0.0,0.0,0.0,0.0,0.0,0.0,0.0,0.0,0.0,0.0,0.0,0.0,0.0,0.0,0.0,-3.8667,0.0,0.0,0.0,0.0,0.0,0.0,0.0,0.0,0.0,0.0,0.0,0.0,0.0,0.0,0.0,0.0,0.0,0.0,0.0,0.0,0.0,0.0,0.0,0.0,0.0,0.0,0.0,0.0,0.0,0.0,0.0,0.0,0.0,0.0,0.0,0.0,0.0,0.0,0.0,0.0,0.0,0.0,0.0,0.0,0.0,0.0,0.0,0.0,0.0,0.0,0.0,0.0,0.0,0.0,0.0,0.0,0.0,0.0,0.0,0.0,0.0,0.0,0.0,0.0,0.0,0.0,0.0,0.0,0.0,0.0,0.0,0.0,0.0,0.0,0.0,0.0,0.0,0.0,0.0,0.0,0.0,0.0,0.0,0.0,0.0,0.0,0.0,0.0,0.0,0.0,0.0,0.0,0.0,0.0,0.0,0.0,0.0,0.0,0.0,0.0,0.0,0.0,0.0,0.0,0.0,0.0,0.0,0.0,0.0,0.0,-4.196,-4.117,-4.1131,-4.0307,-3.8527,0.0,0.0,0.0,0.0,0.0,0.0,0.0,0.0,0.0,0.0,0.0,0.0,0.0,0.0,0.0,0.0,0.0,0.0,0.0,0.0,0.0,0.0,0.0,0.0,0.0,0.0,0.0,0.0,0.0,0.0,0.0,0.0,0.0,0.0,0.0,0.0,0.0,0.0,0.0,0.0,0.0,0.0,0.0,0.0,0.0,0.0,0.0,0.0,0.0,0.0,0.0,0.0,0.0,0.0,0.0,0.0,0.0,0.0,0.0,0.0,0.0,0.0,0.0,0.0,0.0,0.0,0.0,0.0,0.0,0.0,0.0,0.0,0.0,0.0,0.0,0.0,0.0,0.0,0.0,0.0,0.0,0.0,0.0,0.0,0.0,0.0,0.0,0.0,0.0,0.0,0.0,0.0,0.0,0.0,0.0,0.0,0.0,0.0,0.0,0.0,0.0,0.0,0.0,0.0,0.0,0.0,0.0,0.0,0.0,0.0,0.0,0.0,-4.189,-4.0953,-3.8955,0.0,0.0,0.0,0.0,0.0,0.0,0.0,0.0,0.0,0.0,0.0,0.0,0.0,0.0,0.0,0.0,0.0,0.0,0.0,0.0,0.0,0.0,0.0,0.0,0.0,0.0,0.0,0.0,0.0,0.0,0.0,0.0,0.0,0.0,0.0,0.0,0.0,0.0,0.0,0.0,0.0,0.0,0.0,0.0,0.0,0.0,0.0,0.0,0.0,0.0,0.0,0.0,0.0,0.0,0.0,0.0,0.0,0.0,0.0,0.0,0.0,0.0,0.0,0.0,0.0,0.0,0.0,0.0,0.0,0.0,0.0,0.0,0.0,0.0,0.0,0.0,0.0,0.0,0.0,0.0,0.0,0.0,0.0,0.0,0.0,0.0,0.0,0.0,0.0,0.0,0.0,0.0,0.0,0.0,0.0,0.0,0.0,0.0,0.0,0.0,0.0,0.0,0.0,0.0,0.0,0.0,0.0,0.0,0.0,0.0,-4.1998,-4.4202,-4.4245,0.0,-4.0583,0.0,0.0,0.0,0.0,0.0,0.0,0.0,0.0,0.0,0.0,0.0,0.0,0.0,0.0,0.0,0.0,0.0,0.0,0.0,0.0,0.0,0.0,0.0,0.0,0.0,0.0,0.0,0.0,0.0,0.0,0.0,0.0,0.0,0.0,0.0,0.0,0.0,0.0,0.0,0.0,0.0,0.0,0.0,0.0,0.0,0.0,0.0,0.0,0.0,0.0,0.0,0.0,0.0,0.0,0.0,0.0,0.0,0.0,0.0,0.0,0.0,0.0,0.0,0.0,0.0,0.0,0.0,0.0,0.0,0.0,0.0,0.0,0.0,0.0,0.0,0.0,0.0,0.0,0.0,0.0,0.0,0.0,0.0,0.0,0.0,0.0,0.0,0.0,0.0,0.0,0.0,0.0,0.0,0.0,0.0,0.0,0.0,0.0,0.0,0.0,0.0,0.0,0.0,0.0,0.0,0.0,0.0,0.0,0.0,0.0,-4.2987,-4.4559,-4.359,-4.1559,0.0,0.0,0.0,0.0,0.0,0.0,0.0,0.0,0.0,0.0,0.0,0.0,0.0,0.0,0.0,0.0,0.0,0.0,0.0,0.0,0.0,0.0,0.0,0.0,0.0,0.0,0.0,0.0,0.0,0.0,0.0,0.0,0.0,0.0,0.0,0.0,0.0,0.0,0.0,0.0,0.0,0.0,0.0,0.0,0.0,0.0,0.0,0.0,0.0,0.0,0.0,0.0,0.0,0.0,0.0,0.0,0.0,0.0,0.0,0.0,0.0,0.0,0.0,0.0,0.0,0.0,0.0,0.0,0.0,0.0,0.0,0.0,0.0,0.0,0.0,0.0,0.0,0.0,0.0,0.0,0.0,0.0,0.0,0.0,0.0,0.0,0.0,0.0,0.0,0.0,0.0,0.0,0.0,0.0,0.0,0.0,0.0,0.0,0.0,0.0,0.0,0.0,0.0,0.0,0.0,0.0,0.0,0.0,0.0,0.0,-4.3243,-4.4059,-4.506,-4.3092,-4.0377,-3.7051,0.0,0.0,0.0,0.0,0.0,0.0,0.0,0.0,0.0,0.0,0.0,0.0,0.0,0.0,0.0,0.0,0.0,0.0,0.0,0.0,0.0,0.0,0.0,0.0,0.0,0.0,0.0,0.0,0.0,0.0,0.0,0.0,0.0,0.0,0.0,0.0,0.0,0.0,0.0,0.0,0.0,0.0,0.0,0.0,0.0,0.0,0.0,0.0,0.0,0.0,0.0,0.0,0.0,0.0,0.0,0.0,0.0,0.0,0.0,0.0,0.0,0.0,0.0,0.0,0.0,0.0,0.0,0.0,0.0,0.0,0.0,0.0,0.0,0.0,0.0,0.0,0.0,0.0,0.0,0.0,0.0,0.0,0.0,0.0,0.0,0.0,0.0,0.0,0.0,0.0,0.0,0.0,0.0,0.0,0.0,0.0,0.0,0.0,0.0,0.0,0.0,0.0,0.0,0.0,0.0,0.0,0.0,0.0,-4.7326,-4.5391,-4.5064,-4.6651,-4.3536,-4.0482,0.0,0.0,0.0,0.0,0.0,0.0,0.0,0.0,0.0,0.0,0.0,0.0,0.0,0.0,0.0,0.0,0.0,0.0,0.0,0.0,0.0,0.0,0.0,0.0,0.0,0.0,0.0,0.0,0.0,0.0,0.0,0.0,0.0,0.0,0.0,0.0,0.0,0.0,0.0,0.0,0.0,0.0,0.0,0.0,0.0,0.0,0.0,0.0,0.0,0.0,0.0,0.0,0.0,0.0,0.0,0.0,0.0,0.0,0.0,0.0,0.0,0.0,0.0,0.0,0.0,0.0,0.0,0.0,0.0,0.0,0.0,0.0,0.0,0.0,0.0,0.0,0.0,0.0,0.0,0.0,0.0,0.0,0.0,0.0,0.0,0.0,0.0,0.0,0.0,0.0,0.0,0.0,0.0,0.0,0.0,0.0,0.0,0.0,0.0,0.0,0.0,0.0,0.0,0.0,0.0,0.0,0.0,0.0,0.0,-4.3124,-4.3412,-4.4624,-4.6635,-4.2547,-3.9624,0.0,0.0,0.0,0.0,0.0,0.0,0.0,0.0,0.0,0.0,0.0,0.0,0.0,0.0,0.0,0.0,0.0,0.0,0.0,0.0,0.0,0.0,0.0,0.0,0.0,0.0,0.0,0.0,0.0,0.0,0.0,0.0,0.0,0.0,0.0,0.0,0.0,0.0,0.0,0.0,0.0,0.0,0.0,0.0,0.0,0.0,0.0,0.0,0.0,0.0,0.0,0.0,0.0,0.0,0.0,0.0,0.0,0.0,0.0,0.0,0.0,0.0,0.0,0.0,0.0,0.0,0.0,0.0,0.0,0.0,0.0,0.0,0.0,0.0,0.0,0.0,0.0,0.0,0.0,0.0,0.0,0.0,0.0,0.0,0.0,0.0,0.0,0.0,0.0,0.0,0.0,0.0,0.0,0.0,0.0,0.0,0.0,0.0,0.0,0.0,0.0,0.0,0.0,0.0,0.0,0.0,0.0,0.0,0.0,-4.2132,0.0,-4.5182,-4.5855,-4.1931,-3.8736,0.0,0.0,0.0,0.0,0.0,0.0,0.0,0.0,0.0,0.0,0.0,0.0,0.0,0.0,0.0,0.0,0.0,0.0,0.0,0.0,0.0,0.0,0.0,0.0,0.0,0.0,0.0,0.0,0.0,0.0,0.0,0.0,0.0,0.0,0.0,0.0,0.0,0.0,0.0,0.0,0.0,0.0,0.0,0.0,0.0,0.0,0.0,0.0,0.0,0.0,0.0,0.0,0.0,0.0,0.0,0.0,0.0,0.0,0.0,0.0,0.0,0.0,0.0,0.0,0.0,0.0,0.0,0.0,0.0,0.0,0.0,0.0,0.0,0.0,0.0,0.0,0.0,0.0,0.0,0.0,0.0,0.0,0.0,0.0,0.0,0.0,0.0,0.0,0.0,0.0,0.0,0.0,0.0,0.0,0.0,0.0,0.0,0.0,0.0,0.0,0.0,0.0,0.0,0.0,0.0,0.0,0.0,0.0,-4.1327,-4.5297,-4.6991,-4.6665,-4.4404,-4.1761,-3.7863,0.0,0.0,0.0,0.0,0.0,0.0,0.0,0.0,0.0,0.0,0.0,0.0,0.0,0.0,0.0,0.0,0.0,0.0,0.0,0.0,0.0,0.0,0.0,0.0,0.0,0.0,0.0,0.0,0.0,0.0,0.0,0.0,0.0,0.0,0.0,0.0,0.0,0.0,0.0,0.0,0.0,0.0,0.0,0.0,0.0,0.0,0.0,0.0,0.0,0.0,0.0,0.0,0.0,0.0,0.0,0.0,0.0,0.0,0.0,0.0,0.0,0.0,0.0,0.0,0.0,0.0,0.0,0.0,0.0,0.0,0.0,0.0,0.0,0.0,0.0,0.0,0.0,0.0,0.0,0.0,0.0,0.0,0.0,0.0,0.0,0.0,0.0,0.0,0.0,0.0,0.0,0.0,0.0,0.0,0.0,0.0,0.0,0.0,0.0,0.0,0.0,0.0,0.0,0.0,0.0,0.0,0.0,0.0,0.0,-4.2622,-4.3996,-4.5257,-4.6104,-4.0446,-3.7549,0.0,0.0,0.0,0.0,0.0,0.0,0.0,0.0,0.0,0.0,0.0,0.0,0.0,0.0,0.0,0.0,0.0,0.0,0.0,0.0,0.0,0.0,0.0,0.0,0.0,0.0,0.0,0.0,0.0,0.0,0.0,0.0,0.0,0.0,0.0,0.0,0.0,0.0,0.0,0.0,0.0,0.0,0.0,0.0,0.0,0.0,0.0,0.0,0.0,0.0,0.0,0.0,0.0,0.0,0.0,0.0,0.0,0.0,0.0,0.0,0.0,0.0,0.0,0.0,0.0,0.0,0.0,0.0,0.0,0.0,0.0,0.0,0.0,0.0,0.0,0.0,0.0,0.0,0.0,0.0,0.0,0.0,0.0,0.0,0.0,0.0,0.0,0.0,0.0,0.0,0.0,0.0,0.0,0.0,0.0,0.0,0.0,0.0,0.0,0.0,0.0,0.0,0.0,0.0,0.0,0.0,0.0,0.0,0.0,-4.3706,-4.5488,-4.6651,-4.7138,-4.1556,-3.8623,-3.8683,0.0,0.0,0.0,0.0,0.0,0.0,0.0,0.0,0.0,0.0,0.0,0.0,0.0,0.0,0.0,0.0,0.0,0.0,0.0,0.0,0.0,0.0,0.0,0.0,0.0,0.0,0.0,0.0,0.0,0.0,0.0,0.0,0.0,0.0,0.0,0.0,0.0,0.0,0.0,0.0,0.0,0.0,0.0,0.0,0.0,0.0,0.0,0.0,0.0,0.0,0.0,0.0,0.0,0.0,0.0,0.0,0.0,0.0,0.0,0.0,0.0,0.0,0.0,0.0,0.0,0.0,0.0,0.0,0.0,0.0,0.0,0.0,0.0,0.0,0.0,0.0,0.0,0.0,0.0,0.0,0.0,0.0,0.0,0.0,0.0,0.0,0.0,0.0,0.0,0.0,0.0,0.0,0.0,0.0,0.0,0.0,0.0,0.0,0.0,0.0,0.0,0.0,0.0,0.0,0.0,0.0,0.0,0.0,-4.7814,-5.0724,-5.0616,-4.7333,-4.4589,-4.089,0.0,0.0,0.0,0.0,0.0,0.0,0.0,0.0,0.0,0.0,0.0,0.0,0.0,0.0,0.0,0.0,0.0,0.0,0.0,0.0,0.0,0.0,0.0,0.0,0.0,0.0,0.0,0.0,0.0,0.0,0.0,0.0,0.0,0.0,0.0,0.0,0.0,0.0,0.0,0.0,0.0,0.0,0.0,0.0,0.0,0.0,0.0,0.0,0.0,0.0,0.0,0.0,0.0,0.0,0.0,0.0,0.0,0.0,0.0,0.0,0.0,0.0,0.0,0.0,0.0,0.0,0.0,0.0,0.0,0.0,0.0,0.0,0.0,0.0,0.0,0.0,0.0,0.0,0.0,0.0,0.0,0.0,0.0,0.0,0.0,0.0,0.0,0.0,0.0,0.0,0.0,0.0,0.0,0.0,0.0,0.0,0.0,0.0,0.0,0.0,0.0,0.0,0.0,0.0,0.0,0.0,0.0,0.0,0.0,-5.0778,-5.4476,-5.4655,-5.0953,-4.6029,-4.2313,0.0,0.0,0.0,0.0,0.0,0.0,0.0,0.0,0.0,0.0,0.0,0.0,0.0,0.0,0.0,0.0,0.0,0.0,0.0,0.0,0.0,0.0,0.0,0.0,0.0,0.0,0.0,0.0,0.0,0.0,0.0,0.0,0.0,0.0,0.0,0.0,0.0,0.0,0.0,0.0,0.0,0.0,0.0,0.0,0.0,0.0,0.0,0.0,0.0,0.0,0.0,0.0,0.0,0.0,0.0,0.0,0.0,0.0,0.0,0.0,0.0,0.0,0.0,0.0,0.0,0.0,0.0,0.0,0.0,0.0,0.0,0.0,0.0,0.0,0.0,0.0,0.0,0.0,0.0,0.0,0.0,0.0,0.0,0.0,0.0,0.0,0.0,0.0,0.0,0.0,0.0,0.0,0.0,0.0,0.0,0.0,0.0,0.0,0.0,0.0,0.0,0.0,0.0,0.0,0.0,0.0,0.0,0.0,-4.8086,-5.2913,-5.6271,-5.6944,-5.4738,-4.9585,-4.5224,0.0,0.0,0.0,0.0,0.0,0.0,0.0,0.0,0.0,0.0,0.0,0.0,0.0,0.0,0.0,0.0,0.0,0.0,0.0,0.0,0.0,0.0,0.0,0.0,0.0,0.0,0.0,0.0,0.0,0.0,0.0,0.0,0.0,0.0,0.0,0.0,0.0,0.0,0.0,0.0,0.0,0.0,0.0,0.0,0.0,0.0,0.0,0.0,0.0,0.0,0.0,0.0,0.0,0.0,0.0,0.0,0.0,0.0,0.0,0.0,0.0,0.0,0.0,0.0,0.0,0.0,0.0,0.0,0.0,0.0,0.0,0.0,0.0,0.0,0.0,0.0,0.0,0.0,0.0,0.0,0.0,0.0,0.0,0.0,0.0,0.0,0.0,0.0,0.0,0.0,0.0,0.0,0.0,0.0,0.0,0.0,0.0,0.0,0.0,0.0,0.0,0.0,0.0,0.0,0.0,0.0,0.0,0.0,-4.9541,-5.4294,-5.6762,-5.803,-5.7878,-5.3558,-4.8366,0.0,0.0,0.0,0.0,0.0,0.0,0.0,0.0,0.0,0.0,0.0,0.0,0.0,0.0,0.0,0.0,0.0,0.0,0.0,0.0,0.0,0.0,0.0,0.0,0.0,0.0,0.0,0.0,0.0,0.0,0.0,0.0,0.0,0.0,0.0,0.0,0.0,0.0,0.0,0.0,0.0,0.0,0.0,0.0,0.0,0.0,0.0,0.0,0.0,0.0,0.0,0.0,0.0,0.0,0.0,0.0,0.0,0.0,0.0,0.0,0.0,0.0,0.0,0.0,0.0,0.0,0.0,0.0,0.0,0.0,0.0,0.0,0.0,0.0,0.0,0.0,0.0,0.0,0.0,0.0,0.0,0.0,0.0,0.0,0.0,0.0,0.0,0.0,0.0,0.0,0.0,0.0,0.0,0.0,0.0,0.0,0.0,0.0,0.0,0.0,0.0,0.0,0.0,0.0,0.0,0.0,0.0,0.0,-5.0155,-5.4296,-5.6847,-5.8116,-5.807,-5.2354,-4.7213,0.0,0.0,0.0,0.0,0.0,0.0,0.0,0.0,0.0,0.0,0.0,0.0,0.0,0.0,0.0,0.0,0.0,0.0,0.0,0.0,0.0,0.0,0.0,0.0,0.0,0.0,0.0,0.0,0.0,0.0,0.0,0.0,0.0,0.0,0.0,0.0,0.0,0.0,0.0,0.0,0.0,0.0,0.0,0.0,0.0,0.0,0.0,0.0,-3.2288,0.0,0.0,0.0,0.0,0.0,0.0,0.0,0.0,0.0,0.0,0.0,0.0,0.0,0.0,0.0,0.0,0.0,0.0,0.0,0.0,0.0,0.0,0.0,0.0,0.0,0.0,0.0,0.0,0.0,0.0,0.0,0.0,0.0,0.0,0.0,0.0,0.0,0.0,0.0,0.0,0.0,0.0,0.0,0.0,0.0,0.0,0.0,0.0,0.0,0.0,0.0,0.0,0.0,0.0,0.0,0.0,0.0,0.0,0.0,-5.0742,-5.433,-5.6131,-5.7009,-5.6843,-5.1393,-4.6781,0.0,0.0,0.0,0.0,0.0,0.0,0.0,0.0,0.0,0.0,0.0,0.0,0.0,0.0,0.0,0.0,0.0,0.0,0.0,0.0,0.0,0.0,0.0,0.0,0.0,0.0,0.0,0.0,0.0,0.0,0.0,0.0,0.0,0.0,0.0,0.0,0.0,0.0,0.0,0.0,0.0,0.0,0.0,0.0,0.0,0.0,0.0,0.0,0.0,0.0,0.0,0.0,0.0,0.0,0.0,0.0,0.0,0.0,0.0,0.0,0.0,0.0,0.0,0.0,0.0,0.0,0.0,0.0,0.0,0.0,0.0,0.0,0.0,0.0,0.0,0.0,0.0,0.0,0.0,0.0,0.0,0.0,0.0,0.0,0.0,0.0,0.0,0.0,0.0,0.0,0.0,0.0,0.0,0.0,0.0,0.0,0.0,0.0,0.0,0.0,0.0,0.0,0.0,0.0,0.0,0.0,0.0,-4.7053,-5.088,-5.4358,-5.4945,-5.5256,-5.5366,-5.0314,-4.6334,-4.3687,0.0,0.0,0.0,0.0,0.0,0.0,0.0,0.0,0.0,0.0,0.0,0.0,0.0,0.0,0.0,0.0,0.0,0.0,0.0,0.0,0.0,0.0,0.0,0.0,0.0,0.0,0.0,0.0,0.0,0.0,0.0,0.0,0.0,0.0,0.0,0.0,0.0,0.0,-3.1467,-3.4114,0.0,0.0,0.0,0.0,0.0,0.0,0.0,0.0,-3.3032,0.0,0.0,0.0,0.0,0.0,0.0,0.0,0.0,0.0,0.0,0.0,0.0,0.0,0.0,0.0,0.0,0.0,0.0,0.0,0.0,0.0,0.0,0.0,0.0,0.0,0.0,0.0,0.0,0.0,0.0,0.0,0.0,0.0,0.0,0.0,0.0,0.0,0.0,0.0,0.0,0.0,0.0,0.0,0.0,0.0,0.0,0.0,0.0,0.0,0.0,0.0,0.0,0.0,0.0,0.0,0.0,-4.5819,-4.6647,-4.9487,-5.4394,-5.3456,-5.3166,-5.3695,-4.8796,-4.4684,-4.1673,0.0,0.0,0.0,0.0,0.0,0.0,0.0,0.0,0.0,0.0,0.0,0.0,0.0,0.0,0.0,0.0,0.0,0.0,0.0,0.0,0.0,0.0,0.0,0.0,0.0,0.0,0.0,0.0,0.0,0.0,0.0,0.0,0.0,0.0,0.0,0.0,0.0,0.0,0.0,-3.6007,-3.7711,0.0,0.0,0.0,0.0,0.0,0.0,0.0,0.0,-3.1674,0.0,0.0,0.0,0.0,0.0,0.0,0.0,0.0,0.0,0.0,0.0,0.0,0.0,0.0,0.0,0.0,0.0,0.0,0.0,0.0,0.0,0.0,0.0,0.0,0.0,0.0,0.0,0.0,0.0,0.0,0.0,0.0,0.0,0.0,0.0,0.0,0.0,0.0,0.0,0.0,0.0,0.0,0.0,0.0,0.0,0.0,0.0,0.0,0.0,0.0,0.0,0.0,0.0,0.0,0.0,-4.4517,-4.6686,-4.9747,-5.3822,-5.2909,-5.2131,-5.164,-4.6667,-4.2709,0.0,0.0,0.0,0.0,0.0,0.0,0.0,0.0,0.0,0.0,0.0,0.0,0.0,0.0,0.0,0.0,0.0,0.0,0.0,0.0,0.0,0.0,0.0,0.0,0.0,0.0,0.0,0.0,0.0,0.0,0.0,0.0,0.0,0.0,0.0,0.0,0.0,0.0,0.0,0.0,-3.7186,-3.8757,-3.8527,0.0,0.0,0.0,0.0,0.0,0.0,-3.3844,-3.2258,0.0,0.0,0.0,0.0,0.0,0.0,0.0,0.0,0.0,0.0,0.0,0.0,0.0,0.0,0.0,0.0,0.0,0.0,0.0,0.0,0.0,0.0,0.0,0.0,0.0,0.0,0.0,0.0,0.0,0.0,0.0,0.0,0.0,0.0,0.0,0.0,0.0,0.0,0.0,0.0,0.0,0.0,0.0,0.0,0.0,0.0,0.0,0.0,0.0,0.0,0.0,0.0,0.0,0.0,0.0,-4.2395,-4.6229,-4.9731,-5.284,-5.2266,-5.1217,-4.983,-4.5077,-4.1339,0.0,0.0,0.0,0.0,0.0,0.0,0.0,0.0,0.0,0.0,0.0,0.0,0.0,0.0,0.0,0.0,0.0,0.0,0.0,0.0,0.0,0.0,0.0,0.0,0.0,0.0,0.0,0.0,0.0,0.0,0.0,0.0,0.0,0.0,0.0,0.0,0.0,0.0,0.0,0.0,0.0,-3.9613,-3.9528,-3.8819,0.0,0.0,0.0,0.0,-3.6895,-3.5258,0.0,0.0,0.0,0.0,0.0,0.0,0.0,0.0,0.0,0.0,0.0,0.0,0.0,0.0,0.0,0.0,0.0,0.0,0.0,0.0,0.0,0.0,0.0,0.0,0.0,0.0,0.0,0.0,0.0,0.0,0.0,0.0,0.0,0.0,0.0,0.0,0.0,0.0,0.0,0.0,0.0,0.0,0.0,0.0,0.0,0.0,0.0,0.0,0.0,0.0,0.0,0.0,0.0,0.0,0.0,0.0,-4.0366,-4.4139,-4.7793,-5.1217,-5.0727,-4.9949,-4.9103,-4.5331,-4.1644,0.0,0.0,0.0,0.0,0.0,0.0,0.0,0.0,0.0,0.0,0.0,0.0,0.0,0.0,0.0,0.0,0.0,0.0,0.0,0.0,0.0,0.0,0.0,0.0,0.0,0.0,0.0,0.0,0.0,0.0,0.0,0.0,0.0,0.0,0.0,0.0,0.0,0.0,0.0,0.0,0.0,-4.0447,-3.6706,-3.7297,-3.7855,0.0,0.0,-3.7512,-3.9738,-3.9329,0.0,0.0,0.0,0.0,0.0,0.0,0.0,0.0,0.0,0.0,0.0,0.0,0.0,0.0,0.0,0.0,0.0,0.0,0.0,0.0,0.0,0.0,0.0,0.0,0.0,0.0,0.0,0.0,0.0,0.0,0.0,0.0,0.0,0.0,0.0,0.0,0.0,0.0,0.0,0.0,0.0,0.0,0.0,0.0,0.0,0.0,0.0,0.0,0.0,0.0,0.0,0.0,0.0,0.0,0.0,-3.5448,-4.0045,-4.3775,-4.7496,-5.0982,-5.0084,-4.8917,-4.7767,-4.3318,-3.9546,0.0,0.0,0.0,0.0,0.0,0.0,0.0,0.0,0.0,0.0,0.0,0.0,0.0,0.0,0.0,0.0,0.0,0.0,0.0,0.0,0.0,0.0,0.0,0.0,0.0,0.0,0.0,0.0,0.0,0.0,0.0,0.0,0.0,0.0,0.0,0.0,0.0,0.0,0.0,0.0,0.0,0.0,-3.8723,-3.9671,0.0,0.0,0.0,-3.9491,-3.9807,0.0,0.0,0.0,0.0,0.0,0.0,0.0,0.0,0.0,0.0,0.0,0.0,0.0,0.0,0.0,0.0,0.0,0.0,0.0,0.0,0.0,0.0,0.0,0.0,0.0,0.0,0.0,0.0,0.0,0.0,0.0,0.0,0.0,0.0,0.0,0.0,0.0,0.0,0.0,0.0,0.0,0.0,0.0,0.0,0.0,0.0,0.0,0.0,0.0,0.0,0.0,0.0,0.0,0.0,0.0,0.0,0.0,-3.9249,-4.3521,-4.7225,-5.0204,-4.9181,-4.7852,-4.6317,-4.154,0.0,0.0,0.0,0.0,0.0,0.0,0.0,0.0,0.0,0.0,0.0,0.0,0.0,0.0,0.0,0.0,0.0,0.0,0.0,0.0,0.0,0.0,0.0,0.0,0.0,0.0,0.0,-2.149,0.0,0.0,0.0,0.0,0.0,0.0,0.0,0.0,0.0,0.0,0.0,0.0,0.0,0.0,-3.8454,-3.9939,-4.1205,-4.1357,0.0,0.0,-4.1086,-3.9948,-3.9205,-3.7844,0.0,0.0,0.0,0.0,0.0,0.0,0.0,0.0,0.0,0.0,0.0,0.0,0.0,0.0,0.0,0.0,0.0,0.0,0.0,0.0,0.0,0.0,0.0,0.0,0.0,0.0,0.0,0.0,0.0,0.0,0.0,0.0,0.0,0.0,0.0,0.0,0.0,0.0,0.0,0.0,0.0,0.0,0.0,0.0,0.0,0.0,0.0,0.0,0.0,0.0,0.0,0.0,0.0,0.0,0.0,-3.7117,-4.2743,-4.6452,-4.8058,-4.7591,-4.6605,-4.5117,-4.1071,-3.7406,0.0,0.0,0.0,0.0,0.0,0.0,0.0,0.0,0.0,0.0,0.0,0.0,0.0,0.0,0.0,0.0,0.0,0.0,0.0,0.0,0.0,0.0,0.0,0.0,0.0,0.0,0.0,0.0,0.0,0.0,0.0,0.0,0.0,0.0,0.0,0.0,0.0,0.0,0.0,0.0,0.0,-3.7191,-3.7994,-3.9926,-4.1441,0.0,0.0,-4.1948,-4.117,-4.2736,-4.1687,-3.4668,0.0,0.0,0.0,0.0,0.0,0.0,0.0,0.0,0.0,0.0,0.0,0.0,0.0,0.0,0.0,0.0,0.0,0.0,0.0,0.0,0.0,0.0,0.0,0.0,0.0,0.0,0.0,0.0,0.0,0.0,0.0,0.0,0.0,0.0,0.0,0.0,0.0,0.0,0.0,0.0,0.0,0.0,0.0,0.0,0.0,0.0,0.0,0.0,0.0,0.0,0.0,0.0,0.0,-3.4374,-3.6322,-4.1312,-4.4556,-4.5889,-4.5304,-4.4212,-4.2557,-3.9732,-3.6411,0.0,0.0,0.0,0.0,0.0,0.0,0.0,0.0,0.0,0.0,0.0,0.0,0.0,0.0,0.0,0.0,0.0,0.0,0.0,0.0,0.0,0.0,0.0,0.0,0.0,0.0,0.0,0.0,-2.2902,-2.2951,-2.3983,0.0,0.0,0.0,0.0,0.0,0.0,0.0,0.0,0.0,0.0,-3.673,-3.8589,-4.0162,0.0,0.0,-4.1536,-4.2033,-4.1322,-4.1153,-3.9851,-3.6101,-3.4421,0.0,0.0,0.0,0.0,0.0,0.0,0.0,0.0,0.0,0.0,0.0,0.0,0.0,0.0,0.0,0.0,0.0,0.0,0.0,0.0,0.0,0.0,0.0,0.0,0.0,0.0,0.0,0.0,0.0,0.0,0.0,0.0,0.0,0.0,0.0,0.0,0.0,0.0,0.0,0.0,0.0,0.0,0.0,0.0,0.0,0.0,0.0,0.0,0.0,0.0,0.0,0.0,-3.3679,-3.5223,-3.9516,-4.238,-4.367,-4.2993,-4.1965,-4.0513,-3.8279,-3.5363,0.0,0.0,0.0,0.0,0.0,0.0,0.0,0.0,0.0,0.0,0.0,0.0,0.0,0.0,0.0,0.0,0.0,0.0,0.0,0.0,0.0,0.0,0.0,0.0,0.0,0.0,0.0,0.0,-2.3849,-2.3763,-2.3848,0.0,0.0,0.0,0.0,0.0,0.0,0.0,0.0,0.0,0.0,-3.6252,-3.9318,-4.0256,-4.0546,-4.0144,-4.0879,-4.1367,-4.0932,-3.9918,-3.846,-3.6335,0.0,0.0,0.0,0.0,0.0,0.0,0.0,0.0,0.0,0.0,0.0,0.0,0.0,0.0,0.0,0.0,0.0,0.0,0.0,0.0,0.0,0.0,0.0,0.0,0.0,0.0,0.0,0.0,0.0,0.0,-2.7671,0.0,0.0,0.0,0.0,0.0,0.0,0.0,0.0,0.0,0.0,0.0,0.0,0.0,0.0,0.0,0.0,0.0,0.0,0.0,0.0,0.0,0.0,-3.2343,-3.3496,-3.7519,-4.0092,-4.1129,-4.0722,-4.0118,-3.9298,-3.6816,-3.4372,-3.1972,0.0,0.0,0.0,0.0,0.0,0.0,0.0,0.0,0.0,0.0,0.0,0.0,0.0,0.0,0.0,0.0,0.0,0.0,0.0,0.0,0.0,0.0,0.0,0.0,0.0,0.0,-2.5306,-2.4881,-2.39,0.0,0.0,0.0,0.0,0.0,0.0,0.0,0.0,0.0,0.0,-3.3615,-3.5622,-3.9887,-3.9901,-3.9934,-4.1333,-4.0552,-3.9814,-4.0067,-3.9841,-3.843,0.0,0.0,0.0,0.0,0.0,0.0,0.0,0.0,0.0,0.0,0.0,0.0,0.0,0.0,0.0,0.0,0.0,0.0,0.0,0.0,0.0,0.0,0.0,0.0,0.0,0.0,0.0,-3.1083,-3.0304,0.0,0.0,0.0,0.0,0.0,0.0,0.0,0.0,0.0,0.0,0.0,-3.1992,-3.2697,0.0,0.0,0.0,0.0,0.0,0.0,0.0,0.0,0.0,0.0,0.0,0.0,-3.2171,-3.3736,-3.6526,-3.832,-3.9003,-3.8884,-3.8378,-3.7458,-3.6167,-3.3668,-2.9847,0.0,0.0,0.0,0.0,0.0,0.0,0.0,0.0,0.0,0.0,0.0,0.0,0.0,0.0,0.0,0.0,0.0,0.0,0.0,0.0,0.0,0.0,0.0,0.0,0.0,-2.3736,0.0,0.0,0.0,0.0,0.0,0.0,0.0,0.0,0.0,0.0,0.0,-3.0158,-3.2966,-3.4186,-3.5656,-3.8008,-3.85,-3.8805,0.0,0.0,0.0,0.0,0.0,0.0,0.0,0.0,0.0,0.0,0.0,0.0,0.0,0.0,-3.794,-3.3442,-3.1629,-3.0672,-3.0246,0.0,0.0,0.0,0.0,0.0,0.0,0.0,0.0,0.0,0.0,0.0,0.0,0.0,0.0,0.0,0.0,-3.0831,0.0,0.0,0.0,0.0,0.0,0.0,0.0,0.0,-3.3259,-3.4197,-3.3879,-3.4761,-3.4518,0.0,-3.3577,-3.2017,0.0,0.0,0.0,0.0,0.0,0.0,0.0,0.0,-3.1726,-3.2976,-3.5216,-3.663,-3.7086,-3.7129,-3.6833,-3.6181,-3.5055,-3.2946,-2.9702,-2.762,-2.5725,0.0,0.0,0.0,0.0,0.0,0.0,0.0,0.0,0.0,0.0,0.0,0.0,0.0,0.0,0.0,0.0,0.0,0.0,0.0,0.0,0.0,0.0,0.0,-2.397,0.0,0.0,0.0,0.0,0.0,0.0,0.0,0.0,0.0,-2.8238,-2.9262,-3.0903,-3.357,-3.4498,-3.5523,-3.7214,0.0,0.0,0.0,0.0,0.0,0.0,0.0,-3.686,-3.6926,-3.6558,-3.621,-3.6166,-3.7888,-3.8885,-3.7725,0.0,0.0,-3.5661,-3.4003,-3.3126,-3.2971,-3.3652,-3.4045,-3.341,-3.4353,-3.5048,0.0,0.0,0.0,0.0,0.0,0.0,0.0,0.0,-3.3948,-3.4646,0.0,-3.276,0.0,0.0,0.0,0.0,0.0,-3.2484,0.0,0.0,-3.622,-3.73,-3.5624,-3.6193,-3.5818,-3.4698,-3.5836,-3.4743,-3.1567,-3.0002,0.0,0.0,0.0,0.0,0.0,0.0,-3.0975,-3.149,-3.3754,-3.5101,-3.5504,-3.5519,-3.5504,-3.5429,-3.3543,-3.2168,-3.1376,-2.8966,-2.73,-2.6512,-2.4724,0.0,0.0,0.0,0.0,0.0,0.0,0.0,0.0,0.0,0.0,0.0,0.0,0.0,0.0,0.0,0.0,0.0,0.0,0.0,0.0,-2.4757,0.0,0.0,0.0,0.0,0.0,0.0,0.0,0.0,0.0,0.0,-2.9391,-2.9986,-3.1451,-3.4302,0.0,0.0,0.0,0.0,-3.692,-3.7948,-3.8151,-3.8293,-3.8571,-3.8326,-3.7782,-3.6746,0.0,0.0,-3.5413,-3.729,-3.8593,-3.7179,-3.8217,-3.9266,-3.9859,-3.8065,-3.6931,-3.7499,-3.6068,-3.5289,-3.6406,-3.6288,-3.6118,-3.9607,0.0,0.0,0.0,0.0,-3.6082,-3.6532,-3.8028,-3.6811,-3.621,-3.5907,-3.3945,0.0,0.0,0.0,0.0,0.0,0.0,-3.3287,-3.3425,-3.5409,-3.6282,-3.6222,-3.6851,-3.6701,-3.5953,-3.6297,-3.5265,-3.2976,-3.2459,-3.1041,-2.8753,0.0,0.0,0.0,0.0,-3.1693,-3.2813,-3.4016,-3.4896,-3.5489,-3.5489,-3.528,-3.4786,-3.3305,-3.1764,-3.0193,-2.9427,-2.7829,-2.5322,-2.5525,0.0,0.0,0.0,0.0,0.0,0.0,0.0,0.0,0.0,0.0,0.0,0.0,0.0,0.0,0.0,0.0,0.0,0.0,0.0,-2.4998,-2.4872,-2.4466,0.0,0.0,0.0,0.0,0.0,0.0,0.0,0.0,0.0,-3.127,-3.1951,-3.2798,0.0,0.0,-3.5385,-3.672,-3.6448,-3.6495,-3.7592,0.0,0.0,0.0,-3.6352,-3.5922,-3.6072,-3.6727,-3.7329,-3.7765,-3.841,-3.8917,-3.9067,-3.9503,-3.9876,-3.996,-3.8751,-3.7736,-3.7821,-3.7753,-3.7804,-3.8244,-3.8548,-3.8667,-4.1701,-3.9318,-3.7638,-3.7711,-3.8739,-3.701,-3.7336,-3.9047,-3.7658,-3.6982,-3.677,-3.5189,-3.3668,-3.2285,-3.0634,0.0,0.0,0.0,-3.3743,-3.4196,-3.5344,-3.6103,-3.6507,-3.712,-3.709,-3.6507,-3.6492,-3.5729,-3.4292,-3.4292,-3.3186,-3.1004,0.0,0.0,-2.9483,-3.0976,-3.2203,-3.3069,-3.427,-3.4951,-3.5085,-3.4846,-3.4397,-3.3694,-3.2677,-3.1435,-3.0026,-2.9472,-2.8143,-2.5914,-2.6303,-2.5773,0.0,0.0,0.0,0.0,0.0,0.0,0.0,0.0,0.0,0.0,0.0,-2.0869,0.0,0.0,0.0,0.0,-2.4333,-2.5224,-2.5092,-2.5017,0.0,0.0,0.0,0.0,0.0,0.0,0.0,-2.7607,-2.8606,-2.9879,-3.1839,-3.2735,-3.3666,-3.4985,-3.4881,-3.5049,-3.6214,0.0,-3.5599,-3.6961,-3.6708,-3.6435,-3.6662,-3.6055,-3.5622,-3.5891,-3.6581,-3.7387,-3.8254,-3.8606,-3.9034,-3.961,-3.9733,-3.9656,-3.9673,-3.87,-3.8142,-3.8667,-3.9131,-3.9436,-3.9453,-3.9791,-3.9893,-4.3614,-4.2261,-3.9775,-3.9035,-3.9439,-3.8138,-3.7928,-3.8452,-3.7255,-3.7315,-3.8153,-3.6387,-3.5489,-3.522,-3.3469,0.0,-3.2721,-3.3993,-3.4578,-3.4638,-3.5833,-3.6417,-3.6432,-3.6985,-3.6971,-3.6402,-3.6402,-3.6103,-3.5504,-3.5489,-3.4846,-3.3559,-3.1734,-3.0477,-2.9953,-3.1704,-3.2677,-3.2691,-3.4487,-3.5085,-3.4444,-3.3709,-3.3066,-3.2422,-3.1675,-3.0957,-3.0342,-2.916,-2.8229,-2.7555,-2.6941,-2.6273,-2.5525,0.0,0.0,0.0,0.0,0.0,0.0,0.0,0.0,0.0,0.0,0.0,0.0,0.0,0.0,0.0,-2.4911,0.0,-2.4664,-2.5158,0.0,0.0,0.0,-2.4537,-2.4223,-2.5663,-2.678,-2.7085,0.0,0.0,-3.1585,0.0,-3.4119,-3.575,-3.482,-3.4486,-3.5918,-3.4927,-3.456,-3.6202,-3.6375,-3.6492,-3.679,-3.6442,-3.5957,-3.581,-3.6415,-3.6929,-3.7454,-3.8068,-3.8712,-3.9168,-3.9076,-3.8903,-3.8903,-3.8345,-3.8311,-3.9546,-3.9825,-3.9859,-3.9774,-3.9791,-3.958,-4.4302,-4.3,-4.1878,-4.1257,-4.0816,-3.9514,-3.9305,-3.9843,-3.9065,-3.8317,-3.7584,-3.6671,-3.5415,-3.3963,-3.3993,-3.4039,-3.4053,-3.4891,-3.5265,-3.528,-3.5594,-3.5729,-3.5759,-3.5893,-3.5893,-3.5744,-3.5729,-3.5654,-3.5504,-3.5489,-3.507,-3.4247,-3.38,-3.2961,-3.1913,-3.3275,-3.4054,-3.4039,-3.4503,-3.4397,-3.3755,-3.2602,-3.1899,-3.1735,-3.0135,-2.922,-2.9041,-2.8289,-2.754,-2.6881,-2.6677,-2.6063,-2.4889,-2.4395,0.0,0.0,0.0,0.0,0.0,0.0,0.0,0.0,0.0,-2.2194,-2.1515,0.0,-2.3655,0.0,-2.5585,-2.5884,-2.4701,-2.4739,0.0,0.0,-2.5375,-2.5704,-2.6615,-2.71,-2.779,-2.885,-3.0011,-3.1122,-3.2153,-3.2991,-3.3666,-3.4104,-3.4283,-3.4704,-3.5486,-3.4945,-3.4656,-3.5492,-3.5295,-3.5043,-3.5162,-3.4812,-3.4637,-3.4742,-3.5145,-3.5723,-3.6675,-3.6986,-3.7385,-3.8078,-3.8222,-3.8159,-3.8159,-3.8007,-3.799,-3.8345,-3.843,-3.843,-3.843,-3.8447,-3.8379,-4.4706,-4.3678,-4.3075,-4.2455,-4.1752,-4.0412,-4.0232,-4.0741,-3.9792,-3.8826,-3.7793,-3.6896,-3.5699,-3.4442,-3.4771,-3.4921,-3.4966,-3.534,-3.5489,-3.5489,-3.5489,-3.5489,-3.5489,-3.5489,-3.5489,-3.5489,-3.5489,-3.5489,-3.5489,-3.5489,-3.531,-3.4936,-3.4936,-3.4562,-3.3888,-3.4262,-3.4503,-3.4503,-3.4219,-3.3709,-3.3036,-3.1495,-3.0763,-3.0987,-2.916,-2.8293,-2.8577,-2.7934,-2.73,-2.6632,-2.6896,-2.6437,-2.5128,-2.4754,-2.4425,0.0,0.0,0.0,0.0,0.0,0.0,0.0,0.0,0.0,0.0,0.0,-2.3744,-2.4148,-2.5375,-2.5854,-2.5113,-2.5307,-2.5644,-2.6019,-2.6033,-2.6348,-2.7091,-2.7435,-2.8109,-2.9457,-3.0118,-3.0911,-3.1914,-3.2392,-3.2736,-3.3006,-3.3365,-3.3844,-3.4397,-3.4023,-3.3844,-3.4472,-3.4277,-3.4069,-3.4084,-3.3878,-3.3819,-3.4148,-3.4472,-3.4964,-3.573,-3.6269,-3.6781,-3.7228,-3.7362,-3.7398,-3.7398,-3.7094,-3.6884,-3.6867,-3.6867,-3.7104,-3.777,-3.7898,-3.7838,-4.4781,-4.4097,-4.3529,-4.2955,-4.2306,-4.104,-4.0816,-4.1197,-3.9948,-3.899,-3.8197,-3.6926,-3.6043,-3.5504,-3.5489,-3.5489,-3.5489,-3.5489,-3.5489,-3.5489,-3.5489,-3.5489,-3.5489,-3.5489,-3.5489,-3.5489,-3.5489,-3.5489,-3.5489,-3.5489,-3.5489,-3.5489,-3.5489,-3.5489,-3.5474,-3.4906,-3.4548,-3.4384,-3.3784,-3.3185,-3.2512,-3.0746,-3.0058,-3.0402,-2.8618,-2.7884,-2.8427,-2.7839,-2.7255,-2.6791,-2.721,-2.6916,-2.5794,-2.5098,-2.4948,0.0,-2.3954,0.0,0.0,0.0,0.0,0.0,0.0,0.0,0.0,-2.3535,-2.3819,-2.3729,-2.4881,-2.56,-2.56,-2.6138,-2.6497,-2.6572,-2.6602,-2.6632,-2.6722,-2.733,-2.8184,-2.9352,-2.9998,-3.0627,-3.1122,-3.1301,-3.1615,-3.2108,-3.2347,-3.2662,-3.308,-3.2886,-3.2826,-3.332,-3.338,-3.3365,-3.335,-3.3336,-3.3337,-3.3606,-3.384,-3.4297,-3.4748,-3.546,-3.6109,-3.6272,-3.6272,-3.6282,-3.6372,-3.5757,-3.5346,-3.5312,-3.5312,-3.5785,-3.7094,-3.7483,-3.7398,-4.4067,-4.3484,-4.3349,-4.2955,-4.2336,-4.1572,-4.0965,-4.0531,-3.9753,-3.8721,-3.7509,-3.6252,-3.5624,-3.5504,-3.5489,-3.5489,-3.5489,-3.5489,-3.5489,-3.5489,-3.5489,-3.5489,-3.5489,-3.5489,-3.5489,-3.5489,-3.5489,-3.5489,-3.5489,-3.5489,-3.5489,-3.5489,-3.5489,-3.5489,-3.5489,0.0,0.0,0.0,-3.3559,-3.317,-3.2527,-3.1615,-3.0913,-3.0492,-2.8592,0.0,-2.7764,-2.7126,-2.6986,-2.7375,-2.7016,0.0,0.0,0.0,0.0,0.0,0.0,0.0,0.0,0.0,0.0,0.0,-2.527,-2.5046,-2.5061,-2.5166,-2.4993,-2.45,-2.5151,-2.56,-2.5615,-2.5719,-2.6004,-2.6527,-2.6602,-2.6797,-2.736,-2.7979,-2.8532,-2.8757,-2.9355,-2.9831,-2.9983,-3.0372,-3.0746,-3.0926,-3.1346,-3.1705,-3.1854,-3.2198,-3.2542,-3.2691,-3.2691,-3.2691,-3.2662,-3.2449,-3.2367,-3.2389,-3.2601,-3.3127,-3.3884,-3.3779,-3.4005,-3.4697,-3.4413,-3.41,-3.41,-3.3914,-3.3914,-3.3829,-3.3825,-3.4264,-3.5701,-3.6039,-3.5988,-4.3902,0.0,-4.2985,-4.2476,0.0,-4.1175,-4.0531,-3.9873,-3.92,-3.8167,-3.6926,-3.6267,-3.5818,-3.5489,-3.5489,-3.5684,-3.5998,-3.5983,-3.5998,-3.5983,-3.5983,-3.5818,-3.5489,-3.5489,-3.5489,-3.5489,-3.5489,-3.5489,-3.5489,-3.5489,-3.5489,-3.5489,-3.5489,-3.5489,-3.5489,-3.5175,-3.4502,-3.3514,-3.3185,-3.2691,-3.1989,-3.0733,-3.0195,-3.0432,0.0,0.0,0.0,0.0,0.0,0.0,0.0,0.0,0.0,0.0,0.0,-2.563,-2.5899,-2.6093,-2.6108,-2.6682,-2.6946,-2.6626,-2.6596,-2.6303,-2.5651,-2.56,-2.5442,-2.5143,-2.542,-2.5749,-2.6063,-2.6093,-2.6363,-2.7001,-2.7091,-2.7255,-2.757,-2.7899,-2.8218,-2.8562,-2.8891,-2.919,-2.9577,-2.9834,-3.0028,-3.0073,-3.0612,-3.0898,-3.0688,-3.1376,-3.2004,-3.2004,-3.1989,-3.1884,-3.1614,-3.1701,-3.1552,-3.1222,-3.15,-3.2004,-3.2327,-3.2523,-3.2803,-3.3328,-3.3391,-3.3385,-3.3389,-3.3389,-3.3389,-3.3389,-3.3389,-3.3592,-3.4382,-3.4788,-3.5042,-4.3643,-4.309,-4.25,-4.1841,-4.1175,-4.0621,-3.9888,-3.9,0.0,0.0,0.0,-3.639,-3.6013,-3.5504,-3.5489,-3.5804,-3.6297,-3.6327,-3.6312,-3.6312,-3.6312,-3.6028,-3.5504,-3.5489,-3.5489,-3.5489,-3.5489,-3.5489,-3.5489,-3.5489,-3.5489,-3.5489,-3.5489,-3.5489,-3.5459,-3.4816,-3.4189,-3.3499,-3.2961,-3.2333,-3.166,-3.0118,-2.9729,-3.0629,-2.8382,-2.7615,-2.8547,-2.7959,-2.7585,-2.7585,-2.7585,-2.7345,-2.6836,-2.6767,-2.6707,-2.6602,-2.6716,-2.6961,-2.7405,-2.8049,-2.8188,-2.763,-2.7585,-2.7046,-2.5719,-2.5696,-2.5756,-2.5779,-2.5779,-2.6048,-2.6692,-2.6767,-2.7001,-2.754,-2.7585,-2.7585,-2.7585,-2.7585,-2.7839,-2.8308,-2.8412,-2.8607,-2.9086,-2.931,-2.9442,-2.9502,-2.9939,-3.0238,-2.9968,-3.0597,-3.1152,-3.1286,-3.1197,-3.0928,-3.0597,-3.0761,-3.0829,-3.0255,-3.0666,-3.105,-3.1074,-3.1478,-3.1945,-3.2264,-3.2655,-3.282,-3.2963,-3.2916,-3.3017,-3.3017,-3.3017,-3.3017,-3.3068,-3.3575,-3.415,-4.2635,-4.247,-4.1826,-4.113,-4.0531,-4.0442,-3.9379,-3.7704,-3.7599,-3.715,-3.6495,-3.5893,-3.5594,-3.5489,-3.5489,-3.5564,-3.5639,-3.5639,-3.5654,0.0,-3.5639,-3.5594,-3.5504,-3.5489,-3.5489,-3.5489,-3.5489,-3.5489,-3.5489,-3.5489,-3.5489,-3.5489,-3.5489,-3.5489,-3.5444,-3.4831,-3.4189,-3.3514,-3.3395,-3.3036,-3.2378,-3.2079,-3.1735,-3.1316,-2.9924,-2.8966,-2.8607,-2.7974,-2.7585,-2.7585,-2.7585,-2.7555,-2.7465,-2.7435,-2.7195,-2.6677,-2.7136,-2.7255,-2.6806,-2.7375,-2.7705,-2.76,-2.7585,-2.7046,-2.5764,-2.6123,-2.6467,-2.6452,-2.6452,-2.6722,-2.736,-2.7435,-2.7465,-2.757,-2.7585,-2.7585,-2.7585,-2.7585,-2.7645,-2.7764,-2.7735,-2.7779,-2.8004,-2.8438,-2.8742,-2.8831,-2.9247,-2.9819,-3.0133,-3.0058,-3.0118,-3.0432,-3.0178,-2.9864,-2.9759,-2.9789,-2.9883,-2.9928,-2.9978,-3.0391,-3.091,-3.0839,-3.0939,-3.1714,-3.1529,-3.1381,-3.1553,-3.1512,-3.161,-3.1661,-3.1698,-3.1647,-3.1698,-3.2239,-3.3055,-4.2396,-4.2261,-4.128,-4.0681,-4.0337,-3.9619,-3.8601,-3.7404,-3.7045,-3.6552,-3.5953,-3.5639,-3.5489,-3.5489,-3.5489,-3.5699,-3.6028,-3.6043,-3.6043,-3.6043,-3.6043,-3.5848,-3.5519,-3.5489,-3.5489,-3.5489,-3.5489,-3.5489,-3.5489,-3.5489,-3.5489,-3.5489,-3.5489,-3.5489,-3.5474,-3.519,-3.4696,-3.4069,-3.3679,-3.3006,-3.2004,-3.1959,-3.163,-3.0972,-3.0058,-2.9472,-2.9146,-2.8513,-2.8128,-2.8154,-2.7794,-2.7585,-2.7585,-2.7585,-2.7465,-2.718,-2.742,-2.7465,-2.718,-2.742,-2.7585,-2.7585,-2.7585,-2.7345,-2.6761,-2.6971,-2.7151,-2.7136,-2.7151,-2.727,-2.757,-2.7585,-2.7585,-2.7585,-2.7585,-2.7585,-2.7585,-2.7585,-2.7585,-2.7585,-2.7585,-2.7585,-2.7585,-2.7884,-2.8064,-2.8094,-2.8378,-2.8903,-2.9789,-2.9187,-2.9037,-3.0178,-3.0268,-2.9774,-2.9247,-2.9397,-2.933,-2.8804,-2.9173,-2.9536,-2.989,-2.9839,-3.0389,-3.0815,-3.075,-3.0864,-3.1131,-3.1035,-3.1032,-3.1171,-3.119,-3.119,-3.1275,-3.1765,-3.2513,-4.2398,-4.2066,-4.0876,-4.0322,-4.0053,-3.8736,-3.7868,-3.7345,-3.6596,-3.5968,-3.5534,-3.5489,-3.5489,-3.5489,-3.5489,-3.5774,-3.6222,-3.6267,-3.6252,-3.6267,-3.6267,-3.5998,-3.5549,-3.5489,-3.5489,-3.5489,-3.5489,-3.5489,-3.5489,-3.5489,-3.5489,-3.5489,-3.5489,-3.5489,-3.5489,-3.5489,-3.516,-3.4533,-3.4113,-3.3305,-3.2004,-3.1944,-3.163,-3.0971,-3.0372,-2.9981,-2.9801,-2.916,-2.8816,-2.8801,-2.8349,-2.8049,-2.8064,-2.8049,-2.8049,-2.8049,-2.8049,-2.8064,-2.8049,-2.8049,-2.8049,-2.8049,-2.8049,-2.8049,-2.8049,-2.8049,-2.7899,-2.766,-2.757,-2.7585,-2.7585,-2.7585,-2.7585,-2.7585,-2.7585,-2.7585,-2.7585,-2.7585,-2.7585,-2.7585,-2.7585,-2.7585,-2.7585,-2.7585,-2.7615,-2.763,-2.7585,-2.8109,-2.8966,-2.8438,-2.8618,-2.949,-2.9953,-2.9415,-2.8547,-2.8727,-2.8674,-2.778,-2.8399,-2.878,-2.8742,-2.9307,-2.9886,-3.0092,-3.0413,-3.0712,-3.1052,-3.1015,-3.0955,-3.1151,-3.119,-3.119,-3.1224,-3.1785,-3.2175,-4.2395,-4.1437,-4.0718,-4.0053,-3.9409,-3.8093,-3.7479,-3.7255,-3.6133,-3.5564,-3.5504,-3.5489,-3.5489,-3.5489,-3.5489,-3.5564,-3.5624,-3.5594,-3.5609,-3.5624,-3.5579,-3.5564,-3.5504,-3.5489,-3.5489,-3.5489,-3.5489,-3.5489,-3.5489,-3.5489,-3.5489,-3.5489,-3.5489,-3.5489,-3.5489,-3.5489,-3.516,-3.4548,-3.5026,-3.4666,-3.341,-3.3305,-3.2991,-3.2318,-3.166,-3.1032,-3.0492,-2.9819,-2.9517,-2.9517,-2.9415,-2.9412,-2.937,-2.9397,-2.9412,-2.9382,-2.9397,-2.9427,-2.9412,-2.9427,-2.9367,-2.9427,-2.9352,-2.9352,-2.9352,-2.9382,-2.8873,-2.7989,-2.7645,-2.7705,-2.76,-2.7675,-2.7705,-2.769,-2.7705,-2.7585,-2.76,-2.7585,-2.7585,-2.7585,-2.763,-2.7585,-2.7615,-2.7585,-2.7585,-2.7585,-2.7585,-2.7839,-2.8498,-2.8502,-2.8323,-2.8607,-2.8308,-2.7989,-2.7764,-2.772,-2.7916,-2.7911,-2.8025,-2.8204,-2.8411,-2.8677,-2.902,-2.9744,-3.0044,-3.0443,-3.0935,-3.1151,-3.1112,-3.1151,-3.119,-3.119,-3.1258,-3.1785,-3.2039,-4.2345,-4.164,-4.0613,-3.986,-3.9245,-3.7988,-3.7404,-3.7285,-3.6058,-3.5489,-3.5489,-3.5489,-3.5489,-3.5489,-3.5489,-3.5489,-3.5489,-3.5489,-3.5489,-3.5489,-3.5489,-3.5489,-3.5489,-3.5489,-3.5489,-3.5489,-3.5489,-3.5489,-3.5489,-3.5489,-3.5489,-3.5489,-3.5489,-3.5489,-3.5489,-3.5489,-3.5355,-3.51,-3.5355,-3.522,-3.4726,-3.4277,-3.3769,-3.311,-3.2422,-3.1974,-3.1629,-3.0702,-3.0133,-3.0103,-2.9801,-2.9621,-2.9621,-2.9621,-2.9621,-2.9621,-2.9621,-2.9621,-2.9621,-2.9621,-2.9621,-2.9621,-2.9621,-2.9621,-2.9621,-2.9621,-2.9352,-2.8918,-2.8783,-2.8783,-2.8768,-2.8798,-2.8607,-2.8349,-2.8528,-2.8483,-2.766,-2.8304,-2.8528,-2.7794,-2.7959,-2.8034,-2.769,-2.7585,-2.7585,-2.7585,-2.7585,-2.775,-2.7989,-2.8019,-2.8019,-2.7989,-2.7764,-2.763,-2.7585,-2.7585,-2.765,-2.7765,-2.789,-2.8054,-2.8162,-2.87,-2.9198,-2.9454,-2.9677,-3.0108,-3.0753,-3.0733,-3.0692,-3.0915,-3.119,-3.119,-3.119,-3.1765,-3.2039,-4.2627,-4.1961,-4.0614,-3.9747,-3.9254,-3.7973,-3.7404,-3.724,-3.6058,-3.5489,-3.5489,-3.5489,-3.5489,-3.5489,-3.5489,-3.5489,-3.5489,-3.5489,-3.5489,-3.5489,-3.5489,-3.5489,-3.5489,-3.5489,-3.5489,-3.5489,-3.5489,-3.5489,-3.5489,-3.5489,-3.5489,-3.5489,-3.5489,-3.5489,-3.5489,-3.5489,-3.5489,-3.5489,-3.5489,-3.5489,-3.5415,-3.5011,-3.4442,-3.3784,-3.3125,-3.2706,-3.2467,-3.1376,-3.0791,-3.0776,-3.0357,-3.0118,-3.0118,-3.0118,-3.0118,-3.0118,-3.0118,-3.0118,-3.0118,-3.0118,-3.0118,-3.0103,-3.0118,-3.0118,-3.0118,-3.0118,-3.0118,-3.0118,-3.0118,-3.0028,-2.9636,-2.9621,-2.9382,-2.8966,-2.9352,-2.9116,-2.8393,-2.9097,-2.9127,-2.8154,-2.8278,-2.8364,-2.7779,-2.7585,-2.7585,-2.7585,-2.7585,-2.7585,-2.7585,-2.763,-2.7615,-2.7585,-2.76,-2.76,-2.7585,-2.7585,-2.7585,-2.7625,-2.7765,-2.784,-2.7905,-2.8518,-2.9082,-2.909,-2.9296,-2.9677,-3.03,-3.0321,-3.0172,-3.0634,-3.0915,-3.1015,-3.1012,-3.1837,-3.2493,-4.3438,-4.2304,-4.0685,-3.9762,-3.9305,-3.8003,-3.7404,-3.733,-3.6073,-3.5504,-3.5504,-3.5489,-3.5489,-3.5489,-3.5489,-3.5489,-3.5489,-3.5489,-3.5489,-3.5489,-3.5489,-3.5489,-3.5489,-3.5489,-3.5489,-3.5489,-3.5489,-3.5489,-3.5489,-3.5489,-3.5489,-3.5489,-3.5489,-3.5489,-3.5489,-3.5489,-3.5489,-3.5489,-3.5489,-3.5489,-3.5489,-3.5459,-3.51,-3.4442,-3.3799,-3.3185,-3.2557,-3.1839,-3.1451,-3.1466,-3.1376,-3.1361,-3.1376,-3.1361,-3.1331,-3.1346,-3.1361,-3.1376,-3.1331,-3.1301,-3.1301,-3.1346,-3.1256,-3.1361,-3.1227,-3.1227,-3.1227,-3.1361,-3.1241,-3.0866,-2.9924,-2.9819,-2.9714,-2.9606,-2.9579,-2.9594,-2.9487,-2.9577,-2.9307,-2.8727,-2.8637,-2.8472,-2.7794,-2.7585,-2.7675,-2.7675,-2.763,-2.7585,-2.7585,-2.7585,-2.7585,-2.7585,-2.7585,-2.7585,-2.7585,-2.7585,-2.7585,-2.761,-2.765,-2.765,-2.7725,-2.79,-2.835,-2.8732,-2.892,-2.9273,-2.9832,-3.0006,-2.9837,-3.0097,-3.051,-3.0654,-3.0814,-3.2277,-3.2988,-4.3472,-4.1863,-4.1031,-4.016,-3.932,-3.8422,-3.7808,-3.7345,-3.6507,-3.5893,-3.5549,-3.5489,-3.5489,-3.5489,-3.5489,-3.5489,-3.5489,-3.5489,-3.5489,-3.5489,-3.5489,-3.5489,-3.5489,-3.5489,-3.5489,-3.5489,-3.5489,-3.5489,-3.5489,-3.5489,-3.5489,-3.5489,-3.5489,-3.5489,-3.5489,-3.5489,-3.5489,-3.5489,-3.5489,-3.5489,-3.5489,-3.5489,-3.537,-3.5115,-3.4472,-3.4039,-3.3784,-3.2736,-3.2138,-3.2153,-3.175,-3.1496,-3.1496,-3.1496,-3.1496,-3.1496,-3.1496,-3.1496,-3.1496,-3.1496,-3.1496,-3.1496,-3.1496,-3.1525,-3.1496,-3.1496,-3.1496,-3.1511,-3.1496,-3.1212,-3.0987,-3.0836,-3.0642,-3.0313,-3.0552,-3.0447,-2.9983,-3.0268,-3.0432,-2.952,-2.9247,-2.9101,-2.8828,-2.8528,-2.8248,-2.8188,-2.7884,-2.769,-2.7615,-2.76,-2.766,-2.76,-2.7585,-2.7585,-2.7585,-2.7585,-2.7585,-2.7585,-2.7585,-2.7625,-2.765,-2.7815,-2.8235,-2.8341,-2.8534,-2.8826,-2.9387,-2.9788,-2.9639,-2.981,-3.0194,-3.0316,-3.0688,-3.2059,-3.2899,-4.3383,-4.1683,-4.1147,-4.0356,-3.9364,-3.8676,-3.8018,-3.736,-3.6761,-3.6118,-3.5579,-3.5489,-3.5489,-3.5489,-3.5489,-3.5489,-3.5489,-3.5489,-3.5489,-3.5489,-3.5489,-3.5489,-3.5489,-3.5489,-3.5489,-3.5489,-3.5489,-3.5489,-3.5489,-3.5489,-3.5489,-3.5489,-3.5489,-3.5489,-3.5489,-3.5489,-3.5489,-3.5489,-3.5489,-3.5489,-3.5489,-3.5489,-3.5489,-3.5429,-3.504,-3.4713,-3.4503,-3.3215,-3.2497,-3.2407,-3.1854,-3.1496,-3.1496,-3.1496,-3.1496,-3.1496,-3.1496,-3.1496,-3.1496,-3.1496,-3.16,-3.1809,-3.1839,-3.1884,-3.2064,-3.1944,-3.1824,-3.1795,-3.1585,-3.1496,-3.1496,-3.1481,-3.1301,-3.0943,-3.1227,-3.1167,-3.0402,-3.0972,-3.0883,-3.0103,-2.9681,-2.9621,-2.9577,-2.9175,-2.8951,-2.8921,-2.8487,-2.8274,-2.8244,-2.8244,-2.8124,-2.7979,-2.8199,-2.8034,-2.7899,-2.7824,-2.7764,-2.7735,-2.76,-2.7585,-2.7625,-2.779,-2.793,-2.8029,-2.821,-2.8486,-2.8881,-2.9364,-2.9582,-2.9671,-2.9704,-2.9764,-3.0626,-3.1748,-3.263,-4.3164,-4.1694,-4.1111,-4.0402,-3.9379,-3.8751,-3.8063,-3.7449,-3.6821,-3.6222,-3.5669,-3.5519,-3.5489,-3.5489,-3.5489,-3.5489,-3.5489,-3.5489,-3.5489,-3.5489,-3.5489,-3.5489,-3.5489,-3.5489,-3.5489,-3.5489,-3.5489,-3.5489,-3.5489,-3.5489,-3.5489,-3.5489,-3.5489,-3.5489,-3.5489,-3.5489,-3.5489,-3.5489,-3.5489,-3.5489,-3.5489,-3.5489,-3.5489,-3.5489,-3.5444,-3.5145,-3.4563,-3.3305,-3.2676,-3.2587,-3.1989,-3.157,-3.1675,-3.1675,-3.16,-3.1675,-3.16,-3.157,-3.1615,-3.166,-3.1989,-3.2363,-3.2497,-3.2751,-3.3051,-3.2751,-3.2392,-3.2303,-3.1854,-3.1496,-3.1496,-3.1496,-3.1466,-3.1496,-3.1481,-3.1421,-3.1406,-3.1451,-3.1256,-3.0612,-3.0133,-2.9711,-2.9666,-2.9651,-2.9579,-2.9577,-2.9457,-2.9337,-2.9277,-2.9262,-2.9175,-2.8891,-2.8846,-2.8813,-2.8453,-2.8083,-2.7979,-2.7899,-2.7705,-2.7585,-2.7585,-2.77,-2.7765,-2.7865,-2.7915,-2.8195,-2.8477,-2.8889,-2.8889,-2.8975,-2.9029,-2.9373,-3.0309,-3.1368,-3.2554,-4.4101,-4.2366,-4.2124,-4.1034,-3.949,-3.9185,-3.8721,-3.8033,-3.7404,-3.6761,-3.6178,-3.5699,-3.5489,-3.5504,-3.5489,-3.5489,-3.5489,-3.5489,-3.5489,-3.5489,-3.5489,-3.5489,-3.5489,-3.5489,-3.5489,-3.5489,-3.5489,-3.5504,-3.5519,-3.5519,-3.5489,-3.5489,-3.5504,-3.5489,-3.5489,-3.5489,-3.5489,-3.5489,-3.5489,-3.5489,-3.5489,-3.5489,-3.5489,-3.5489,-3.5489,-3.5385,-3.5145,-3.4337,-3.3919,-3.3829,-3.3245,-3.2886,-3.2871,-3.2886,-3.2871,-3.2886,-3.2886,-3.2886,-3.2886,-3.2871,-3.2901,-3.314,-3.3185,-3.3275,-3.3395,-3.2946,-3.2557,-3.2452,-3.1899,-3.1496,-3.1496,-3.1496,-3.1496,-3.1496,-3.1496,-3.1496,-3.1496,-3.1496,-3.1421,-3.1241,-3.1017,-3.0941,-3.0821,-3.0554,-3.0223,-3.0178,-2.9909,-2.9684,-2.9666,-2.9729,-2.9592,-2.9367,-2.9517,-2.9562,-2.9112,-2.8888,-2.8861,-2.8487,-2.8124,-2.7839,-2.7764,-2.7585,-2.7675,-2.7725,-2.779,-2.7915,-2.8201,-2.8424,-2.8568,-2.8601,-2.8824,-2.9343,-2.995,-3.0959,-3.2199,-4.4429,-4.2638,-4.2447,-4.1231,-3.9469,-3.9388,-3.902,-3.8392,-3.7958,-3.7419,-3.6776,-3.6148,-3.5878,-3.5818,-3.5624,-3.5504,-3.5489,-3.5489,-3.5489,-3.5489,-3.5489,-3.5489,-3.5489,-3.5489,-3.5489,-3.5564,-3.5759,-3.5878,-3.5878,-3.5878,-3.5863,-3.5863,-3.5639,-3.5489,-3.5489,-3.5489,-3.5489,-3.5489,-3.5489,-3.5489,-3.5489,-3.5489,-3.5489,-3.5489,-3.5489,-3.5489,-3.5474,-3.507,-3.4741,-3.4459,-3.3844,-3.3514,-3.3499,-3.3484,-3.3499,-3.3499,-3.3499,-3.3484,-3.3499,-3.3425,-3.3634,-3.3784,-3.3858,-3.4008,-3.4038,-3.3634,-3.3185,-3.2841,-3.2302,-3.178,-3.1555,-3.1496,-3.1496,-3.1496,-3.1496,-3.1496,-3.1496,-3.1496,-3.1496,-3.1451,-3.1451,-3.1496,-3.1376,-3.1212,-3.0868,-3.0793,-3.0567,-3.0313,-3.0298,-3.0342,-3.0208,-3.0148,-3.0298,-3.0133,-2.9696,-2.9651,-2.9759,-2.9262,-2.8648,-2.8349,-2.8139,-2.7764,-2.7625,-2.77,-2.7765,-2.7905,-2.8168,-2.8578,-2.8805,-2.8762,-2.887,-2.9637,-3.0391,-3.0894,-3.2019,-4.4116,-4.2556,-4.2151,-4.0988,-3.9484,-3.9388,-3.908,-3.8542,-3.8362,-3.8003,-3.7419,-3.6806,-3.6492,-3.6327,-3.5878,-3.5624,-3.5504,-3.5489,-3.5489,-3.5534,-3.5579,-3.5609,-3.5519,-3.5609,-3.5684,-3.5729,-3.6237,-3.6507,-3.6537,-3.6522,-3.6537,-3.6477,-3.6043,-3.5609,-3.5684,-3.5579,-3.5594,-3.5504,-3.5489,-3.5489,-3.5489,-3.5489,-3.5489,-3.5489,-3.5489,-3.5489,-3.5474,-3.5415,-3.516,-3.4608,-3.4068,-3.3814,-3.3679,-3.3619,-3.3754,-3.3799,-3.3664,-3.3739,-3.3679,-3.3829,-3.3993,-3.4503,-3.4562,-3.4786,-3.5115,-3.4607,-3.4023,-3.3574,-3.2946,-3.2288,-3.178,-3.1645,-3.1615,-3.1511,-3.1496,-3.1496,-3.1496,-3.1496,-3.1496,-3.1496,-3.1496,-3.1496,-3.1496,-3.1451,-3.1421,-3.1406,-3.1331,-3.1256,-3.1241,-3.1077,-3.1062,-3.1032,-3.0957,-3.0763,-3.0357,-3.0402,-3.0507,-3.0208,-2.952,-2.9026,-2.8667,-2.8289,-2.8064,-2.8096,-2.8011,-2.8102,-2.8338,-2.8885,-2.9088,-2.9093,-2.9492,-3.0194,-3.0647,-3.1036,-3.1711,-4.37,-4.1883,-4.1745,-4.0826,-3.9505,-3.9388,-3.9284,-3.908,-3.8601,-3.8332,-3.8003,-3.7449,-3.6926,-3.6492,-3.6312,-3.5983,-3.5594,-3.5519,-3.5489,-3.5579,-3.6043,-3.5908,-3.5714,-3.6013,-3.6222,-3.6282,-3.6836,-3.718,-3.7165,-3.7165,-3.7165,-3.7165,-3.6941,-3.6611,-3.6297,-3.6222,-3.5953,-3.5564,-3.5519,-3.5504,-3.5489,-3.5489,-3.5489,-3.5489,-3.5489,-3.5489,-3.5489,-3.5489,-3.5444,-3.5265,-3.51,-3.4996,-3.4891,-3.4891,-3.4861,-3.4861,-3.4906,-3.4936,-3.4921,-3.4906,-3.504,-3.5205,-3.516,-3.531,-3.5444,-3.4876,-3.4474,-3.4098,-3.3619,-3.2976,-3.2422,-3.2243,-3.2034,-3.1585,-3.1555,-3.154,-3.1496,-3.1496,-3.1496,-3.1496,-3.1496,-3.1496,-3.1496,-3.1496,-3.1496,-3.1496,-3.1496,-3.1496,-3.1496,-3.1481,-3.1301,-3.1361,-3.1316,-3.1256,-3.1167,-3.1197,-3.1182,-3.1062,-3.0537,-2.9864,-2.9505,-2.9157,-2.9112,-2.9154,-2.891,-2.888,-2.9132,-2.9531,-2.9509,-2.9482,-2.9879,-3.0401,-3.0491,-3.0767,-3.1496,-4.4035,-4.222,-4.2078,-4.1097,-3.9721,-3.9481,-3.9388,-3.9313,-3.902,-3.8841,-3.8676,-3.8108,-3.7464,-3.6911,-3.6866,-3.6357,-3.5609,-3.5789,-3.5774,-3.5624,-3.6163,-3.6237,-3.6148,-3.6567,-3.6746,-3.6611,-3.7404,-3.7778,-3.7823,-3.7823,-3.7823,-3.7749,-3.7539,-3.721,-3.6911,-3.6851,-3.6552,-3.6043,-3.5908,-3.5818,-3.5534,-3.5489,-3.5489,-3.5489,-3.5489,-3.5489,-3.5489,-3.5489,-3.5489,-3.5489,-3.5489,-3.5489,-3.5489,-3.5489,-3.5489,-3.5489,-3.5489,-3.5474,-3.5489,-3.5489,-3.5489,-3.5489,-3.5489,-3.5489,-3.5459,-3.51,-3.4861,-3.4427,-3.4113,-3.3619,-3.3095,-3.2931,-3.2617,-3.2093,-3.1914,-3.1795,-3.1555,-3.1496,-3.1496,-3.1496,-3.1496,-3.1496,-3.1496,-3.1496,-3.1496,-3.1496,-3.1496,-3.1496,-3.1496,-3.1496,-3.1496,-3.1496,-3.154,-3.1466,-3.1451,-3.1481,-3.163,-3.1555,-3.1197,-3.0597,-3.0298,-2.9924,-2.9669,-2.9666,-2.9636,-2.9666,-2.9826,-2.9958,-3.0048,-3.0108,-3.0325,-3.0609,-3.0872,-3.0791,-3.1485,-4.451,-4.2898,-4.2556,-4.1474,-3.9995,-3.9643,-3.9514,-3.9388,-3.9343,-3.9364,-3.9245,-3.8751,-3.8138,-3.7524,-3.7345,-3.6746,-3.5684,-3.6013,-3.5998,-3.5983,-3.6312,-3.6611,-3.6671,-3.7225,-3.7255,-3.709,-3.7958,-3.8407,-3.8512,-3.8497,-3.8497,-3.8407,-3.7973,-3.7629,-3.7539,-3.7494,-3.7135,-3.6537,-3.6372,-3.6058,-3.5624,-3.5489,-3.5489,-3.5489,-3.5489,-3.5424,-3.5392,-3.5424,-3.5472,-3.5392,-3.5472,-3.5504,-3.5489,-3.5489,-3.5489,-3.5489,-3.5489,-3.5489,-3.5489,-3.5489,-3.5489,-3.5489,-3.5489,-3.5489,-3.5474,-3.54,-3.519,-3.4756,-3.4638,-3.4294,-3.3724,-3.3544,-3.3095,-3.2542,-3.2422,-3.2153,-3.169,-3.1496,-3.1496,-3.1496,-3.1496,-3.1496,-3.1496,-3.1496,-3.1496,-3.1496,-3.1496,-3.1496,-3.1496,-3.1496,-3.1496,-3.1496,-3.1555,-3.163,-3.166,-3.1705,-3.1884,-3.1959,-3.1585,-3.1152,-3.1001,-3.0627,-3.0148,-2.9983,-3.0298,-3.0313,-3.0205,-3.034,-3.0535,-3.07,-3.0891,-3.1349,-3.1722,-3.1342,-3.159,-4.2996,-4.1877,-4.1438,-4.0601,-3.9718,-3.9984,-3.9873,-3.9388,-3.9388,-3.9388,-3.9343,-3.9209,-3.8796,-3.8138,-3.7659,-3.6971,-3.6267,-3.6073,-3.5863,-3.6435,-3.6911,-3.718,-3.7345,-3.7868,-3.8063,-3.8108,-3.8751,-3.9155,-3.9134,-3.9089,-3.9149,-3.9074,-3.8916,-3.8706,-3.8242,-3.8138,-3.7584,-3.6716,-3.6522,-3.6207,-3.5684,-3.5504,-3.5489,-3.5489,-3.5489,-3.5231,-3.5019,-3.5246,-3.5246,-3.5052,-3.5246,-3.5489,-3.5489,-3.5489,-3.5489,-3.5489,-3.5489,-3.5489,-3.5489,-3.5489,-3.5489,-3.5489,-3.5489,-3.5489,-3.5489,-3.5489,-3.5429,-3.528,-3.5265,-3.4906,-3.4399,-3.3784,-3.335,-3.2886,-3.2572,-3.2303,-3.169,-3.1511,-3.1496,-3.1496,-3.1496,-3.1496,-3.1496,-3.1496,-3.1496,-3.1496,-3.1496,-3.1496,-3.1511,-3.1525,-3.1645,-3.172,-3.1869,-3.2019,-3.2168,-3.2287,-3.2512,-3.2542,-3.2153,-3.1959,-3.1809,-3.1629,-3.124,-3.1092,-3.1137,-3.1047,-3.0926,-3.0898,-3.115,-3.1286,-3.1436,-3.1747,-3.194,-3.1704,-3.1794,-4.3349,-4.2498,-4.1592,-4.0731,-3.998,-3.9914,-3.9738,-3.9433,-3.9388,-3.9388,-3.9388,-3.9388,-3.9035,-3.8392,-3.8018,-3.7524,-3.6971,-3.6596,-3.6596,-3.703,-3.7554,-3.7853,-3.8018,-3.8437,-3.8766,-3.8586,-3.908,-3.9358,-3.9388,-3.9388,-3.9358,-3.9388,-3.9388,-3.92,-3.8931,-3.8841,-3.8362,-3.7554,-3.7045,-3.6611,-3.6058,-3.5639,-3.5489,-3.5489,-3.5489,-3.5311,-3.5133,-3.5311,-3.5311,-3.5198,-3.5311,-3.5489,-3.5489,-3.5489,-3.5489,-3.5489,-3.5489,-3.5489,-3.5489,-3.5489,-3.5489,-3.5489,-3.5489,-3.5489,-3.5489,-3.5489,-3.5489,-3.5489,-3.5459,-3.531,-3.4981,-3.4741,-3.4128,-3.3559,-3.3155,-3.2781,-3.2422,-3.1899,-3.1496,-3.1496,-3.1496,-3.1496,-3.1496,-3.163,-3.154,-3.157,-3.1496,-3.1511,-3.169,-3.1735,-3.2004,-3.2138,-3.2303,-3.2467,-3.2691,-3.2916,-3.32,-3.317,-3.2931,-3.2886,-3.2856,-3.2677,-3.2482,-3.2288,-3.2079,-3.1944,-3.1809,-3.1809,-3.1765,-3.1914,-3.2049,-3.2153,-3.2318,-3.2557,-3.2662,-4.4087,-4.3415,-4.2065,-4.1131,-4.0515,-3.9892,-3.9559,-3.9388,-3.9388,-3.9388,-3.9388,-3.9388,-3.911,-3.8616,-3.8242,-3.7838,-3.7389,-3.7345,-3.727,-3.7375,-3.7988,-3.8227,-3.8452,-3.8886,-3.911,-3.8661,-3.914,-3.9373,-3.9388,-3.9388,-3.9388,-3.9388,-3.9388,-3.9328,-3.9358,-3.9343,-3.896,-3.8212,-3.7764,-3.7255,-3.6626,-3.6043,-3.5714,-3.5489,-3.5489,-3.5392,-3.5279,-3.5359,-3.5439,-3.5392,-3.5439,-3.5504,-3.5489,-3.5489,-3.5489,-3.5489,-3.5489,-3.5489,-3.5489,-3.5489,-3.5489,-3.5489,-3.5489,-3.5489,-3.5489,-3.5489,-3.5489,-3.5489,-3.5489,-3.5489,-3.5489,-3.534,-3.5026,-3.4502,-3.3918,-3.3649,-3.3305,-3.2452,-3.2049,-3.1929,-3.2123,-3.2198,-3.2019,-3.1989,-3.1795,-3.163,-3.1585,-3.1615,-3.1824,-3.2049,-3.2333,-3.2781,-3.3051,-3.3559,-3.3814,-3.326,-3.3574,-3.3888,-3.3694,-3.3679,-3.3739,-3.3619,-3.3395,-3.317,-3.2976,-3.2796,-3.2602,-3.2452,-3.2452,-3.2587,-3.2662,-3.2766,-3.3066,-3.3455,-3.344,-4.3152,-4.2674,-4.1515,-4.0984,-4.0857,-4.0401,-3.9873,-3.9433,-3.9388,-3.9388,-3.9388,-3.9388,-3.9313,-3.899,-3.7988,-3.7285,-3.709,-3.7375,-3.7569,-3.7674,-3.8182,-3.8482,-3.8631,-3.911,-3.9305,-3.9284,-3.9358,-3.9388,-3.9388,-3.9388,-3.9433,-3.9403,-3.9388,-3.9388,-3.9448,-3.9358,-3.911,-3.8601,-3.8242,-3.7808,-3.727,-3.6582,-3.5953,-3.5579,-3.5489,-3.5279,-3.5052,-3.5231,-3.5279,-3.4857,-3.5246,-3.5457,-3.5489,-3.5489,-3.5489,-3.5489,-3.5489,-3.5489,-3.5489,-3.5489,-3.5489,-3.5489,-3.5489,-3.5489,-3.5489,-3.5489,-3.5489,-3.5489,-3.5489,-3.5489,-3.5489,-3.5489,-3.519,-3.4681,-3.4384,-3.4113,-3.3664,-3.3305,-3.314,-3.3155,-3.317,-3.3021,-3.2751,-3.2542,-3.2392,-3.2243,-3.2108,-3.2183,-3.2407,-3.2602,-3.2841,-3.335,-3.3873,-3.4487,-3.507,-3.4173,-3.3873,-3.4502,-3.4517,-3.4367,-3.4412,-3.4459,-3.4309,-3.4008,-3.3694,-3.341,-3.3245,-3.3095,-3.3155,-3.3275,-3.332,-3.3365,-3.3739,-3.4053,-3.3844,-4.2372,-4.2006,-4.1066,-4.0629,-4.0466,-4.0287,-3.9905,-3.9454,-3.9388,-3.9388,-3.9388,-3.9388,-3.9388,-3.9119,-3.8422,-3.7749,-3.7689,-3.8138,-3.8422,-3.8571,-3.8781,-3.8931,-3.8886,-3.9269,-3.9343,-3.9388,-3.9388,-3.9388,-3.9388,-3.9388,-3.9597,-3.9813,-3.9597,-3.9538,-3.9738,-3.9574,-3.9275,-3.8886,-3.8586,-3.8257,-3.7838,-3.7045,-3.6207,-3.5699,-3.5519,-3.5344,-3.5231,-3.5279,-3.5359,-3.5198,-3.5344,-3.5457,-3.5489,-3.5489,-3.5489,-3.5489,-3.5457,-3.5504,-3.5489,-3.5489,-3.5489,-3.5489,-3.5489,-3.5489,-3.5489,-3.5489,-3.5489,-3.5489,-3.5489,-3.5489,-3.5489,-3.5489,-3.5325,-3.5055,-3.4773,-3.4563,-3.4459,-3.4219,-3.4203,-3.4247,-3.3799,-3.3499,-3.335,-3.3185,-3.3066,-3.2901,-3.2691,-3.2781,-3.2976,-3.3215,-3.3455,-3.3933,-3.4488,-3.4756,-3.531,-3.4861,-3.4292,-3.4846,-3.513,-3.4996,-3.4966,-3.4936,-3.4921,-3.4801,-3.4457,-3.4053,-3.3844,-3.3694,-3.3814,-3.3933,-3.3978,-3.4098,-3.4427,-3.4562,-3.4397,-4.212,-4.1635,-4.0816,-4.0443,-4.0269,-3.9985,-3.9676,-3.9424,-3.9388,-3.9388,-3.9388,-3.9388,-3.9388,-3.9239,-3.8901,-3.8527,-3.8497,-3.9035,-3.9254,-3.9269,-3.9298,-3.9394,-3.9373,-3.9388,-3.9388,-3.9388,-3.9388,-3.9484,-3.9679,-3.9672,-4.0023,-4.0262,-3.9948,-3.9828,-4.0157,-3.9672,-3.9478,-3.9209,-3.8931,-3.8586,-3.8153,-3.7419,-3.6462,-3.5741,-3.5586,-3.5472,-3.5228,-3.5034,-3.5148,-3.5133,-3.5264,-3.5344,-3.5457,-3.5489,-3.5489,-3.5457,-3.5392,-3.5392,-3.5472,-3.5279,-3.5279,-3.5472,-3.5489,-3.5489,-3.5489,-3.5489,-3.5489,-3.5489,-3.5489,-3.5489,-3.5489,-3.5489,-3.5489,-3.5385,-3.504,-3.4848,-3.5055,-3.504,-3.4936,-3.4741,-3.4262,-3.4128,-3.4113,-3.3814,-3.3709,-3.3514,-3.332,-3.3395,-3.3589,-3.3933,-3.4218,-3.4622,-3.4951,-3.4996,-3.525,-3.537,-3.5026,-3.519,-3.5355,-3.528,-3.534,-3.5385,-3.5325,-3.5205,-3.5055,-3.4666,-3.4457,-3.4352,-3.4517,-3.4622,-3.4651,-3.4756,-3.4966,-3.51,-3.504,-4.294,-4.1953,-4.0905,-4.0828,-4.1122,-4.003,-3.9445,-3.9424,-3.9388,-3.9388,-3.9388,-3.9388,-3.9373,-3.9284,-3.932,-3.8931,-3.8751,-3.9065,-3.9388,-3.9388,-3.9388,-3.9388,-3.9388,-3.9388,-3.9388,-3.9388,-3.9388,-3.9747,-4.0053,-4.0187,-4.0621,-4.098,-4.0666,-4.0397,-4.0576,-3.9948,-3.9403,-3.9388,-3.9334,-3.8975,-3.8452,-3.8103,-3.7351,-3.6488,-3.5803,-3.5311,-3.4852,-3.4563,-3.4409,-3.4743,-3.4776,-3.5019,-3.5392,-3.5489,-3.5489,-3.5344,-3.5118,-3.4924,-3.5231,-3.5052,-3.4971,-3.5326,-3.5472,-3.5489,-3.5489,-3.5489,-3.5489,-3.5489,-3.5489,-3.5489,-3.5489,-3.5489,-3.5489,-3.5474,-3.5355,-3.528,-3.5429,-3.5385,-3.534,-3.5325,-3.4861,-3.4996,-3.51,-3.4696,-3.4369,-3.4143,-3.4008,-3.4083,-3.4218,-3.4532,-3.4741,-3.507,-3.5205,-3.5265,-3.528,-3.5385,-3.5429,-3.5489,-3.5489,-3.5489,-3.5489,-3.5489,-3.5489,-3.537,-3.528,-3.5235,-3.5055,-3.504,-3.522,-3.5205,-3.51,-3.5205,-3.54,-3.5489,-3.5489,-4.2369,-4.1148,-4.0697,-4.0554,-4.0608,-3.9995,-3.9604,-3.9424,-3.9388,-3.9388,-3.9388,-3.9388,-3.923,-3.9035,-3.92,-3.9035,-3.8661,-3.914,-3.9373,-3.9433,-3.9433,-3.9403,-3.9388,-3.9388,-3.9388,-3.9388,-3.9463,-3.9783,-4.0202,-4.0516,-4.0861,-4.1722,-4.1324,-4.1205,-4.119,-4.0442,-4.0098,-3.9888,-3.9604,-3.905,-3.8486,-3.8035,-3.7488,-3.6502,-3.5636,-3.5045,-3.4652,-3.4438,-3.4341,-3.4662,-3.4857,-3.5198,-3.5424,-3.5457,-3.5392,-3.4938,-3.4457,-3.4442,-3.4824,-3.4677,-3.4791,-3.5004,-3.5279,-3.5489,-3.5489,-3.5489,-3.5489,-3.5489,-3.5489,-3.5489,-3.5489,-3.5489,-3.5489,-3.5489,-3.5489,-3.5489,-3.5489,-3.5489,-3.5459,-3.5489,-3.5489,-3.5489,-3.5489,-3.522,-3.4906,-3.4831,-3.4741,-3.4816,-3.4906,-3.5085,-3.525,-3.537,-3.5429,-3.5444,-3.5429,-3.5474,-3.5459,-3.5489,-3.5489,-3.5489,-3.5489,-3.5489,-3.5489,-3.5489,-3.5415,-3.5429,-3.5489,-3.5459,-3.5385,-3.5429,-3.5489,-3.5489,-3.5489,-3.5489,-3.5489,-4.1776,-4.0799,-4.0662,-4.0436,-4.0137,-4.0031,-3.9762,-3.9424,-3.9388,-3.9388,-3.9388,-3.9373,-3.9125,-3.8841,-3.9185,-3.926,-3.9005,-3.9439,-3.9738,-3.9828,-3.9738,-3.9709,-3.9627,-3.9568,-3.9388,-3.9403,-3.9694,-3.9963,-4.0307,-4.0696,-4.1332,-4.2291,-4.1377,-4.1602,-4.1811,-4.107,-4.0322,-4.0277,-3.9709,-3.9185,-3.871,-3.832,-3.7517,-3.6587,-3.5695,-3.496,-3.4569,-3.4646,-3.4651,-3.4733,-3.5181,-3.5481,-3.5499,-3.5457,-3.5359,-3.4905,-3.4341,-3.4022,-3.4225,-3.4225,-3.4361,-3.4677,-3.5118,-3.5489,-3.5489,-3.5489,-3.5489,-3.5489,-3.5489,-3.5489,-3.5489,-3.5489,-3.5489,-3.5489,-3.5489,-3.5489,-3.5489,-3.5489,-3.5489,-3.5489,-3.5489,-3.5489,-3.5489,-3.5489,-3.5444,-3.5459,-3.5489,-3.5489,-3.5489,-3.5474,-3.5474,-3.5489,-3.5489,-3.5489,-3.5489,-3.5489,-3.5489,-3.5489,-3.5489,-3.5489,-3.5489,-3.5489,-3.5489,-3.5489,-3.5489,-3.5489,-3.5489,-3.5489,-3.5489,-3.5489,-3.5489,-3.5489,-3.5489,-3.5489,-3.5489,-4.1603,-4.1489,-4.1205,-4.0848,-4.0436,-4.0137,-3.9783,-3.9409,-3.9424,-3.9394,-3.9284,-3.9373,-3.9328,-3.9334,-3.9409,-3.9732,-4.0202,-4.0307,-4.0606,-4.0756,-4.0666,-4.0277,-4.0053,-3.9702,-3.9403,-3.9514,-3.9768,-4.0113,-4.0442,-4.0651,-4.1482,-4.2171,-4.1392,-4.1549,-4.1677,-4.1257,-4.0516,-4.0307,-3.9753,-3.9403,-3.9224,-3.8909,-3.8299,-3.7028,-3.642,-3.5725,-3.4181,-3.4668,-3.4977,-3.4977,-3.5444,-3.5692,-3.5693,-3.5564,-3.5407,-3.4986,-3.4274,-3.3934,-3.3831,-3.3624,-3.3748,-3.4442,-3.5118,-3.5489,-3.5489,-3.5489,-3.5489,-3.5489,-3.5489,-3.5489,-3.5489,-3.5489,-3.5489,-3.5489,-3.5489,-3.5489,-3.5489,-3.5489,-3.5489,-3.5489,-3.5489,-3.5489,-3.5489,-3.5489,-3.5489,-3.5489,-3.5489,-3.5489,-3.5489,-3.5489,-3.5489,-3.5489,-3.5489,-3.5489,-3.5489,-3.5489,-3.5489,-3.5489,-3.5489,-3.5489,-3.5489,-3.5489,-3.5489,-3.5489,-3.5489,-3.5489,-3.5489,-3.5489,-3.5489,-3.5489,-3.5489,-3.5489,-3.5489,-3.5489,-3.5489,-4.1588,-4.1588,-4.1456,-4.107,-4.0489,-4.0137,-3.9783,-3.9496,-3.9676,-3.9349,-3.8856,-3.9185,-3.9185,-3.911,-3.9753,-4.0142,-4.0457,-4.0876,-4.1175,-4.107,-4.0771,-4.0457,-4.0172,-3.9888,-3.9403,-3.9514,-3.9753,-3.9798,-3.9813,-4.0262,-4.0561,-4.0876,-4.1205,-4.1901,-4.1946,-4.1527,-4.092,-4.0307,-3.9828,-3.9403,-3.9301,-3.8995,-3.8502,-3.7908,-3.6859,-3.6467,-3.5764,-3.5798,-3.5861,-3.5892,-3.6045,-3.6026,-3.5869,-3.5666,-3.5341,-3.4971,-3.4206,-3.3762,-3.343,-3.322,-3.352,-3.4442,-3.5118,-3.5489,-3.5489,-3.5489,-3.5489,-3.5489,-3.5489,-3.5489,-3.5489,-3.5489,-3.5489,-3.5489,-3.5489,-3.5489,-3.5489,-3.5489,-3.5489,-3.5489,-3.5489,-3.5489,-3.5489,-3.5489,-3.5489,-3.5489,-3.5489,-3.5489,-3.5489,-3.5489,-3.5489,-3.5489,-3.5489,-3.5489,-3.5489,-3.5489,-3.5519,-3.5504,-3.5519,-3.5549,-3.5564,-3.5489,-3.5489,-3.5489,-3.5489,-3.5489,-3.5489,-3.5489,-3.5489,-3.5489,-3.5489,-3.5489,-3.5489,-3.5489,-3.5489,-4.1588,-4.1555,-4.1357,-4.1055,-4.0662,-4.0312,-3.9925,-3.964,-3.9711,-3.9435,-3.8736,-3.92,-3.932,-3.9334,-3.9873,-4.0741,-4.1108,-4.1527,-4.1773,-4.1639,-4.1265,-4.0891,-4.0636,-4.0262,-3.9777,-3.9753,-3.9918,-4.0038,-3.9463,-3.9619,-3.9933,-4.0457,-4.116,-4.1713,-4.2276,-4.1946,-4.1339,-4.0696,-4.0098,-3.9574,-3.9427,-3.9046,-3.8458,-3.8245,-3.7514,-3.6989,-3.6815,-3.6779,-3.6808,-3.6678,-3.6561,-3.6399,-3.6063,-3.5609,-3.5177,-3.4658,-3.4124,-3.3624,-3.3346,-3.3311,-3.3589,-3.4225,-3.51,-3.5392,-3.5489,-3.5489,-3.5489,-3.5489,-3.5489,-3.5489,-3.5489,-3.5489,-3.5489,-3.5489,-3.5489,-3.5489,-3.5489,-3.5489,-3.5489,-3.5489,-3.5489,-3.5489,-3.5504,-3.5504,-3.5519,-3.5519,-3.5489,-3.5489,-3.5489,-3.5489,-3.5489,-3.5489,-3.5489,-3.5489,-3.5489,-3.5759,-3.5953,-3.5624,-3.5639,-3.5669,-3.5654,-3.5594,-3.5519,-3.5489,-3.5489,-3.5489,-3.5489,-3.5489,-3.5489,-3.5489,-3.5489,-3.5489,-3.5489,-3.5489,-3.5489,-4.1588,-4.1522,-4.0851,-4.0765,-4.0919,-4.0627,-4.0261,-3.9854,-3.9604,-3.937,-3.92,-3.9328,-3.9694,-4.0053,-4.0337,-4.1085,-4.1916,-4.2216,-4.2485,-4.2506,-4.1698,-4.1752,-4.1542,-4.0995,-4.0307,-4.0516,-4.0561,-4.0247,-3.9403,-3.9798,-3.9858,-3.9828,-4.0427,-4.128,-4.2276,-4.2351,-4.1991,-4.1339,-4.0636,-3.9933,-3.9508,-3.9265,-3.8765,-3.8288,-3.8218,-3.7871,-3.7543,-3.7862,-3.7795,-3.7284,-3.7312,-3.6786,-3.5581,-3.5624,-3.5302,-3.4758,-3.4124,-3.3782,-3.3693,-3.3728,-3.3762,-3.3988,-3.482,-3.5326,-3.5457,-3.5489,-3.5489,-3.5489,-3.5489,-3.5489,-3.5489,-3.5489,-3.5489,-3.5489,-3.5489,-3.5489,-3.5489,-3.5489,-3.5489,-3.5489,-3.5489,-3.5504,-3.5519,-3.5534,-3.5549,-3.5534,-3.5504,-3.5504,-3.5504,-3.5504,-3.5504,-3.5594,-3.5624,-3.5789,-3.5908,-3.6267,-3.6342,-3.5983,-3.5848,-3.5968,-3.5863,-3.5714,-3.5639,-3.5549,-3.5489,-3.5489,-3.5489,-3.5489,-3.5489,-3.5489,-3.5489,-3.5489,-3.5489,-3.5489,-3.5489,-4.1456,-4.1256,-4.1003,-4.0833,-4.0662,-4.0331,-3.9945,-3.964,-3.9415,-3.917,-3.8916,-3.9185,-3.9463,-3.9903,-4.0666,-4.1429,-4.2231,-4.2396,-4.265,-4.2536,-4.1728,-4.1617,-4.1527,-4.1347,-4.0816,-4.0546,-4.0606,-4.0427,-3.9388,-3.9753,-3.9679,-3.9582,-4.0113,-4.11,-4.1916,-4.2066,-4.1557,-4.119,-4.0397,-3.9619,-3.9433,-3.9388,-3.9182,-3.8718,-3.8913,-3.8754,-3.8326,-3.8832,-3.8603,-3.8098,-3.8192,-3.7371,-3.6319,-3.632,-3.5809,-3.5101,-3.4404,-3.3416,-3.3115,-3.2988,-3.3451,-3.3899,-3.4423,-3.5067,-3.5392,-3.5489,-3.5489,-3.5489,-3.5489,-3.5489,-3.5489,-3.5489,-3.5489,-3.5489,-3.5489,-3.5489,-3.5489,-3.5489,-3.5489,-3.5489,-3.5489,-3.5549,-3.5579,-3.5848,-3.5923,-3.5863,-3.5863,-3.5609,-3.5534,-3.5519,-3.5534,-3.5714,-3.5833,-3.6058,-3.6327,-3.6776,-3.6791,-3.6417,-3.6387,-3.6507,-3.6312,-3.6058,-3.5833,-3.5774,-3.5624,-3.5504,-3.5579,-3.5624,-3.5534,-3.5489,-3.5489,-3.5489,-3.5489,-3.5489,-3.5489,-4.139,-4.1073,-4.0689,-4.048,-4.0316,-4.0101,-3.9783,-3.946,-3.9373,-3.914,-3.8931,-3.926,-3.9589,-3.9933,-4.0412,-4.1542,-4.2231,-4.1856,-4.2231,-4.2141,-4.1414,-4.1497,-4.1617,-4.1527,-4.1377,-4.0965,-4.0741,-4.0442,-3.9828,-3.9529,-3.9403,-3.9553,-4.0068,-4.0756,-4.1467,-4.1587,-4.1841,-4.1557,-4.0861,-4.0142,-3.9858,-3.9604,-3.9388,-3.9307,-3.9343,-3.9322,-3.9373,-3.9358,-3.929,-3.9035,-3.8616,-3.7973,-3.7312,-3.672,-3.6164,-3.5444,-3.4457,-3.3437,-3.2917,-3.3151,-3.3593,-3.3811,-3.4172,-3.4706,-3.5213,-3.5231,-3.5344,-3.5392,-3.5457,-3.5489,-3.5489,-3.5489,-3.5489,-3.5489,-3.5489,-3.5489,-3.5504,-3.5504,-3.5534,-3.5519,-3.5564,-3.5609,-3.5804,-3.6103,-3.6372,-3.6297,-3.6222,-3.5953,-3.5729,-3.5774,-3.5848,-3.6028,-3.6327,-3.6656,-3.7,-3.7404,-3.7285,-3.6866,-3.7,-3.7255,-3.6911,-3.6671,-3.6327,-3.6088,-3.6237,-3.6237,-3.5908,-3.5789,-3.5654,-3.5549,-3.5489,-3.5489,-3.5489,-3.5489,-3.5489,-4.1327,-4.0899,-3.9892,-3.9627,-3.9864,-3.9748,-3.9611,-3.9373,-3.9388,-3.9358,-3.9373,-3.9343,-3.9559,-3.9993,-3.9723,-4.0442,-4.1587,-4.0846,-4.1302,-4.1617,-4.098,-4.1422,-4.1722,-4.1767,-4.1811,-4.1916,-4.1632,-4.0831,-4.0337,-3.9709,-3.9388,-3.9493,-3.9948,-4.0412,-4.0876,-4.1354,-4.1811,-4.1512,-4.1145,-4.0457,-4.0008,-3.9768,-3.9574,-3.9484,-3.9388,-3.9388,-3.9388,-3.9373,-3.911,-3.8796,-3.8422,-3.7708,-3.707,-3.655,-3.6113,-3.5463,-3.447,-3.3724,-3.3261,-3.3631,-3.374,-3.3817,-3.3836,-3.4462,-3.5019,-3.5198,-3.5246,-3.5392,-3.5489,-3.5489,-3.5489,-3.5489,-3.5489,-3.5489,-3.5489,-3.5504,-3.5519,-3.5534,-3.5564,-3.5609,-3.5654,-3.5818,-3.6237,-3.6567,-3.6985,-3.6941,-3.6866,-3.6671,-3.6477,-3.6417,-3.6507,-3.6611,-3.6926,-3.7345,-3.7704,-3.8033,-3.7928,-3.7569,-3.7958,-3.8153,-3.7749,-3.727,-3.703,-3.6911,-3.712,-3.703,-3.6596,-3.6148,-3.5774,-3.5699,-3.5804,-3.5489,-3.5489,-3.5489,-3.5489,-3.9686,-3.954,-3.9027,-3.8675,-3.8489,-3.8245,-3.8582,-3.9313,-3.9388,-3.9388,-3.9388,-3.9388,-3.9215,-3.8975,-3.9275,-3.9738,-3.9933,-4.0038,-4.0322,-4.0427,-4.0442,-4.098,-4.1429,-4.1826,-4.2141,-4.2081,-4.1692,-4.0995,-4.0382,-3.9738,-3.9388,-3.9463,-3.9694,-3.9978,-4.0367,-4.0786,-4.0935,-4.101,-4.0816,-4.0457,-4.0127,-3.9903,-3.9694,-3.9529,-3.9388,-3.9388,-3.9388,-3.9388,-3.9215,-3.914,-3.8616,-3.7938,-3.7297,-3.6735,-3.6212,-3.5634,-3.484,-3.418,-3.3832,-3.3818,-3.398,-3.4094,-3.4037,-3.4493,-3.506,-3.5338,-3.5273,-3.5389,-3.5609,-3.5654,-3.5624,-3.5594,-3.5639,-3.5684,-3.5699,-3.5744,-3.5818,-3.6043,-3.6058,-3.5953,-3.5998,-3.6342,-3.6761,-3.7345,-3.7719,-3.7659,-3.7569,-3.7419,-3.724,-3.7195,-3.7135,-3.724,-3.7629,-3.8063,-3.8317,-3.8631,-3.8482,-3.8392,-3.8691,-3.8691,-3.8093,-3.7704,-3.7644,-3.7584,-3.7539,-3.7419,-3.721,-3.6746,-3.6252,-3.6297,-3.6342,-3.5863,-3.5504,-3.5639,-3.5729,-3.8996,-3.89,-3.8347,-3.7831,-3.7394,-3.7402,-3.7928,-3.8571,-3.8631,-3.8736,-3.8975,-3.8671,-3.8392,-3.8078,-3.8182,-3.8482,-3.9005,-3.8467,-3.8646,-3.9454,-3.9649,-4.0008,-4.0606,-4.128,-4.1647,-4.1647,-4.1407,-4.0741,-4.0277,-3.9798,-3.9388,-3.9388,-3.9388,-3.9649,-3.9903,-4.0023,-4.0023,-4.0157,-4.0187,-4.0083,-4.0038,-3.9933,-3.9664,-3.9544,-3.9403,-3.9388,-3.9388,-3.9388,-3.9388,-3.9298,-3.8751,-3.8257,-3.7629,-3.7045,-3.6473,-3.5902,-3.5375,-3.5189,-3.5124,-3.5388,-3.521,-3.5053,-3.5066,-3.554,-3.5414,-3.5455,-3.5414,-3.5446,-3.5693,-3.5863,-3.5774,-3.5729,-3.5833,-3.5923,-3.5983,-3.6058,-3.6327,-3.6641,-3.6596,-3.6447,-3.6626,-3.6971,-3.7449,-3.8063,-3.8497,-3.8527,-3.8556,-3.8512,-3.8242,-3.7988,-3.7883,-3.7838,-3.8332,-3.8826,-3.9005,-3.905,-3.8945,-3.8871,-3.905,-3.8916,-3.8362,-3.8332,-3.8467,-3.8167,-3.7778,-3.7719,-3.7734,-3.727,-3.6881,-3.6956,-3.6985,-3.6671,-3.6342,-3.6148,-3.6237,-3.8824,-3.8778,-3.7838,-3.7062,-3.6558,-3.6956,-3.7255,-3.7315,-3.7315,-3.7674,-3.8108,-3.7719,-3.7494,-3.733,-3.7135,-3.7419,-3.7674,-3.7345,-3.7554,-3.8317,-3.8467,-3.8856,-3.9484,-4.0023,-4.0756,-4.092,-4.0801,-4.0442,-4.0172,-3.9753,-3.9388,-3.9388,-3.9388,-3.9478,-3.9523,-3.9538,-3.9619,-3.9642,-3.9948,-4.0068,-4.0053,-3.9798,-3.9433,-3.9403,-3.9388,-3.9388,-3.9388,-3.9388,-3.9388,-3.92,-3.8841,-3.8392,-3.7808,-3.73,-3.6757,-3.6585,-3.6202,-3.6177,-3.6383,-3.6702,-3.6654,-3.6749,-3.7054,-3.6781,-3.6318,-3.58,-3.5688,-3.5696,-3.5915,-3.6108,-3.6108,-3.635,-3.6507,-3.6552,-3.6582,-3.6671,-3.6881,-3.712,-3.7165,-3.7105,-3.7345,-3.7659,-3.7913,-3.8482,-3.8841,-3.914,-3.923,-3.9194,-3.908,-3.8706,-3.8571,-3.8437,-3.8781,-3.917,-3.9194,-3.9254,-3.9298,-3.9328,-3.9373,-3.9313,-3.8895,-3.9044,-3.9328,-3.888,-3.8422,-3.8317,-3.8212,-3.7808,-3.7614,-3.7734,-3.7704,-3.7539,-3.727,-3.703,-3.6806,-3.7636,-3.7773,-3.7064,-3.6359,-3.5824,-3.5893,-3.6267,-3.6641,-3.6163,-3.6626,-3.7449,-3.7434,-3.7105,-3.6671,-3.6522,-3.6731,-3.6716,-3.6701,-3.7015,-3.7419,-3.7614,-3.7943,-3.8646,-3.929,-3.9963,-4.0397,-4.0397,-4.0113,-3.9783,-3.9493,-3.9388,-3.9388,-3.9388,-3.9388,-3.9388,-3.9388,-3.9403,-3.9418,-3.9568,-3.9783,-3.9709,-4.0023,-4.0023,-3.9612,-3.9388,-3.9388,-3.9388,-3.9388,-3.9388,-3.9269,-3.8736,-3.8182,-3.7614,-3.733,-3.7479,-3.7699,-3.7248,-3.7183,-3.7358,-3.755,-3.7426,-3.7027,-3.696,-3.7077,-3.6895,-3.6387,-3.6099,-3.609,-3.6187,-3.6394,-3.6547,-3.6905,-3.7195,-3.7195,-3.721,-3.733,-3.7464,-3.7614,-3.7734,-3.7913,-3.8123,-3.8302,-3.8512,-3.8781,-3.914,-3.932,-3.9328,-3.9343,-3.9328,-3.914,-3.9095,-3.902,-3.911,-3.9328,-3.9388,-3.9388,-3.9388,-3.9388,-3.9373,-3.9388,-3.9388,-3.9388,-3.9388,-3.9343,-3.914,-3.8945,-3.8721,-3.8497,-3.8377,-3.8452,-3.8317,-3.8093,-3.8302,-3.8197,-3.7778,-3.6739,-3.6999,-3.6492,-3.6068,-3.5748,-3.5569,-3.5729,-3.5953,-3.5654,-3.5893,-3.6492,-3.6537,-3.6372,-3.6073,-3.6058,-3.6088,-3.6088,-3.6043,-3.6178,-3.6477,-3.6941,-3.7165,-3.7778,-3.8527,-3.8975,-3.9469,-3.9843,-3.9723,-3.9373,-3.9388,-3.9388,-3.9388,-3.9388,-3.9388,-3.9388,-3.9388,-3.9388,-3.9388,-3.9388,-3.9388,-3.9388,-3.9723,-3.9858,-3.9433,-3.9388,-3.9388,-3.9388,-3.9388,-3.9388,-3.9245,-3.8751,-3.8093,-3.7629,-3.7389,-3.7734,-3.8048,-3.8058,-3.7983,-3.8184,-3.8222,-3.8059,-3.7784,-3.7502,-3.7843,-3.7701,-3.7204,-3.6599,-3.6608,-3.6843,-3.7055,-3.691,-3.7134,-3.763,-3.7853,-3.7928,-3.8033,-3.8317,-3.8586,-3.8661,-3.8736,-3.8856,-3.8886,-3.9035,-3.9065,-3.9364,-3.9328,-3.9388,-3.9388,-3.9388,-3.9388,-3.9388,-3.9388,-3.9388,-3.9388,-3.9388,-3.9388,-3.9388,-3.9388,-3.9388,-3.9388,-3.9388,-3.9388,-3.9373,-3.9358,-3.9358,-3.9313,-3.914,-3.8916,-3.896,-3.9035,-3.8841,-3.8616,-3.8865,-3.8988,-3.8635,-3.6241,-3.6398,-3.6132,-3.5973,-3.5878,-3.5619,-3.5519,-3.5519,-3.5504,-3.5504,-3.5594,-3.5609,-3.5489,-3.5504,-3.5504,-3.5504,-3.5549,-3.5669,-3.5639,-3.5759,-3.6148,-3.6552,-3.7075,-3.7689,-3.8257,-3.8691,-3.9065,-3.9215,-3.9155,-3.917,-3.92,-3.9328,-3.9388,-3.9388,-3.9388,-3.9388,-3.9388,-3.9388,-3.9388,-3.9388,-3.9388,-3.9388,-3.9418,-3.9403,-3.9388,-3.9388,-3.9388,-3.9388,-3.9388,-3.926,-3.8945,-3.8497,-3.8138,-3.7988,-3.8167,-3.8497,-3.8631,-3.879,-3.9083,-3.9122,-3.9173,-3.9111,-3.8789,-3.8473,-3.8316,-3.7798,-3.7171,-3.7303,-3.7528,-3.7593,-3.7451,-3.7627,-3.8191,-3.8527,-3.8616,-3.8796,-3.9155,-3.9424,-3.9424,-3.9418,-3.9433,-3.9433,-3.9439,-3.9454,-3.9469,-3.9433,-3.9403,-3.9388,-3.9388,-3.9388,-3.9388,-3.9388,-3.9388,-3.9388,-3.9388,-3.9388,-3.9388,-3.9388,-3.9388,-3.9388,-3.9388,-3.9388,-3.9388,-3.9388,-3.9388,-3.9418,-3.9403,-3.9224,-3.9379,-3.9405,-3.8977,-3.8595,-3.8538,-3.8715,-3.903,-3.6304,-3.61,-3.6022,-3.5846,-3.5619,-3.5537,-3.5489,-3.5489,-3.5489,-3.5489,-3.5489,-3.5489,-3.5489,-3.5489,-3.5489,-3.5489,-3.5489,-3.5489,-3.5489,-3.5594,-3.5729,-3.6058,-3.6582,-3.73,-3.7853,-3.8377,-3.8721,-3.8616,-3.8975,-3.8856,-3.8916,-3.9394,-3.9388,-3.9388,-3.9388,-3.9403,-3.9418,-3.9448,-3.9433,-3.9403,-3.9433,-3.9418,-3.9388,-3.9388,-3.9388,-3.9388,-3.9388,-3.9388,-3.9388,-3.9328,-3.926,-3.905,-3.8901,-3.8745,-3.8916,-3.8931,-3.9065,-3.917,-3.9358,-3.9388,-3.9388,-3.9352,-3.8973,-3.8833,-3.8436,-3.7754,-3.7592,-3.8091,-3.8282,-3.8238,-3.8223,-3.8608,-3.9095,-3.9185,-3.9275,-3.9619,-3.9993,-3.9888,-3.9768,-3.9813,-3.9858,-3.9783,-3.9679,-3.9694,-3.9694,-3.9664,-3.9568,-3.9553,-3.9589,-3.9478,-3.9403,-3.9433,-3.9448,-3.9388,-3.9388,-3.9388,-3.9388,-3.9388,-3.9418,-3.9478,-3.9478,-3.9403,-3.9403,-3.9568,-3.9523,-3.9544,-3.9514,-3.9843,-3.9401,-3.9313,-3.8841,-3.8494,-3.8396,-3.8366,-3.8634]},{"header":{"parameterUnit":"m.s-1","parameterCategory":1,"la1":31.0,"la2":29.5877,"lo1":-88.7671,"lo2":-86.6584,"dy":0.0162,"dx":0.0185,"nx":115,"ny":88,"refTime":"2024-04-07T12:00:00:Z","depth":0,"parameterNumber":3,"parameterNumberName":"V-component_of_WINDS"},"data":[0.0,0.0,0.0,0.0,0.0,0.0,0.0,0.0,0.0,0.0,0.0,0.0,0.0,0.0,0.0,0.0,0.0,0.0,0.0,0.0,0.0,0.0,0.0,0.0,0.0,0.0,0.0,0.0,0.0,0.0,0.0,0.0,0.0,0.0,0.0,0.0,0.0,0.0,0.0,0.0,0.0,0.0,0.0,0.0,0.0,0.0,0.0,0.0,0.0,0.0,0.0,0.0,0.0,0.0,0.0,0.0,0.0,0.0,0.0,0.0,0.0,0.0,0.0,0.0,0.0,0.0,0.0,0.0,0.0,0.0,0.0,0.0,0.0,0.0,0.0,0.0,0.0,0.0,0.0,0.0,0.0,0.0,0.0,0.0,0.0,0.0,0.0,0.0,0.0,0.0,0.0,0.0,0.0,0.0,0.0,0.0,0.0,0.0,0.0,0.0,0.0,0.0,0.0,0.0,0.0,0.0,0.0,0.0,0.0,0.0,0.0,0.0,0.0,0.0,0.0,0.0,0.0,0.0,0.0,0.0,0.0,0.0,0.0,0.0,0.0,0.0,0.0,0.0,0.0,0.0,0.0,0.0,0.0,0.0,0.0,0.0,0.0,0.0,0.0,0.0,0.0,0.0,0.0,0.0,0.0,0.0,0.0,0.0,0.0,0.0,0.0,0.0,0.0,0.0,0.0,0.0,0.0,0.0,0.0,0.0,0.0,0.0,0.0,0.0,0.0,0.0,0.0,0.0,0.0,0.0,0.0,0.0,0.0,0.0,0.0,0.0,0.0,0.0,0.0,0.0,0.0,0.0,0.0,0.0,0.0,0.0,0.0,0.0,0.0,0.0,0.0,0.0,0.0,0.0,0.0,0.0,0.0,0.0,0.0,0.0,0.0,0.0,0.0,0.0,0.0,0.0,0.0,0.0,0.0,0.0,0.0,0.0,0.0,0.0,0.0,0.0,0.0,0.0,0.0,0.0,0.0,0.0,0.0,0.0,0.0,0.0,0.0,0.0,0.0,0.0,0.0,0.0,0.0,0.0,0.0,0.0,0.0,0.0,0.0,0.0,0.0,0.0,0.0,0.0,0.0,0.0,0.0,0.0,0.0,0.0,0.0,0.0,0.0,0.0,0.0,0.0,0.0,0.0,0.0,0.0,0.0,0.0,0.0,0.0,0.0,0.0,0.0,0.0,0.0,0.0,0.0,0.0,0.0,0.0,0.0,0.0,0.0,0.0,0.0,0.0,0.0,0.0,0.0,0.0,0.0,0.0,0.0,0.0,0.0,0.0,0.0,0.0,0.0,0.0,0.0,0.0,0.0,0.0,0.0,0.0,0.0,0.0,0.0,0.0,0.0,0.0,0.0,0.0,0.0,0.0,0.0,0.0,0.0,0.0,0.0,0.0,0.0,0.0,0.0,0.0,0.0,0.0,0.0,0.0,0.0,0.0,0.0,0.0,0.0,0.0,0.0,0.0,0.0,0.0,0.0,0.0,0.0,0.0,0.0,0.0,0.0,0.0,0.0,0.0,0.0,0.0,0.0,0.0,0.0,0.0,0.0,0.0,0.0,0.0,0.0,0.0,0.0,0.0,0.0,0.0,0.0,0.0,0.0,0.0,0.0,0.0,0.0,0.0,0.0,0.0,0.0,0.0,0.0,0.0,0.0,0.0,0.0,0.0,0.0,0.0,0.0,0.0,0.0,0.0,0.0,0.0,0.0,0.0,0.0,0.0,0.0,0.0,0.0,0.0,0.0,0.0,0.0,0.0,0.0,0.0,0.0,0.0,0.0,0.0,0.0,0.0,0.0,0.0,0.0,0.0,0.0,0.0,0.0,0.0,0.0,0.0,0.0,0.0,0.0,0.0,0.0,0.0,0.0,0.0,0.0,0.0,0.0,0.0,0.0,0.0,0.0,0.0,0.0,0.0,0.0,0.0,0.0,0.0,0.0,0.0,0.0,0.0,0.0,0.0,0.0,0.0,0.0,0.0,0.0,0.0,0.0,0.0,0.0,0.0,0.0,0.0,0.0,0.0,0.0,0.0,0.0,0.0,0.0,0.0,0.0,0.0,0.0,0.0,0.0,0.0,0.0,0.0,0.0,0.0,0.0,0.0,0.0,0.0,0.0,0.0,0.0,0.0,0.0,0.0,0.0,0.0,0.0,0.0,0.0,0.0,0.0,0.0,0.0,0.0,0.0,0.0,0.0,0.0,0.0,0.0,0.0,0.0,0.0,0.0,0.0,0.0,0.0,0.0,0.0,0.0,0.0,0.0,0.0,0.0,0.0,0.0,0.0,0.0,0.0,0.0,0.0,0.0,0.0,0.0,0.0,0.0,0.0,0.0,0.0,0.0,0.0,0.0,0.0,0.0,0.0,0.0,0.0,0.0,0.0,0.0,0.0,0.0,0.0,0.0,0.0,0.0,0.0,0.0,0.0,0.0,0.0,0.0,0.0,0.0,0.0,0.0,0.0,0.0,0.0,0.0,0.0,0.0,0.0,0.0,0.0,0.0,0.0,0.0,0.0,0.0,0.0,0.0,0.0,0.0,0.0,0.0,0.0,0.0,0.0,0.0,0.0,0.0,0.0,0.0,0.0,0.0,0.0,0.0,0.0,0.0,0.0,0.0,0.0,0.0,0.0,0.0,0.0,0.0,0.0,0.0,0.0,0.0,0.0,0.0,0.0,0.0,0.0,0.0,0.0,0.0,0.0,0.0,0.0,0.0,0.0,0.0,0.0,0.0,0.0,0.0,0.0,0.0,0.0,0.0,0.0,0.0,0.0,0.0,0.0,0.0,0.0,0.0,0.0,0.0,0.0,0.0,0.0,0.0,0.0,0.0,0.0,0.0,0.0,0.0,0.0,0.0,0.0,0.0,0.0,0.0,0.0,0.0,0.0,0.0,0.0,0.0,0.0,0.0,0.0,0.0,0.0,0.0,0.0,0.0,0.0,0.0,0.0,0.0,0.0,0.0,0.0,0.0,0.0,0.0,0.0,0.0,0.0,0.0,0.0,0.0,0.0,0.0,0.0,0.0,0.0,0.0,0.0,0.0,0.0,0.0,0.0,0.0,0.0,0.0,0.0,0.0,0.0,0.0,0.0,0.0,0.0,0.0,0.0,0.0,0.0,0.0,0.0,0.0,0.0,0.0,0.0,0.0,0.0,0.0,0.0,0.0,0.0,0.0,0.0,0.0,0.0,0.0,0.0,0.0,0.0,0.0,0.0,0.0,0.0,0.0,0.0,0.0,0.0,0.0,0.0,0.0,0.0,0.0,0.0,0.0,0.0,0.0,0.0,0.0,0.0,0.0,0.0,0.0,0.0,0.0,0.0,0.0,0.0,0.0,0.0,0.0,0.0,0.0,0.0,0.0,0.0,0.0,0.0,0.0,0.0,0.0,0.0,0.0,0.0,0.0,0.0,0.0,0.0,0.0,0.0,0.0,0.0,0.0,0.0,0.0,0.0,0.0,0.0,0.0,0.0,0.0,0.0,0.0,0.0,0.0,0.0,0.0,0.0,0.0,0.0,0.0,0.0,0.0,0.0,0.0,0.0,0.0,0.0,0.0,0.0,0.0,0.0,0.0,0.0,0.0,0.0,0.0,0.0,0.0,0.0,0.0,0.0,0.0,0.0,0.0,0.0,0.0,0.0,0.0,0.0,0.0,0.0,0.0,0.0,0.0,0.0,0.0,0.0,0.0,0.0,0.0,0.0,0.0,0.0,0.0,0.0,0.0,0.0,0.0,0.0,0.0,0.0,0.0,0.0,0.0,0.0,0.0,0.0,0.0,0.0,0.0,0.0,0.0,0.0,0.0,0.0,0.0,0.0,0.0,0.0,0.0,0.0,0.0,0.0,0.0,0.0,0.0,0.0,0.0,0.0,0.0,0.0,0.0,0.0,0.0,0.0,0.0,0.0,0.0,0.0,0.0,0.0,0.0,0.0,0.0,0.0,0.0,0.0,0.0,0.0,0.0,0.0,0.0,0.0,0.0,0.0,0.0,0.0,0.0,0.0,0.0,0.0,0.0,0.0,0.0,0.0,0.0,0.0,0.0,0.0,0.0,0.0,0.0,0.0,0.0,0.0,0.0,0.0,0.0,0.0,0.0,0.0,0.0,0.0,0.0,0.0,0.0,0.0,0.0,0.0,0.0,0.0,0.0,0.0,0.0,0.0,0.0,0.0,0.0,0.0,0.0,0.0,0.0,0.0,0.0,0.0,0.0,0.0,0.0,0.0,0.0,0.0,0.0,0.0,0.0,0.0,0.0,0.0,0.0,0.0,0.0,0.0591,0.0,0.0,0.0,0.0,0.0,0.0,0.0,0.0,0.0,0.0,0.0,0.0,0.0,0.0,0.0,0.0,0.0,0.0,0.0,0.0,0.0,0.0,0.0,0.0,0.0,0.0,0.0,0.0,0.0,0.0,0.0,0.0,0.0,0.0,0.0,0.0,0.0,0.0,0.0,0.0,0.0,0.0,0.0,0.0,0.0,0.0,0.0,0.0,0.0,0.0,0.0,0.0,0.0,0.0,0.0,0.0,0.0,0.0,0.0,0.0,0.0,0.0,0.0,0.0,0.0,0.0,0.0,0.0,0.0,0.0,0.0,0.0,0.0,0.0,0.0,0.0,0.0,0.0,0.0,0.0,0.0,0.0,0.0,0.0,0.0,0.0,0.0,0.0,0.0,0.0,0.0,0.0,0.0,0.0,0.0,0.0,0.0,0.0,0.0,0.0,0.0,0.0,0.0,0.0,0.0,0.0,0.0,0.0,0.0,0.0,0.1007,0.0404,0.0359,0.066,0.1472,0.0,0.0,0.0,0.0,0.0,0.0,0.0,0.0,0.0,0.0,0.0,0.0,0.0,0.0,0.0,0.0,0.0,0.0,0.0,0.0,0.0,0.0,0.0,0.0,0.0,0.0,0.0,0.0,0.0,0.0,0.0,0.0,0.0,0.0,0.0,0.0,0.0,0.0,0.0,0.0,0.0,0.0,0.0,0.0,0.0,0.0,0.0,0.0,0.0,0.0,0.0,0.0,0.0,0.0,0.0,0.0,0.0,0.0,0.0,0.0,0.0,0.0,0.0,0.0,0.0,0.0,0.0,0.0,0.0,0.0,0.0,0.0,0.0,0.0,0.0,0.0,0.0,0.0,0.0,0.0,0.0,0.0,0.0,0.0,0.0,0.0,0.0,0.0,0.0,0.0,0.0,0.0,0.0,0.0,0.0,0.0,0.0,0.0,0.0,0.0,0.0,0.0,0.0,0.0,0.0,0.0,0.0,0.0,0.0,0.0,0.0,0.0,0.1417,0.1878,0.2895,0.0,0.0,0.0,0.0,0.0,0.0,0.0,0.0,0.0,0.0,0.0,0.0,0.0,0.0,0.0,0.0,0.0,0.0,0.0,0.0,0.0,0.0,0.0,0.0,0.0,0.0,0.0,0.0,0.0,0.0,0.0,0.0,0.0,0.0,0.0,0.0,0.0,0.0,0.0,0.0,0.0,0.0,0.0,0.0,0.0,0.0,0.0,0.0,0.0,0.0,0.0,0.0,0.0,0.0,0.0,0.0,0.0,0.0,0.0,0.0,0.0,0.0,0.0,0.0,0.0,0.0,0.0,0.0,0.0,0.0,0.0,0.0,0.0,0.0,0.0,0.0,0.0,0.0,0.0,0.0,0.0,0.0,0.0,0.0,0.0,0.0,0.0,0.0,0.0,0.0,0.0,0.0,0.0,0.0,0.0,0.0,0.0,0.0,0.0,0.0,0.0,0.0,0.0,0.0,0.0,0.0,0.0,0.0,0.0,0.0,0.3998,0.3916,0.3871,0.0,0.5073,0.0,0.0,0.0,0.0,0.0,0.0,0.0,0.0,0.0,0.0,0.0,0.0,0.0,0.0,0.0,0.0,0.0,0.0,0.0,0.0,0.0,0.0,0.0,0.0,0.0,0.0,0.0,0.0,0.0,0.0,0.0,0.0,0.0,0.0,0.0,0.0,0.0,0.0,0.0,0.0,0.0,0.0,0.0,0.0,0.0,0.0,0.0,0.0,0.0,0.0,0.0,0.0,0.0,0.0,0.0,0.0,0.0,0.0,0.0,0.0,0.0,0.0,0.0,0.0,0.0,0.0,0.0,0.0,0.0,0.0,0.0,0.0,0.0,0.0,0.0,0.0,0.0,0.0,0.0,0.0,0.0,0.0,0.0,0.0,0.0,0.0,0.0,0.0,0.0,0.0,0.0,0.0,0.0,0.0,0.0,0.0,0.0,0.0,0.0,0.0,0.0,0.0,0.0,0.0,0.0,0.0,0.0,0.0,0.0,0.0,0.504,0.4683,0.4918,0.5287,0.0,0.0,0.0,0.0,0.0,0.0,0.0,0.0,0.0,0.0,0.0,0.0,0.0,0.0,0.0,0.0,0.0,0.0,0.0,0.0,0.0,0.0,0.0,0.0,0.0,0.0,0.0,0.0,0.0,0.0,0.0,0.0,0.0,0.0,0.0,0.0,0.0,0.0,0.0,0.0,0.0,0.0,0.0,0.0,0.0,0.0,0.0,0.0,0.0,0.0,0.0,0.0,0.0,0.0,0.0,0.0,0.0,0.0,0.0,0.0,0.0,0.0,0.0,0.0,0.0,0.0,0.0,0.0,0.0,0.0,0.0,0.0,0.0,0.0,0.0,0.0,0.0,0.0,0.0,0.0,0.0,0.0,0.0,0.0,0.0,0.0,0.0,0.0,0.0,0.0,0.0,0.0,0.0,0.0,0.0,0.0,0.0,0.0,0.0,0.0,0.0,0.0,0.0,0.0,0.0,0.0,0.0,0.0,0.0,0.0,0.6511,0.6192,0.5932,0.6056,0.626,0.6616,0.0,0.0,0.0,0.0,0.0,0.0,0.0,0.0,0.0,0.0,0.0,0.0,0.0,0.0,0.0,0.0,0.0,0.0,0.0,0.0,0.0,0.0,0.0,0.0,0.0,0.0,0.0,0.0,0.0,0.0,0.0,0.0,0.0,0.0,0.0,0.0,0.0,0.0,0.0,0.0,0.0,0.0,0.0,0.0,0.0,0.0,0.0,0.0,0.0,0.0,0.0,0.0,0.0,0.0,0.0,0.0,0.0,0.0,0.0,0.0,0.0,0.0,0.0,0.0,0.0,0.0,0.0,0.0,0.0,0.0,0.0,0.0,0.0,0.0,0.0,0.0,0.0,0.0,0.0,0.0,0.0,0.0,0.0,0.0,0.0,0.0,0.0,0.0,0.0,0.0,0.0,0.0,0.0,0.0,0.0,0.0,0.0,0.0,0.0,0.0,0.0,0.0,0.0,0.0,0.0,0.0,0.0,0.0,0.8292,0.7902,0.7845,0.8069,0.7628,0.7503,0.0,0.0,0.0,0.0,0.0,0.0,0.0,0.0,0.0,0.0,0.0,0.0,0.0,0.0,0.0,0.0,0.0,0.0,0.0,0.0,0.0,0.0,0.0,0.0,0.0,0.0,0.0,0.0,0.0,0.0,0.0,0.0,0.0,0.0,0.0,0.0,0.0,0.0,0.0,0.0,0.0,0.0,0.0,0.0,0.0,0.0,0.0,0.0,0.0,0.0,0.0,0.0,0.0,0.0,0.0,0.0,0.0,0.0,0.0,0.0,0.0,0.0,0.0,0.0,0.0,0.0,0.0,0.0,0.0,0.0,0.0,0.0,0.0,0.0,0.0,0.0,0.0,0.0,0.0,0.0,0.0,0.0,0.0,0.0,0.0,0.0,0.0,0.0,0.0,0.0,0.0,0.0,0.0,0.0,0.0,0.0,0.0,0.0,0.0,0.0,0.0,0.0,0.0,0.0,0.0,0.0,0.0,0.0,0.0,0.7604,0.7655,0.7868,0.8275,0.7502,0.7523,0.0,0.0,0.0,0.0,0.0,0.0,0.0,0.0,0.0,0.0,0.0,0.0,0.0,0.0,0.0,0.0,0.0,0.0,0.0,0.0,0.0,0.0,0.0,0.0,0.0,0.0,0.0,0.0,0.0,0.0,0.0,0.0,0.0,0.0,0.0,0.0,0.0,0.0,0.0,0.0,0.0,0.0,0.0,0.0,0.0,0.0,0.0,0.0,0.0,0.0,0.0,0.0,0.0,0.0,0.0,0.0,0.0,0.0,0.0,0.0,0.0,0.0,0.0,0.0,0.0,0.0,0.0,0.0,0.0,0.0,0.0,0.0,0.0,0.0,0.0,0.0,0.0,0.0,0.0,0.0,0.0,0.0,0.0,0.0,0.0,0.0,0.0,0.0,0.0,0.0,0.0,0.0,0.0,0.0,0.0,0.0,0.0,0.0,0.0,0.0,0.0,0.0,0.0,0.0,0.0,0.0,0.0,0.0,0.0,0.7382,0.0,0.7967,0.8085,0.7394,0.7486,0.0,0.0,0.0,0.0,0.0,0.0,0.0,0.0,0.0,0.0,0.0,0.0,0.0,0.0,0.0,0.0,0.0,0.0,0.0,0.0,0.0,0.0,0.0,0.0,0.0,0.0,0.0,0.0,0.0,0.0,0.0,0.0,0.0,0.0,0.0,0.0,0.0,0.0,0.0,0.0,0.0,0.0,0.0,0.0,0.0,0.0,0.0,0.0,0.0,0.0,0.0,0.0,0.0,0.0,0.0,0.0,0.0,0.0,0.0,0.0,0.0,0.0,0.0,0.0,0.0,0.0,0.0,0.0,0.0,0.0,0.0,0.0,0.0,0.0,0.0,0.0,0.0,0.0,0.0,0.0,0.0,0.0,0.0,0.0,0.0,0.0,0.0,0.0,0.0,0.0,0.0,0.0,0.0,0.0,0.0,0.0,0.0,0.0,0.0,0.0,0.0,0.0,0.0,0.0,0.0,0.0,0.0,0.0,0.7334,0.7987,0.8392,0.8438,0.788,0.7458,0.7574,0.0,0.0,0.0,0.0,0.0,0.0,0.0,0.0,0.0,0.0,0.0,0.0,0.0,0.0,0.0,0.0,0.0,0.0,0.0,0.0,0.0,0.0,0.0,0.0,0.0,0.0,0.0,0.0,0.0,0.0,0.0,0.0,0.0,0.0,0.0,0.0,0.0,0.0,0.0,0.0,0.0,0.0,0.0,0.0,0.0,0.0,0.0,0.0,0.0,0.0,0.0,0.0,0.0,0.0,0.0,0.0,0.0,0.0,0.0,0.0,0.0,0.0,0.0,0.0,0.0,0.0,0.0,0.0,0.0,0.0,0.0,0.0,0.0,0.0,0.0,0.0,0.0,0.0,0.0,0.0,0.0,0.0,0.0,0.0,0.0,0.0,0.0,0.0,0.0,0.0,0.0,0.0,0.0,0.0,0.0,0.0,0.0,0.0,0.0,0.0,0.0,0.0,0.0,0.0,0.0,0.0,0.0,0.0,0.0,0.8963,1.0258,1.0865,1.0591,0.957,0.9493,0.0,0.0,0.0,0.0,0.0,0.0,0.0,0.0,0.0,0.0,0.0,0.0,0.0,0.0,0.0,0.0,0.0,0.0,0.0,0.0,0.0,0.0,0.0,0.0,0.0,0.0,0.0,0.0,0.0,0.0,0.0,0.0,0.0,0.0,0.0,0.0,0.0,0.0,0.0,0.0,0.0,0.0,0.0,0.0,0.0,0.0,0.0,0.0,0.0,0.0,0.0,0.0,0.0,0.0,0.0,0.0,0.0,0.0,0.0,0.0,0.0,0.0,0.0,0.0,0.0,0.0,0.0,0.0,0.0,0.0,0.0,0.0,0.0,0.0,0.0,0.0,0.0,0.0,0.0,0.0,0.0,0.0,0.0,0.0,0.0,0.0,0.0,0.0,0.0,0.0,0.0,0.0,0.0,0.0,0.0,0.0,0.0,0.0,0.0,0.0,0.0,0.0,0.0,0.0,0.0,0.0,0.0,0.0,0.0,1.166,1.2401,1.2664,1.2355,1.1232,1.0847,1.1275,0.0,0.0,0.0,0.0,0.0,0.0,0.0,0.0,0.0,0.0,0.0,0.0,0.0,0.0,0.0,0.0,0.0,0.0,0.0,0.0,0.0,0.0,0.0,0.0,0.0,0.0,0.0,0.0,0.0,0.0,0.0,0.0,0.0,0.0,0.0,0.0,0.0,0.0,0.0,0.0,0.0,0.0,0.0,0.0,0.0,0.0,0.0,0.0,0.0,0.0,0.0,0.0,0.0,0.0,0.0,0.0,0.0,0.0,0.0,0.0,0.0,0.0,0.0,0.0,0.0,0.0,0.0,0.0,0.0,0.0,0.0,0.0,0.0,0.0,0.0,0.0,0.0,0.0,0.0,0.0,0.0,0.0,0.0,0.0,0.0,0.0,0.0,0.0,0.0,0.0,0.0,0.0,0.0,0.0,0.0,0.0,0.0,0.0,0.0,0.0,0.0,0.0,0.0,0.0,0.0,0.0,0.0,0.0,1.5594,1.4845,1.4156,1.3349,1.2575,1.187,0.0,0.0,0.0,0.0,0.0,0.0,0.0,0.0,0.0,0.0,0.0,0.0,0.0,0.0,0.0,0.0,0.0,0.0,0.0,0.0,0.0,0.0,0.0,0.0,0.0,0.0,0.0,0.0,0.0,0.0,0.0,0.0,0.0,0.0,0.0,0.0,0.0,0.0,0.0,0.0,0.0,0.0,0.0,0.0,0.0,0.0,0.0,0.0,0.0,0.0,0.0,0.0,0.0,0.0,0.0,0.0,0.0,0.0,0.0,0.0,0.0,0.0,0.0,0.0,0.0,0.0,0.0,0.0,0.0,0.0,0.0,0.0,0.0,0.0,0.0,0.0,0.0,0.0,0.0,0.0,0.0,0.0,0.0,0.0,0.0,0.0,0.0,0.0,0.0,0.0,0.0,0.0,0.0,0.0,0.0,0.0,0.0,0.0,0.0,0.0,0.0,0.0,0.0,0.0,0.0,0.0,0.0,0.0,0.0,1.7919,1.8824,1.842,1.674,1.5457,1.4312,0.0,0.0,0.0,0.0,0.0,0.0,0.0,0.0,0.0,0.0,0.0,0.0,0.0,0.0,0.0,0.0,0.0,0.0,0.0,0.0,0.0,0.0,0.0,0.0,0.0,0.0,0.0,0.0,0.0,0.0,0.0,0.0,0.0,0.0,0.0,0.0,0.0,0.0,0.0,0.0,0.0,0.0,0.0,0.0,0.0,0.0,0.0,0.0,0.0,0.0,0.0,0.0,0.0,0.0,0.0,0.0,0.0,0.0,0.0,0.0,0.0,0.0,0.0,0.0,0.0,0.0,0.0,0.0,0.0,0.0,0.0,0.0,0.0,0.0,0.0,0.0,0.0,0.0,0.0,0.0,0.0,0.0,0.0,0.0,0.0,0.0,0.0,0.0,0.0,0.0,0.0,0.0,0.0,0.0,0.0,0.0,0.0,0.0,0.0,0.0,0.0,0.0,0.0,0.0,0.0,0.0,0.0,0.0,1.7502,1.9259,2.0481,2.0515,1.9317,1.8293,1.6684,0.0,0.0,0.0,0.0,0.0,0.0,0.0,0.0,0.0,0.0,0.0,0.0,0.0,0.0,0.0,0.0,0.0,0.0,0.0,0.0,0.0,0.0,0.0,0.0,0.0,0.0,0.0,0.0,0.0,0.0,0.0,0.0,0.0,0.0,0.0,0.0,0.0,0.0,0.0,0.0,0.0,0.0,0.0,0.0,0.0,0.0,0.0,0.0,0.0,0.0,0.0,0.0,0.0,0.0,0.0,0.0,0.0,0.0,0.0,0.0,0.0,0.0,0.0,0.0,0.0,0.0,0.0,0.0,0.0,0.0,0.0,0.0,0.0,0.0,0.0,0.0,0.0,0.0,0.0,0.0,0.0,0.0,0.0,0.0,0.0,0.0,0.0,0.0,0.0,0.0,0.0,0.0,0.0,0.0,0.0,0.0,0.0,0.0,0.0,0.0,0.0,0.0,0.0,0.0,0.0,0.0,0.0,0.0,1.8523,2.0367,2.1293,2.1696,2.1712,2.076,1.8809,0.0,0.0,0.0,0.0,0.0,0.0,0.0,0.0,0.0,0.0,0.0,0.0,0.0,0.0,0.0,0.0,0.0,0.0,0.0,0.0,0.0,0.0,0.0,0.0,0.0,0.0,0.0,0.0,0.0,0.0,0.0,0.0,0.0,0.0,0.0,0.0,0.0,0.0,0.0,0.0,0.0,0.0,0.0,0.0,0.0,0.0,0.0,0.0,0.0,0.0,0.0,0.0,0.0,0.0,0.0,0.0,0.0,0.0,0.0,0.0,0.0,0.0,0.0,0.0,0.0,0.0,0.0,0.0,0.0,0.0,0.0,0.0,0.0,0.0,0.0,0.0,0.0,0.0,0.0,0.0,0.0,0.0,0.0,0.0,0.0,0.0,0.0,0.0,0.0,0.0,0.0,0.0,0.0,0.0,0.0,0.0,0.0,0.0,0.0,0.0,0.0,0.0,0.0,0.0,0.0,0.0,0.0,0.0,2.1354,2.4459,2.531,2.5723,2.5779,2.2021,1.9015,0.0,0.0,0.0,0.0,0.0,0.0,0.0,0.0,0.0,0.0,0.0,0.0,0.0,0.0,0.0,0.0,0.0,0.0,0.0,0.0,0.0,0.0,0.0,0.0,0.0,0.0,0.0,0.0,0.0,0.0,0.0,0.0,0.0,0.0,0.0,0.0,0.0,0.0,0.0,0.0,0.0,0.0,0.0,0.0,0.0,0.0,0.0,0.0,0.8841,0.0,0.0,0.0,0.0,0.0,0.0,0.0,0.0,0.0,0.0,0.0,0.0,0.0,0.0,0.0,0.0,0.0,0.0,0.0,0.0,0.0,0.0,0.0,0.0,0.0,0.0,0.0,0.0,0.0,0.0,0.0,0.0,0.0,0.0,0.0,0.0,0.0,0.0,0.0,0.0,0.0,0.0,0.0,0.0,0.0,0.0,0.0,0.0,0.0,0.0,0.0,0.0,0.0,0.0,0.0,0.0,0.0,0.0,0.0,2.2261,2.5551,2.6174,2.6508,2.6356,2.3624,2.1073,0.0,0.0,0.0,0.0,0.0,0.0,0.0,0.0,0.0,0.0,0.0,0.0,0.0,0.0,0.0,0.0,0.0,0.0,0.0,0.0,0.0,0.0,0.0,0.0,0.0,0.0,0.0,0.0,0.0,0.0,0.0,0.0,0.0,0.0,0.0,0.0,0.0,0.0,0.0,0.0,0.0,0.0,0.0,0.0,0.0,0.0,0.0,0.0,0.0,0.0,0.0,0.0,0.0,0.0,0.0,0.0,0.0,0.0,0.0,0.0,0.0,0.0,0.0,0.0,0.0,0.0,0.0,0.0,0.0,0.0,0.0,0.0,0.0,0.0,0.0,0.0,0.0,0.0,0.0,0.0,0.0,0.0,0.0,0.0,0.0,0.0,0.0,0.0,0.0,0.0,0.0,0.0,0.0,0.0,0.0,0.0,0.0,0.0,0.0,0.0,0.0,0.0,0.0,0.0,0.0,0.0,0.0,2.0704,2.3054,2.6219,2.6576,2.6652,2.6557,2.5498,2.3672,2.119,0.0,0.0,0.0,0.0,0.0,0.0,0.0,0.0,0.0,0.0,0.0,0.0,0.0,0.0,0.0,0.0,0.0,0.0,0.0,0.0,0.0,0.0,0.0,0.0,0.0,0.0,0.0,0.0,0.0,0.0,0.0,0.0,0.0,0.0,0.0,0.0,0.0,0.0,1.204,1.4,0.0,0.0,0.0,0.0,0.0,0.0,0.0,0.0,1.1333,0.0,0.0,0.0,0.0,0.0,0.0,0.0,0.0,0.0,0.0,0.0,0.0,0.0,0.0,0.0,0.0,0.0,0.0,0.0,0.0,0.0,0.0,0.0,0.0,0.0,0.0,0.0,0.0,0.0,0.0,0.0,0.0,0.0,0.0,0.0,0.0,0.0,0.0,0.0,0.0,0.0,0.0,0.0,0.0,0.0,0.0,0.0,0.0,0.0,0.0,0.0,0.0,0.0,0.0,0.0,0.0,2.322,2.3704,2.6036,3.0384,2.986,2.9698,2.9993,2.7467,2.5217,2.3279,0.0,0.0,0.0,0.0,0.0,0.0,0.0,0.0,0.0,0.0,0.0,0.0,0.0,0.0,0.0,0.0,0.0,0.0,0.0,0.0,0.0,0.0,0.0,0.0,0.0,0.0,0.0,0.0,0.0,0.0,0.0,0.0,0.0,0.0,0.0,0.0,0.0,0.0,0.0,1.622,1.7286,0.0,0.0,0.0,0.0,0.0,0.0,0.0,0.0,1.2317,0.0,0.0,0.0,0.0,0.0,0.0,0.0,0.0,0.0,0.0,0.0,0.0,0.0,0.0,0.0,0.0,0.0,0.0,0.0,0.0,0.0,0.0,0.0,0.0,0.0,0.0,0.0,0.0,0.0,0.0,0.0,0.0,0.0,0.0,0.0,0.0,0.0,0.0,0.0,0.0,0.0,0.0,0.0,0.0,0.0,0.0,0.0,0.0,0.0,0.0,0.0,0.0,0.0,0.0,0.0,2.3359,2.4563,2.7081,3.0996,3.0547,3.0098,2.9814,2.6943,2.4658,0.0,0.0,0.0,0.0,0.0,0.0,0.0,0.0,0.0,0.0,0.0,0.0,0.0,0.0,0.0,0.0,0.0,0.0,0.0,0.0,0.0,0.0,0.0,0.0,0.0,0.0,0.0,0.0,0.0,0.0,0.0,0.0,0.0,0.0,0.0,0.0,0.0,0.0,0.0,0.0,1.7489,1.8642,1.9157,0.0,0.0,0.0,0.0,0.0,0.0,1.4541,1.4026,0.0,0.0,0.0,0.0,0.0,0.0,0.0,0.0,0.0,0.0,0.0,0.0,0.0,0.0,0.0,0.0,0.0,0.0,0.0,0.0,0.0,0.0,0.0,0.0,0.0,0.0,0.0,0.0,0.0,0.0,0.0,0.0,0.0,0.0,0.0,0.0,0.0,0.0,0.0,0.0,0.0,0.0,0.0,0.0,0.0,0.0,0.0,0.0,0.0,0.0,0.0,0.0,0.0,0.0,0.0,2.2899,2.484,2.7354,3.0431,3.0176,2.957,2.8769,2.6025,2.3867,0.0,0.0,0.0,0.0,0.0,0.0,0.0,0.0,0.0,0.0,0.0,0.0,0.0,0.0,0.0,0.0,0.0,0.0,0.0,0.0,0.0,0.0,0.0,0.0,0.0,0.0,0.0,0.0,0.0,0.0,0.0,0.0,0.0,0.0,0.0,0.0,0.0,0.0,0.0,0.0,0.0,1.9912,1.96,2.0262,0.0,0.0,0.0,0.0,1.6911,1.6723,0.0,0.0,0.0,0.0,0.0,0.0,0.0,0.0,0.0,0.0,0.0,0.0,0.0,0.0,0.0,0.0,0.0,0.0,0.0,0.0,0.0,0.0,0.0,0.0,0.0,0.0,0.0,0.0,0.0,0.0,0.0,0.0,0.0,0.0,0.0,0.0,0.0,0.0,0.0,0.0,0.0,0.0,0.0,0.0,0.0,0.0,0.0,0.0,0.0,0.0,0.0,0.0,0.0,0.0,0.0,0.0,2.3013,2.5228,2.7454,2.957,2.9287,2.8838,2.835,2.6172,2.4043,0.0,0.0,0.0,0.0,0.0,0.0,0.0,0.0,0.0,0.0,0.0,0.0,0.0,0.0,0.0,0.0,0.0,0.0,0.0,0.0,0.0,0.0,0.0,0.0,0.0,0.0,0.0,0.0,0.0,0.0,0.0,0.0,0.0,0.0,0.0,0.0,0.0,0.0,0.0,0.0,0.0,2.128,2.0556,2.0941,2.0821,0.0,0.0,1.9893,1.8901,1.9824,0.0,0.0,0.0,0.0,0.0,0.0,0.0,0.0,0.0,0.0,0.0,0.0,0.0,0.0,0.0,0.0,0.0,0.0,0.0,0.0,0.0,0.0,0.0,0.0,0.0,0.0,0.0,0.0,0.0,0.0,0.0,0.0,0.0,0.0,0.0,0.0,0.0,0.0,0.0,0.0,0.0,0.0,0.0,0.0,0.0,0.0,0.0,0.0,0.0,0.0,0.0,0.0,0.0,0.0,0.0,2.0004,2.3062,2.5273,2.7422,2.9509,2.8916,2.8242,2.7578,2.501,2.2832,0.0,0.0,0.0,0.0,0.0,0.0,0.0,0.0,0.0,0.0,0.0,0.0,0.0,0.0,0.0,0.0,0.0,0.0,0.0,0.0,0.0,0.0,0.0,0.0,0.0,0.0,0.0,0.0,0.0,0.0,0.0,0.0,0.0,0.0,0.0,0.0,0.0,0.0,0.0,0.0,0.0,0.0,2.1025,2.2217,0.0,0.0,0.0,2.2059,2.0944,0.0,0.0,0.0,0.0,0.0,0.0,0.0,0.0,0.0,0.0,0.0,0.0,0.0,0.0,0.0,0.0,0.0,0.0,0.0,0.0,0.0,0.0,0.0,0.0,0.0,0.0,0.0,0.0,0.0,0.0,0.0,0.0,0.0,0.0,0.0,0.0,0.0,0.0,0.0,0.0,0.0,0.0,0.0,0.0,0.0,0.0,0.0,0.0,0.0,0.0,0.0,0.0,0.0,0.0,0.0,0.0,0.0,2.2604,2.5127,2.7266,2.9059,2.8682,2.7976,2.7079,2.453,0.0,0.0,0.0,0.0,0.0,0.0,0.0,0.0,0.0,0.0,0.0,0.0,0.0,0.0,0.0,0.0,0.0,0.0,0.0,0.0,0.0,0.0,0.0,0.0,0.0,0.0,0.0,1.1912,0.0,0.0,0.0,0.0,0.0,0.0,0.0,0.0,0.0,0.0,0.0,0.0,0.0,0.0,2.1151,2.1404,2.3076,2.3757,0.0,0.0,2.3602,2.2601,2.2407,2.152,0.0,0.0,0.0,0.0,0.0,0.0,0.0,0.0,0.0,0.0,0.0,0.0,0.0,0.0,0.0,0.0,0.0,0.0,0.0,0.0,0.0,0.0,0.0,0.0,0.0,0.0,0.0,0.0,0.0,0.0,0.0,0.0,0.0,0.0,0.0,0.0,0.0,0.0,0.0,0.0,0.0,0.0,0.0,0.0,0.0,0.0,0.0,0.0,0.0,0.0,0.0,0.0,0.0,0.0,0.0,2.1375,2.4678,2.6887,2.7816,2.8455,2.835,2.7377,2.5789,2.4234,0.0,0.0,0.0,0.0,0.0,0.0,0.0,0.0,0.0,0.0,0.0,0.0,0.0,0.0,0.0,0.0,0.0,0.0,0.0,0.0,0.0,0.0,0.0,0.0,0.0,0.0,0.0,0.0,0.0,0.0,0.0,0.0,0.0,0.0,0.0,0.0,0.0,0.0,0.0,0.0,0.0,2.1364,2.177,2.2994,2.3926,0.0,0.0,2.4219,2.3769,2.4612,2.4007,1.9915,0.0,0.0,0.0,0.0,0.0,0.0,0.0,0.0,0.0,0.0,0.0,0.0,0.0,0.0,0.0,0.0,0.0,0.0,0.0,0.0,0.0,0.0,0.0,0.0,0.0,0.0,0.0,0.0,0.0,0.0,0.0,0.0,0.0,0.0,0.0,0.0,0.0,0.0,0.0,0.0,0.0,0.0,0.0,0.0,0.0,0.0,0.0,0.0,0.0,0.0,0.0,0.0,0.0,2.0147,2.1878,2.4761,2.7171,2.9024,2.9141,2.878,2.8168,2.6737,2.4849,0.0,0.0,0.0,0.0,0.0,0.0,0.0,0.0,0.0,0.0,0.0,0.0,0.0,0.0,0.0,0.0,0.0,0.0,0.0,0.0,0.0,0.0,0.0,0.0,0.0,0.0,0.0,0.0,1.3223,1.3217,1.3812,0.0,0.0,0.0,0.0,0.0,0.0,0.0,0.0,0.0,0.0,2.142,2.3072,2.3598,0.0,0.0,2.4345,2.4268,2.3857,2.376,2.3008,2.0791,1.9873,0.0,0.0,0.0,0.0,0.0,0.0,0.0,0.0,0.0,0.0,0.0,0.0,0.0,0.0,0.0,0.0,0.0,0.0,0.0,0.0,0.0,0.0,0.0,0.0,0.0,0.0,0.0,0.0,0.0,0.0,0.0,0.0,0.0,0.0,0.0,0.0,0.0,0.0,0.0,0.0,0.0,0.0,0.0,0.0,0.0,0.0,0.0,0.0,0.0,0.0,0.0,0.0,2.0286,2.2063,2.4812,2.726,2.9456,2.941,2.9112,2.8632,2.7493,2.5693,0.0,0.0,0.0,0.0,0.0,0.0,0.0,0.0,0.0,0.0,0.0,0.0,0.0,0.0,0.0,0.0,0.0,0.0,0.0,0.0,0.0,0.0,0.0,0.0,0.0,0.0,0.0,0.0,1.3769,1.3685,1.3734,0.0,0.0,0.0,0.0,0.0,0.0,0.0,0.0,0.0,0.0,2.2107,2.4094,2.4129,2.4062,2.454,2.4381,2.4246,2.4292,2.3513,2.2485,2.1243,0.0,0.0,0.0,0.0,0.0,0.0,0.0,0.0,0.0,0.0,0.0,0.0,0.0,0.0,0.0,0.0,0.0,0.0,0.0,0.0,0.0,0.0,0.0,0.0,0.0,0.0,0.0,0.0,0.0,0.0,1.6056,0.0,0.0,0.0,0.0,0.0,0.0,0.0,0.0,0.0,0.0,0.0,0.0,0.0,0.0,0.0,0.0,0.0,0.0,0.0,0.0,0.0,0.0,2.0259,2.1649,2.4775,2.7042,2.8466,2.9114,2.9282,2.8815,2.8059,2.7036,2.566,0.0,0.0,0.0,0.0,0.0,0.0,0.0,0.0,0.0,0.0,0.0,0.0,0.0,0.0,0.0,0.0,0.0,0.0,0.0,0.0,0.0,0.0,0.0,0.0,0.0,0.0,1.4684,1.4365,1.3799,0.0,0.0,0.0,0.0,0.0,0.0,0.0,0.0,0.0,0.0,2.2673,2.3466,2.4623,2.4451,2.4472,2.5329,2.4547,2.4219,2.522,2.4474,2.3034,0.0,0.0,0.0,0.0,0.0,0.0,0.0,0.0,0.0,0.0,0.0,0.0,0.0,0.0,0.0,0.0,0.0,0.0,0.0,0.0,0.0,0.0,0.0,0.0,0.0,0.0,0.0,2.0769,1.9963,0.0,0.0,0.0,0.0,0.0,0.0,0.0,0.0,0.0,0.0,0.0,2.5164,2.6067,0.0,0.0,0.0,0.0,0.0,0.0,0.0,0.0,0.0,0.0,0.0,0.0,2.0892,2.2809,2.5576,2.7969,2.986,3.0175,3.0187,2.9996,2.9419,2.7692,2.4713,0.0,0.0,0.0,0.0,0.0,0.0,0.0,0.0,0.0,0.0,0.0,0.0,0.0,0.0,0.0,0.0,0.0,0.0,0.0,0.0,0.0,0.0,0.0,0.0,0.0,1.4868,0.0,0.0,0.0,0.0,0.0,0.0,0.0,0.0,0.0,0.0,0.0,2.0008,2.146,2.2627,2.3768,2.4919,2.4409,2.4366,0.0,0.0,0.0,0.0,0.0,0.0,0.0,0.0,0.0,0.0,0.0,0.0,0.0,0.0,2.0869,1.8347,1.7307,1.6697,1.6294,0.0,0.0,0.0,0.0,0.0,0.0,0.0,0.0,0.0,0.0,0.0,0.0,0.0,0.0,0.0,0.0,2.1688,0.0,0.0,0.0,0.0,0.0,0.0,0.0,0.0,2.6396,2.7816,2.7866,2.8975,2.89,0.0,2.7434,2.5354,0.0,0.0,0.0,0.0,0.0,0.0,0.0,0.0,2.2009,2.3794,2.6417,2.8619,3.0301,3.0403,3.0363,3.0292,2.9415,2.7645,2.4978,2.287,2.13,0.0,0.0,0.0,0.0,0.0,0.0,0.0,0.0,0.0,0.0,0.0,0.0,0.0,0.0,0.0,0.0,0.0,0.0,0.0,0.0,0.0,0.0,0.0,1.6016,0.0,0.0,0.0,0.0,0.0,0.0,0.0,0.0,0.0,1.9773,2.0728,2.179,2.3018,2.4044,2.4931,2.5577,0.0,0.0,0.0,0.0,0.0,0.0,0.0,2.5333,2.4325,2.3855,2.3459,2.2985,2.3732,2.3829,2.2001,0.0,0.0,2.0537,1.9582,1.9029,1.8749,1.8654,1.8629,1.8807,1.9042,1.9278,0.0,0.0,0.0,0.0,0.0,0.0,0.0,0.0,2.4215,2.4884,0.0,2.3693,0.0,0.0,0.0,0.0,0.0,2.5265,0.0,0.0,3.0124,3.1298,2.9892,3.0369,3.0055,2.9051,3.0004,2.9088,2.6371,2.2918,0.0,0.0,0.0,0.0,0.0,0.0,2.3607,2.4602,2.7091,2.8871,2.9792,2.9804,2.9792,2.9729,2.8209,2.7052,2.6386,2.4305,2.2857,2.2246,2.07,0.0,0.0,0.0,0.0,0.0,0.0,0.0,0.0,0.0,0.0,0.0,0.0,0.0,0.0,0.0,0.0,0.0,0.0,0.0,0.0,1.7456,0.0,0.0,0.0,0.0,0.0,0.0,0.0,0.0,0.0,0.0,2.2911,2.3481,2.4462,2.6202,0.0,0.0,0.0,0.0,2.664,2.808,2.8166,2.84,2.9396,2.8684,2.7513,2.6211,0.0,0.0,2.2128,2.3472,2.4115,2.1736,2.2009,2.2613,2.2955,2.1921,2.1268,2.165,2.0771,2.0323,2.0966,2.0898,2.08,3.1153,0.0,0.0,0.0,0.0,2.676,2.7592,2.8852,2.9084,2.8867,2.8307,2.682,0.0,0.0,0.0,0.0,0.0,0.0,2.6955,2.7249,2.9449,3.0444,3.0394,3.0922,3.0796,3.0168,3.0457,2.9591,2.767,2.6579,2.4636,2.1914,0.0,0.0,0.0,0.0,2.4595,2.5636,2.7668,2.9088,2.9779,2.9779,2.9603,2.9189,2.7946,2.6653,2.5335,2.4637,2.3351,2.1295,2.1418,0.0,0.0,0.0,0.0,0.0,0.0,0.0,0.0,0.0,0.0,0.0,0.0,0.0,0.0,0.0,0.0,0.0,0.0,0.0,1.8752,1.9432,1.9505,0.0,0.0,0.0,0.0,0.0,0.0,0.0,0.0,0.0,2.572,2.5873,2.5972,0.0,0.0,2.777,2.7797,2.7217,2.7252,2.8521,0.0,0.0,0.0,2.7894,2.7939,2.6936,2.6806,2.6199,2.4291,2.4588,2.4555,2.284,2.275,2.2964,2.3013,2.2373,2.1787,2.1836,2.1797,2.1826,2.208,2.2256,2.2324,3.4375,3.1486,2.9738,2.9265,2.9659,2.9242,2.9898,3.1199,3.1112,3.0826,3.0378,2.9072,2.7692,2.6144,2.4862,0.0,0.0,0.0,2.7816,2.8189,2.9526,3.0294,3.0633,3.1148,3.1122,3.0633,3.062,2.998,2.8775,2.8775,2.7478,2.4995,0.0,0.0,2.2471,2.4529,2.5903,2.6541,2.8313,2.9327,2.944,2.9239,2.8863,2.8273,2.7419,2.6377,2.5139,2.4675,2.3615,2.1744,2.2071,2.1578,0.0,0.0,0.0,0.0,0.0,0.0,0.0,0.0,0.0,0.0,0.0,1.7395,0.0,0.0,0.0,0.0,1.8883,1.9487,2.0004,2.0623,0.0,0.0,0.0,0.0,0.0,0.0,0.0,2.1862,2.3424,2.5071,2.6776,2.7105,2.7262,2.7456,2.7683,2.8005,2.8421,0.0,2.7813,2.9335,2.9527,2.9242,2.8515,2.8873,2.8975,2.8041,2.7754,2.7226,2.5924,2.5432,2.4807,2.38,2.3172,2.2838,2.2847,2.2344,2.2021,2.2324,2.2535,2.2711,2.2721,2.2916,2.2974,3.6596,3.5382,3.3301,3.2754,3.3093,3.2001,3.1825,3.2265,3.126,3.1311,3.2014,3.0532,2.9779,2.9553,2.8084,0.0,2.7457,2.8524,2.895,2.9001,3.0068,3.0557,3.057,3.1035,3.1022,3.0545,3.0545,3.0294,2.9792,2.9779,2.9239,2.816,2.6628,2.5573,2.5134,2.6603,2.7419,2.7431,2.8938,2.944,2.8838,2.8285,2.7745,2.7266,2.6637,2.6034,2.546,2.4469,2.3634,2.307,2.2556,2.2046,2.1418,0.0,0.0,0.0,0.0,0.0,0.0,0.0,0.0,0.0,0.0,0.0,0.0,0.0,0.0,0.0,2.0903,0.0,2.0742,2.1157,0.0,0.0,0.0,2.0498,1.9836,2.1344,2.2322,2.2228,0.0,0.0,2.6562,0.0,2.8251,2.8692,2.8071,2.7926,2.8763,2.8157,2.8299,3.0175,3.0455,3.062,3.0598,3.0376,2.9706,2.8805,2.8259,2.7388,2.6531,2.5677,2.484,2.4002,2.3133,2.2461,2.2461,2.2139,2.2119,2.2832,2.2935,2.2955,2.2906,2.2916,2.2852,3.7174,3.6081,3.514,3.4542,3.4248,3.3156,3.298,3.3432,3.278,3.2152,3.1537,3.0771,2.9716,2.8499,2.8524,2.8499,2.8574,2.9277,2.9591,2.9603,2.9867,2.998,3.0005,3.0118,3.0118,2.9993,2.998,2.9917,2.9792,2.9779,2.9428,2.8737,2.8298,2.7657,2.6779,2.7921,2.8512,2.8499,2.8888,2.8863,2.8261,2.7356,2.6826,2.6688,2.5343,2.4519,2.4368,2.3684,2.3058,2.2506,2.2385,2.187,2.093,2.0515,0.0,0.0,0.0,0.0,0.0,0.0,0.0,0.0,0.0,1.8581,1.8053,0.0,1.9849,0.0,2.1468,2.1719,2.0819,2.0805,0.0,0.0,2.1292,2.1568,2.2185,2.2639,2.3215,2.4048,2.5126,2.6172,2.6979,2.7682,2.8124,2.8238,2.845,2.8799,2.9448,2.8999,2.8887,2.9715,2.9616,2.9339,2.9439,2.8761,2.8111,2.7512,2.7028,2.6193,2.4738,2.4307,2.376,2.271,2.2235,2.2031,2.2031,2.1943,2.1934,2.2139,2.2187,2.2187,2.2187,2.2197,2.2158,3.7513,3.6732,3.6144,3.5545,3.4956,3.3909,3.3759,3.4186,3.3463,3.2579,3.1712,3.0959,2.9955,2.89,2.9176,2.9302,2.934,2.9654,2.9779,2.9779,2.9779,2.9779,2.9779,2.9779,2.9779,2.9779,2.9779,2.9779,2.9779,2.9779,2.9628,2.9315,2.9315,2.9001,2.8436,2.875,2.8888,2.8888,2.865,2.8285,2.772,2.6427,2.5871,2.6059,2.4469,2.374,2.3979,2.3439,2.2857,2.2347,2.2518,2.2184,2.1131,2.0817,2.0541,0.0,0.0,0.0,0.0,0.0,0.0,0.0,0.0,0.0,0.0,0.0,1.9924,2.0263,2.1292,2.1694,2.1119,2.1282,2.1518,2.1832,2.1845,2.2108,2.2681,2.297,2.3534,2.4662,2.5272,2.5937,2.6839,2.718,2.7469,2.7695,2.7996,2.8398,2.8863,2.8549,2.8398,2.8925,2.8762,2.8524,2.8537,2.8113,2.7631,2.7224,2.6812,2.6168,2.5077,2.4291,2.3545,2.2869,2.2118,2.1592,2.1592,2.1416,2.1349,2.1339,2.1339,2.1476,2.1807,2.1936,2.1846,3.7575,3.7084,3.6606,3.6044,3.542,3.4437,3.4248,3.4492,3.352,3.2717,3.2051,3.0984,3.0244,2.9792,2.9779,2.9779,2.9779,2.9779,2.9779,2.9779,2.9779,2.9779,2.9779,2.9779,2.9779,2.9779,2.9779,2.9779,2.9779,2.9779,2.9779,2.9779,2.9779,2.9779,2.9767,2.9289,2.8925,2.8787,2.8348,2.7846,2.7281,2.5799,2.5222,2.5511,2.396,2.3346,2.3853,2.3308,2.2819,2.2431,2.2782,2.2585,2.1644,2.1106,2.0981,0.0,2.01,0.0,0.0,0.0,0.0,0.0,0.0,0.0,0.0,1.9748,1.9987,1.9911,2.0878,2.1481,2.1481,2.1933,2.2234,2.2297,2.2322,2.2347,2.2422,2.2882,2.3597,2.4575,2.5172,2.5699,2.6172,2.6323,2.6587,2.6942,2.7143,2.7406,2.7758,2.7595,2.7544,2.7959,2.8009,2.7996,2.7984,2.7848,2.7603,2.7274,2.6858,2.6496,2.5771,2.4542,2.3506,2.3108,2.1848,2.0947,2.0947,2.0644,2.0458,2.0439,2.0439,2.0713,2.1416,2.1641,2.1592,3.7059,3.6568,3.6455,3.6044,3.5445,3.4806,3.4374,3.401,3.3357,3.2491,3.1474,3.0419,2.9892,2.9792,2.9779,2.9779,2.9779,2.9779,2.9779,2.9779,2.9779,2.9779,2.9779,2.9779,2.9779,2.9779,2.9779,2.9779,2.9779,2.9779,2.9779,2.9779,2.9779,2.9779,2.9779,0.0,0.0,0.0,2.816,2.7833,2.7293,2.6587,2.5996,2.5586,2.3991,0.0,2.3246,2.2761,2.2594,2.292,2.2619,0.0,0.0,0.0,0.0,0.0,0.0,0.0,0.0,0.0,0.0,0.0,2.1204,2.1016,2.1029,2.1117,2.1018,2.0603,2.1104,2.1481,2.1493,2.1581,2.182,2.2259,2.2322,2.2485,2.2907,2.3477,2.3941,2.413,2.4632,2.4976,2.5159,2.5485,2.5799,2.595,2.6361,2.6663,2.6788,2.7077,2.7306,2.7431,2.7431,2.7431,2.7467,2.6868,2.6445,2.617,2.5874,2.5133,2.4002,2.3161,2.2083,2.1055,2.012,1.9687,1.9687,1.958,1.958,1.9531,1.9578,1.9832,2.0664,2.086,2.083,3.692,0.0,3.6069,3.5642,0.0,3.455,3.401,3.3458,3.2893,3.2026,3.0984,3.0432,3.0055,2.9779,2.9779,2.9942,3.0206,3.0193,3.0206,3.0193,3.0193,3.0055,2.9779,2.9779,2.9779,2.9779,2.9779,2.9779,2.9779,2.9779,2.9779,2.9779,2.9779,2.9779,2.9779,2.9515,2.895,2.8122,2.7846,2.7431,2.6901,2.5845,2.5393,2.5536,0.0,0.0,0.0,0.0,0.0,0.0,0.0,0.0,0.0,0.0,0.0,2.1506,2.1732,2.1895,2.1907,2.2439,2.2611,2.2293,2.2268,2.2071,2.1571,2.1481,2.1395,2.1144,2.133,2.1606,2.187,2.1895,2.2121,2.2606,2.2681,2.2819,2.3083,2.3358,2.3678,2.3966,2.4243,2.4494,2.4763,2.5034,2.5197,2.5234,2.5686,2.5984,2.5808,2.6386,2.6914,2.6914,2.6901,2.6813,2.6527,2.6424,2.5837,2.5283,2.5,2.4447,2.3325,2.23,2.1353,2.0524,1.9816,1.9323,1.9277,1.9277,1.9277,1.9277,1.9277,1.9394,1.9901,2.0136,2.0282,3.6621,3.6157,3.5583,3.5031,3.455,3.4085,3.347,3.2797,0.0,0.0,0.0,3.0468,3.0218,2.9792,2.9779,3.0043,3.0457,3.0482,3.047,3.047,3.047,3.0231,2.9792,2.9779,2.9779,2.9779,2.9779,2.9779,2.9779,2.9779,2.9779,2.9779,2.9779,2.9779,2.9754,2.9214,2.8624,2.8109,2.7657,2.719,2.6625,2.5272,2.4946,2.5757,2.3816,2.312,2.3954,2.3409,2.3095,2.3095,2.3095,2.2895,2.2468,2.246,2.241,2.2322,2.2368,2.2623,2.2945,2.3484,2.3653,2.3133,2.3095,2.2644,2.1581,2.1609,2.1659,2.1631,2.1631,2.1857,2.2397,2.246,2.2606,2.3058,2.3095,2.3095,2.3095,2.3095,2.3308,2.3753,2.3841,2.4004,2.4406,2.4594,2.465,2.47,2.5121,2.5372,2.5146,2.5674,2.6197,2.6311,2.6235,2.6009,2.5674,2.5812,2.564,2.4554,2.4448,2.415,2.3151,2.199,2.1094,2.0604,1.9864,1.9284,1.9079,1.9004,1.9062,1.9062,1.9062,1.9062,1.9092,1.9385,1.9717,3.5696,3.5558,3.5019,3.4512,3.401,3.3935,3.3043,3.1637,3.1549,3.1173,3.0555,3.0118,2.9867,2.9779,2.9779,2.9842,2.9905,2.9905,2.9917,0.0,2.9905,2.9867,2.9792,2.9779,2.9779,2.9779,2.9779,2.9779,2.9779,2.9779,2.9779,2.9779,2.9779,2.9779,2.9741,2.9227,2.8624,2.8122,2.8021,2.772,2.7228,2.6977,2.6688,2.6336,2.5109,2.4305,2.4004,2.3421,2.3095,2.3095,2.3095,2.307,2.2995,2.297,2.2769,2.2385,2.2719,2.2819,2.2443,2.292,2.3195,2.3108,2.3095,2.2644,2.1619,2.192,2.2209,2.2196,2.2196,2.2422,2.2907,2.297,2.2995,2.3083,2.3095,2.3095,2.3095,2.3095,2.3145,2.3246,2.3221,2.3258,2.3446,2.381,2.4117,2.4192,2.4487,2.5021,2.5285,2.5222,2.5272,2.5536,2.5322,2.5059,2.4971,2.4996,2.4853,2.4398,2.4275,2.3851,2.2716,2.1846,2.1016,1.9865,1.9274,1.8763,1.8355,1.8193,1.8296,1.8326,1.8301,1.8271,1.8301,1.8613,1.9036,3.5495,3.5382,3.4638,3.4135,3.3847,3.3244,3.239,3.1386,3.1085,3.067,3.0168,2.9905,2.9779,2.9779,2.9779,2.9955,3.0231,3.0244,3.0244,3.0244,3.0244,3.008,2.9804,2.9779,2.9779,2.9779,2.9779,2.9779,2.9779,2.9779,2.9779,2.9779,2.9779,2.9779,2.9767,2.9528,2.9114,2.8524,2.826,2.7695,2.6914,2.6876,2.66,2.6047,2.5222,2.4675,2.4456,2.3873,2.3602,2.3572,2.3271,2.3095,2.3095,2.3095,2.2995,2.2757,2.2957,2.2995,2.2757,2.2957,2.3095,2.3095,2.3095,2.2895,2.2406,2.2581,2.2732,2.2719,2.2732,2.2832,2.3083,2.3095,2.3095,2.3095,2.3095,2.3095,2.3095,2.3095,2.3095,2.3095,2.3095,2.3095,2.3095,2.3346,2.3496,2.3521,2.376,2.4199,2.4996,2.4437,2.4311,2.5322,2.5398,2.4983,2.4487,2.4612,2.4448,2.3797,2.3624,2.3232,2.232,2.1432,2.0401,1.9679,1.9122,1.8637,1.811,1.8236,1.8279,1.8042,1.8008,1.8008,1.8057,1.834,1.8724,3.534,3.5219,3.4299,3.3834,3.3608,3.2503,3.1775,3.1336,3.0708,3.0181,2.9817,2.9779,2.9779,2.9779,2.9779,3.0018,3.0394,3.0432,3.0419,3.0432,3.0432,3.0206,2.9829,2.9779,2.9779,2.9779,2.9779,2.9779,2.9779,2.9779,2.9779,2.9779,2.9779,2.9779,2.9779,2.9779,2.9503,2.8913,2.8624,2.7946,2.6914,2.6864,2.66,2.5988,2.5485,2.5101,2.4951,2.4469,2.418,2.4167,2.3735,2.3484,2.3496,2.3484,2.3484,2.3484,2.3484,2.3496,2.3484,2.3484,2.3484,2.3484,2.3484,2.3484,2.3484,2.3484,2.3358,2.3158,2.3083,2.3095,2.3095,2.3095,2.3095,2.3095,2.3095,2.3095,2.3095,2.3095,2.3095,2.3095,2.3095,2.3095,2.3095,2.3095,2.312,2.3133,2.3095,2.3534,2.4305,2.381,2.396,2.4745,2.5134,2.4682,2.3954,2.4104,2.3954,2.3105,2.2997,2.274,2.2154,2.1001,2.0064,1.9823,1.9328,1.8774,1.8245,1.8269,1.8371,1.8076,1.8008,1.8008,1.8027,1.8305,1.8529,3.4792,3.4693,3.4091,3.3608,3.3068,3.1964,3.1449,3.126,3.0319,2.9842,2.9792,2.9779,2.9779,2.9779,2.9779,2.9842,2.9892,2.9867,2.988,2.9892,2.9854,2.9842,2.9792,2.9779,2.9779,2.9779,2.9779,2.9779,2.9779,2.9779,2.9779,2.9779,2.9779,2.9779,2.9779,2.9779,2.9503,2.8925,2.939,2.9089,2.8034,2.7946,2.7682,2.7178,2.6625,2.6097,2.5586,2.5021,2.4713,2.4713,2.4682,2.4625,2.4644,2.4612,2.4625,2.46,2.4612,2.4637,2.4625,2.4637,2.4587,2.4637,2.4575,2.4575,2.4575,2.46,2.4173,2.3434,2.3145,2.3195,2.3108,2.317,2.3195,2.3183,2.3195,2.3095,2.3108,2.3095,2.3095,2.3095,2.3133,2.3095,2.312,2.3095,2.3095,2.3095,2.3095,2.3308,2.386,2.3916,2.3766,2.4004,2.3753,2.3434,2.3246,2.3208,2.3217,2.2855,2.2745,2.2586,2.2197,2.1757,2.123,2.0204,1.9791,1.9208,1.8405,1.8076,1.8144,1.8076,1.8008,1.8008,1.8047,1.8305,1.8451,3.3986,3.4173,3.333,3.3077,3.293,3.1876,3.1386,3.1286,3.0256,2.9779,2.9779,2.9779,2.9779,2.9779,2.9779,2.9779,2.9779,2.9779,2.9779,2.9779,2.9779,2.9779,2.9779,2.9779,2.9779,2.9779,2.9779,2.9779,2.9779,2.9779,2.9779,2.9779,2.9779,2.9779,2.9779,2.9779,2.9666,2.9453,2.9666,2.9553,2.9139,2.8762,2.8335,2.7783,2.7266,2.6889,2.654,2.5762,2.5285,2.5259,2.4951,2.48,2.48,2.48,2.48,2.48,2.48,2.48,2.48,2.48,2.48,2.48,2.48,2.48,2.48,2.48,2.4575,2.4211,2.4098,2.4098,2.4086,2.4111,2.4004,2.3735,2.3885,2.3847,2.3158,2.3697,2.3885,2.3271,2.3409,2.3471,2.3183,2.3095,2.3095,2.3095,2.3095,2.3233,2.3434,2.3459,2.3459,2.3434,2.3246,2.3133,2.3095,2.3095,2.3047,2.2939,2.2787,2.2616,2.2451,2.1726,2.1019,2.0624,2.0302,1.9693,1.8707,1.8741,1.8808,1.8438,1.8008,1.8008,1.8008,1.834,1.8451,3.3379,3.3527,3.2742,3.2692,3.3011,3.1863,3.1386,3.1248,3.0256,2.9779,2.9779,2.9779,2.9779,2.9779,2.9779,2.9779,2.9779,2.9779,2.9779,2.9779,2.9779,2.9779,2.9779,2.9779,2.9779,2.9779,2.9779,2.9779,2.9779,2.9779,2.9779,2.9779,2.9779,2.9779,2.9779,2.9779,2.9779,2.9779,2.9779,2.9779,2.9716,2.9377,2.89,2.8348,2.7795,2.7444,2.7304,2.6386,2.5837,2.5824,2.5473,2.5272,2.5272,2.5272,2.5272,2.5272,2.5272,2.5272,2.5272,2.5272,2.5272,2.5259,2.5272,2.5272,2.5272,2.5272,2.5272,2.5272,2.5272,2.5197,2.4813,2.48,2.46,2.4305,2.4575,2.4431,2.3772,2.4362,2.4387,2.3572,2.3728,2.3747,2.3258,2.3095,2.3095,2.3095,2.3095,2.3095,2.3095,2.3133,2.312,2.3095,2.3108,2.3108,2.3095,2.3095,2.3095,2.3078,2.2939,2.2848,2.28,2.1932,2.1178,2.1135,2.0848,2.0302,1.9396,1.9363,1.9594,1.8865,1.8438,1.8269,1.8313,1.8567,1.876,3.3256,3.3126,3.2653,3.2705,3.298,3.1888,3.1386,3.1323,3.0269,2.9792,2.9792,2.9779,2.9779,2.9779,2.9779,2.9779,2.9779,2.9779,2.9779,2.9779,2.9779,2.9779,2.9779,2.9779,2.9779,2.9779,2.9779,2.9779,2.9779,2.9779,2.9779,2.9779,2.9779,2.9779,2.9779,2.9779,2.9779,2.9779,2.9779,2.9779,2.9779,2.9754,2.9453,2.89,2.836,2.7846,2.7379,2.6776,2.6449,2.6461,2.6386,2.6373,2.6386,2.6373,2.6348,2.6361,2.6373,2.6386,2.6348,2.6323,2.6323,2.6361,2.6285,2.6373,2.626,2.626,2.626,2.6373,2.6273,2.59,2.5109,2.5021,2.4933,2.4788,2.482,2.4833,2.4687,2.4763,2.4537,2.4104,2.4029,2.3891,2.3271,2.3095,2.317,2.317,2.3133,2.3095,2.3095,2.3095,2.3095,2.3095,2.3095,2.3095,2.3095,2.3095,2.3095,2.3065,2.3047,2.3047,2.2957,2.2744,2.2149,2.1651,2.14,2.088,2.0074,1.9813,2.0031,1.9639,1.9065,1.8831,1.8607,1.9013,1.919,3.2759,3.2707,3.2784,3.2959,3.2993,3.224,3.1725,3.1336,3.0633,3.0118,2.9829,2.9779,2.9779,2.9779,2.9779,2.9779,2.9779,2.9779,2.9779,2.9779,2.9779,2.9779,2.9779,2.9779,2.9779,2.9779,2.9779,2.9779,2.9779,2.9779,2.9779,2.9779,2.9779,2.9779,2.9779,2.9779,2.9779,2.9779,2.9779,2.9779,2.9779,2.9779,2.9679,2.9465,2.8925,2.8499,2.8348,2.7469,2.7027,2.6979,2.67,2.6487,2.6487,2.6487,2.6487,2.6487,2.6487,2.6487,2.6487,2.6487,2.6487,2.6487,2.6487,2.6512,2.6487,2.6487,2.6487,2.6499,2.6487,2.6248,2.6059,2.5875,2.5711,2.5435,2.5636,2.5548,2.5159,2.5398,2.5536,2.477,2.4487,2.4418,2.4136,2.3885,2.3703,2.3653,2.3346,2.3183,2.312,2.3108,2.3158,2.3108,2.3095,2.3095,2.3095,2.3095,2.3095,2.3095,2.3095,2.3078,2.3047,2.2878,2.2359,2.2192,2.1944,2.1526,2.072,2.0139,2.0323,2.0107,1.9561,1.9407,1.8852,1.9454,1.9573,3.2618,3.2493,3.2951,3.312,3.3031,3.2453,3.1901,3.1348,3.0846,3.0306,2.9854,2.9779,2.9779,2.9779,2.9779,2.9779,2.9779,2.9779,2.9779,2.9779,2.9779,2.9779,2.9779,2.9779,2.9779,2.9779,2.9779,2.9779,2.9779,2.9779,2.9779,2.9779,2.9779,2.9779,2.9779,2.9779,2.9779,2.9779,2.9779,2.9779,2.9779,2.9779,2.9779,2.9729,2.9402,2.9063,2.8888,2.7871,2.7329,2.7253,2.6788,2.6487,2.6487,2.6487,2.6487,2.6487,2.6487,2.6487,2.6487,2.6487,2.6575,2.6751,2.6776,2.6813,2.6964,2.6864,2.6763,2.6738,2.6562,2.6487,2.6487,2.6474,2.6323,2.6021,2.626,2.621,2.5511,2.6047,2.5971,2.5259,2.485,2.48,2.4763,2.4481,2.4293,2.4268,2.3904,2.3672,2.3647,2.3647,2.3547,2.3477,2.3609,2.3471,2.3358,2.3296,2.3246,2.3221,2.3108,2.3095,2.3078,2.2909,2.2769,2.2647,2.2389,2.2006,2.142,2.0752,2.0474,2.0345,2.0367,2.0313,2.0079,2.0031,2.0093,3.2972,3.2575,3.2995,3.3157,3.3043,3.2516,3.1938,3.1424,3.0896,3.0394,2.993,2.9804,2.9779,2.9779,2.9779,2.9779,2.9779,2.9779,2.9779,2.9779,2.9779,2.9779,2.9779,2.9779,2.9779,2.9779,2.9779,2.9779,2.9779,2.9779,2.9779,2.9779,2.9779,2.9779,2.9779,2.9779,2.9779,2.9779,2.9779,2.9779,2.9779,2.9779,2.9779,2.9779,2.9741,2.949,2.8938,2.7946,2.748,2.7344,2.6901,2.6549,2.6637,2.6637,2.6575,2.6637,2.6575,2.6549,2.6587,2.6625,2.6901,2.7216,2.7329,2.7482,2.7733,2.7482,2.7241,2.7165,2.6788,2.6487,2.6487,2.6487,2.6461,2.6487,2.6474,2.6424,2.6411,2.6449,2.6285,2.5686,2.5285,2.4876,2.4838,2.4825,2.482,2.4763,2.4662,2.4562,2.4512,2.4499,2.4481,2.4243,2.4205,2.4123,2.3822,2.3565,2.3477,2.3358,2.3195,2.3095,2.3095,2.2987,2.2939,2.2818,2.2757,2.2377,2.2049,2.1474,2.1474,2.1391,2.1383,2.1243,2.1174,2.1009,2.0839,3.3157,3.2951,3.3134,3.3154,3.3063,3.288,3.2491,3.1913,3.1386,3.0846,3.0357,2.9955,2.9779,2.9792,2.9779,2.9779,2.9779,2.9779,2.9779,2.9779,2.9779,2.9779,2.9779,2.9779,2.9779,2.9779,2.9779,2.9792,2.9804,2.9804,2.9779,2.9779,2.9792,2.9779,2.9779,2.9779,2.9779,2.9779,2.9779,2.9779,2.9779,2.9779,2.9779,2.9779,2.9779,2.9691,2.949,2.8812,2.8399,2.8386,2.7896,2.7595,2.7582,2.7595,2.7582,2.7595,2.7595,2.7595,2.7595,2.7582,2.7607,2.7808,2.7846,2.7921,2.8021,2.7645,2.7379,2.7291,2.6826,2.6487,2.6487,2.6487,2.6487,2.6487,2.6487,2.6487,2.6487,2.6487,2.6424,2.6273,2.6084,2.5963,2.5862,2.5695,2.536,2.5322,2.5096,2.4908,2.4838,2.4946,2.4775,2.4587,2.4713,2.475,2.4374,2.4186,2.4217,2.3904,2.3547,2.3308,2.3246,2.3095,2.3017,2.2957,2.2909,2.2757,2.2432,2.2308,2.2219,2.2145,2.1918,2.1911,2.201,2.1981,2.1872,3.3404,3.3238,3.3387,3.3314,3.3119,3.3124,3.2742,3.2215,3.1851,3.1399,3.0859,3.0331,3.0105,3.0055,2.9892,2.9792,2.9779,2.9779,2.9779,2.9779,2.9779,2.9779,2.9779,2.9779,2.9779,2.9842,3.0005,3.0105,3.0105,3.0105,3.0093,3.0093,2.9905,2.9779,2.9779,2.9779,2.9779,2.9779,2.9779,2.9779,2.9779,2.9779,2.9779,2.9779,2.9779,2.9779,2.9767,2.9428,2.9151,2.885,2.8398,2.8122,2.8109,2.8097,2.8109,2.8109,2.8109,2.8097,2.8109,2.8047,2.8222,2.8348,2.8411,2.8536,2.8561,2.8222,2.7846,2.7557,2.7105,2.6725,2.6537,2.6487,2.6487,2.6487,2.6487,2.6487,2.6487,2.6487,2.6487,2.6449,2.6449,2.6487,2.6386,2.6248,2.5959,2.5896,2.5649,2.5435,2.5423,2.546,2.5347,2.5297,2.5423,2.5285,2.4863,2.4825,2.4971,2.4499,2.3985,2.3735,2.3559,2.3246,2.3078,2.2987,2.2939,2.28,2.2506,2.2681,2.2708,2.2573,2.2657,2.3103,2.3373,2.3228,2.305,3.3623,3.3248,3.3603,3.3489,3.3131,3.3124,3.2792,3.234,3.219,3.1888,3.1399,3.0884,3.062,3.0482,3.0105,2.9892,2.9792,2.9779,2.9779,2.9817,2.9854,2.988,2.9804,2.988,2.9942,2.998,3.0407,3.0633,3.0658,3.0645,3.0658,3.0608,3.0244,2.988,2.9942,2.9854,2.9867,2.9792,2.9779,2.9779,2.9779,2.9779,2.9779,2.9779,2.9779,2.9779,2.9767,2.9716,2.9503,2.8976,2.8586,2.8373,2.826,2.821,2.8323,2.836,2.8247,2.831,2.826,2.8386,2.8524,2.8888,2.9001,2.9189,2.9465,2.9038,2.8549,2.8172,2.7645,2.7153,2.6725,2.6612,2.6587,2.6499,2.6487,2.6487,2.6487,2.6487,2.6487,2.6487,2.6487,2.6487,2.6487,2.6449,2.6424,2.6411,2.6348,2.6285,2.6273,2.6135,2.6122,2.6097,2.6034,2.5871,2.5473,2.5511,2.5598,2.5347,2.477,2.4356,2.4054,2.3684,2.3496,2.3367,2.3193,2.296,2.2948,2.3235,2.345,2.3506,2.3882,2.4505,2.4597,2.4357,2.4059,3.2781,3.2649,3.2762,3.2913,3.3075,3.3124,3.3036,3.2792,3.239,3.2164,3.1888,3.1424,3.0984,3.062,3.047,3.0193,2.9867,2.9804,2.9779,2.9854,3.0244,3.0131,2.9967,3.0218,3.0394,3.0444,3.0909,3.1198,3.1185,3.1185,3.1185,3.1185,3.0997,3.0721,3.0457,3.0394,3.0168,2.9842,2.9804,2.9792,2.9779,2.9779,2.9779,2.9779,2.9779,2.9779,2.9779,2.9779,2.9741,2.9591,2.9453,2.9365,2.9277,2.9277,2.9252,2.9252,2.9289,2.9315,2.9302,2.9289,2.9402,2.9541,2.9503,2.9628,2.9741,2.9264,2.8863,2.8612,2.821,2.767,2.7205,2.7115,2.6939,2.6562,2.6537,2.6524,2.6487,2.6487,2.6487,2.6487,2.6487,2.6487,2.6487,2.6487,2.6487,2.6487,2.6487,2.6487,2.6487,2.6474,2.6323,2.6373,2.6336,2.6285,2.621,2.6235,2.6223,2.6122,2.5624,2.5059,2.4757,2.4412,2.4374,2.4355,2.4098,2.386,2.4014,2.4236,2.4325,2.4357,2.4521,2.4839,2.5191,2.5193,2.4941,3.2659,3.247,3.2654,3.2763,3.2816,3.2982,3.3124,3.3061,3.2742,3.2591,3.2453,3.1976,3.1436,3.0972,3.0934,3.0507,2.988,3.003,3.0018,2.9892,3.0344,3.0407,3.0331,3.0683,3.0834,3.0721,3.1386,3.17,3.1738,3.1738,3.1738,3.1675,3.1499,3.1223,3.0972,3.0922,3.067,3.0244,3.0131,3.0055,2.9817,2.9779,2.9779,2.9779,2.9779,2.9779,2.9779,2.9779,2.9779,2.9779,2.9779,2.9779,2.9779,2.9779,2.9779,2.9779,2.9779,2.9767,2.9779,2.9779,2.9779,2.9779,2.9779,2.9779,2.9754,2.9453,2.9252,2.8888,2.8624,2.821,2.777,2.7632,2.7369,2.6989,2.6839,2.6738,2.6537,2.6487,2.6487,2.6487,2.6487,2.6487,2.6487,2.6487,2.6487,2.6487,2.6487,2.6487,2.6487,2.6487,2.6487,2.6487,2.6524,2.6461,2.6449,2.6474,2.66,2.6537,2.6235,2.5674,2.5423,2.5109,2.4895,2.4838,2.4813,2.4838,2.4861,2.4916,2.4991,2.504,2.5054,2.5232,2.5619,2.5837,2.561,3.2936,3.2547,3.3025,3.2916,3.2605,3.2971,3.3156,3.3124,3.3086,3.3031,3.293,3.2516,3.2001,3.1486,3.1336,3.0834,2.9942,3.0218,3.0206,3.0193,3.047,3.0721,3.0771,3.1235,3.126,3.1122,3.1851,3.2227,3.2315,3.2303,3.2303,3.2227,3.1863,3.1574,3.1499,3.1461,3.116,3.0658,3.052,3.0256,2.9892,2.9779,2.9779,2.9779,2.9779,2.9856,2.9895,2.9856,2.983,2.9895,2.983,2.9792,2.9779,2.9779,2.9779,2.9779,2.9779,2.9779,2.9779,2.9779,2.9779,2.9779,2.9779,2.9779,2.9767,2.9704,2.9528,2.9164,2.9001,2.8712,2.8298,2.8147,2.777,2.7366,2.7266,2.704,2.665,2.6487,2.6487,2.6487,2.6487,2.6487,2.6487,2.6487,2.6487,2.6487,2.6487,2.6487,2.6487,2.6487,2.6487,2.6487,2.6537,2.66,2.6625,2.6663,2.6813,2.6876,2.6562,2.6197,2.6013,2.5699,2.5297,2.5159,2.5423,2.5435,2.5289,2.5402,2.5565,2.5703,2.5749,2.59,2.6092,2.6183,2.6099,3.2547,3.2498,3.2962,3.3099,3.3033,3.3477,3.3458,3.3124,3.3124,3.3124,3.3086,3.2973,3.2554,3.2001,3.1599,3.1022,3.0432,3.0269,3.0093,3.0505,3.0972,3.1198,3.1336,3.1775,3.1938,3.1976,3.2516,3.2855,3.291,3.2872,3.2923,3.286,3.2654,3.2478,3.2089,3.2001,3.1537,3.0809,3.0645,3.0382,2.9942,2.9792,2.9779,2.9779,2.9779,3.0024,3.0241,3.0037,3.0037,3.0203,3.0037,2.9779,2.9779,2.9779,2.9779,2.9779,2.9779,2.9779,2.9779,2.9779,2.9779,2.9779,2.9779,2.9779,2.9779,2.9779,2.9729,2.9603,2.9591,2.9289,2.88,2.8348,2.7984,2.7595,2.7392,2.7165,2.665,2.6499,2.6487,2.6487,2.6487,2.6487,2.6487,2.6487,2.6487,2.6487,2.6487,2.6487,2.6499,2.6512,2.6612,2.6675,2.6801,2.6927,2.7052,2.7092,2.7281,2.7306,2.704,2.6876,2.6691,2.654,2.6214,2.6147,2.6185,2.6109,2.595,2.5984,2.6138,2.6311,2.6436,2.6521,2.6564,2.6603,2.6678,3.237,3.217,3.2641,3.269,3.2593,3.3196,3.3345,3.3162,3.3124,3.3124,3.3124,3.3124,3.2754,3.2215,3.1901,3.1486,3.1022,3.0708,3.0708,3.1072,3.1512,3.1763,3.1901,3.2252,3.2528,3.2378,3.2792,3.3099,3.3124,3.3124,3.3099,3.3124,3.3124,3.2893,3.2667,3.2591,3.219,3.1512,3.1085,3.0721,3.0256,2.9905,2.9779,2.9779,2.9779,2.996,3.0139,2.996,2.996,3.0062,2.996,2.9779,2.9779,2.9779,2.9779,2.9779,2.9779,2.9779,2.9779,2.9779,2.9779,2.9779,2.9779,2.9779,2.9779,2.9779,2.9779,2.9779,2.9754,2.9628,2.9352,2.9151,2.8637,2.816,2.7821,2.7568,2.7266,2.6826,2.6487,2.6487,2.6487,2.6487,2.6487,2.66,2.6524,2.6549,2.6487,2.6499,2.665,2.6688,2.6914,2.7027,2.7165,2.7304,2.7431,2.762,2.7858,2.7833,2.7632,2.7595,2.757,2.7419,2.7256,2.7153,2.6977,2.6864,2.6751,2.6751,2.6713,2.6839,2.6952,2.704,2.7178,2.7318,2.7406,3.2326,3.2052,3.2351,3.228,3.2083,3.2885,3.3194,3.3124,3.3124,3.3124,3.3124,3.3124,3.2817,3.2403,3.2089,3.175,3.1373,3.1336,3.1273,3.1361,3.1876,3.2077,3.2265,3.2629,3.2817,3.2441,3.2842,3.3111,3.3124,3.3124,3.3124,3.3124,3.3124,3.3074,3.3099,3.3086,3.2692,3.2064,3.1687,3.126,3.0733,3.0244,2.9967,2.9779,2.9779,2.9895,2.9998,2.9934,2.9869,2.9895,2.9869,2.9792,2.9779,2.9779,2.9779,2.9779,2.9779,2.9779,2.9779,2.9779,2.9779,2.9779,2.9779,2.9779,2.9779,2.9779,2.9779,2.9779,2.9779,2.9779,2.9779,2.9654,2.939,2.895,2.8461,2.8235,2.7946,2.7231,2.6952,2.6851,2.7014,2.7077,2.6927,2.6901,2.6738,2.66,2.6562,2.6587,2.6763,2.6952,2.719,2.7568,2.7733,2.816,2.8373,2.7908,2.8172,2.8436,2.8273,2.826,2.831,2.821,2.8021,2.7833,2.767,2.7519,2.7356,2.7291,2.7291,2.7404,2.7467,2.7494,2.7745,2.8072,2.8059,3.2665,3.2968,3.3022,3.2967,3.2938,3.3526,3.3458,3.3162,3.3124,3.3124,3.3124,3.3124,3.3061,3.2717,3.1876,3.1286,3.1122,3.1361,3.1524,3.1612,3.2039,3.229,3.2416,3.2817,3.298,3.3036,3.3099,3.3124,3.3124,3.3124,3.3162,3.3136,3.3124,3.3124,3.3174,3.3099,3.2817,3.239,3.2089,3.1725,3.1273,3.0696,3.0168,2.9854,2.9779,2.9998,3.0203,3.0024,2.9998,3.0368,3.0037,2.9818,2.9779,2.9779,2.9779,2.9779,2.9779,2.9779,2.9779,2.9779,2.9779,2.9779,2.9779,2.9779,2.9779,2.9779,2.9779,2.9779,2.9779,2.9779,2.9779,2.9779,2.9528,2.9101,2.8787,2.8624,2.8247,2.7946,2.7808,2.7821,2.7833,2.7708,2.7482,2.7306,2.7241,2.7115,2.7002,2.7065,2.7193,2.7356,2.7557,2.7984,2.8423,2.8938,2.9428,2.8674,2.8423,2.895,2.8963,2.8837,2.8875,2.885,2.8725,2.8536,2.8273,2.8034,2.7896,2.777,2.7821,2.7921,2.7959,2.7996,2.831,2.8574,2.8398,3.2367,3.2745,3.2519,3.2535,3.2769,3.2989,3.3115,3.3106,3.3124,3.3124,3.3124,3.3124,3.3124,3.2898,3.224,3.1675,3.1625,3.2001,3.224,3.2365,3.2541,3.2667,3.2629,3.3023,3.3086,3.3124,3.3124,3.3124,3.3124,3.3124,3.33,3.3407,3.33,3.325,3.3345,3.3206,3.2955,3.2629,3.2378,3.2102,3.175,3.1085,3.0382,2.9955,2.9804,2.9921,3.0024,2.9998,2.9934,3.0062,2.9921,2.9818,2.9779,2.9779,2.9779,2.9779,2.9818,2.9792,2.9779,2.9779,2.9779,2.9779,2.9779,2.9779,2.9779,2.9779,2.9779,2.9779,2.9779,2.9779,2.9779,2.9779,2.9641,2.9415,2.9113,2.8938,2.885,2.865,2.8699,2.8737,2.836,2.8109,2.7984,2.7846,2.7745,2.7607,2.7431,2.7507,2.767,2.7871,2.8072,2.8473,2.8875,2.9164,2.9628,2.9252,2.8775,2.9239,2.9478,2.9365,2.934,2.9315,2.9302,2.9202,2.8913,2.8574,2.8398,2.8273,2.8373,2.8473,2.8511,2.8612,2.8888,2.9001,2.8863,3.1957,3.2237,3.1889,3.1954,3.2391,3.2524,3.2779,3.3081,3.3124,3.3124,3.3124,3.3124,3.3124,3.2998,3.2641,3.2328,3.2303,3.2754,3.3011,3.3023,3.3048,3.3056,3.3111,3.3124,3.3124,3.3124,3.3124,3.3131,3.3294,3.3363,3.3583,3.3784,3.352,3.342,3.3696,3.3363,3.3199,3.2973,3.2667,3.2378,3.2014,3.1399,3.0595,3.0057,3.0059,3.0163,3.0088,3.0254,3.0152,3.0139,2.9985,2.9921,2.9818,2.9779,2.9779,2.9818,2.9895,2.9895,2.983,2.9998,2.9998,2.983,2.9779,2.9779,2.9779,2.9779,2.9779,2.9779,2.9779,2.9779,2.9779,2.9779,2.9779,2.9691,2.9402,2.9176,2.9415,2.9402,2.9315,2.9151,2.875,2.8637,2.8624,2.8373,2.8285,2.8122,2.7959,2.8021,2.8185,2.8473,2.8712,2.9051,2.9327,2.9365,2.9578,2.9679,2.939,2.9528,2.9666,2.9603,2.9654,2.9691,2.9641,2.9541,2.9415,2.9089,2.8913,2.8825,2.8963,2.9051,2.9076,2.9164,2.934,2.9453,2.9402,3.1774,3.1757,3.1744,3.197,3.2418,3.2779,3.3025,3.3081,3.3124,3.3124,3.3124,3.3124,3.3111,3.3036,3.2993,3.2667,3.2516,3.278,3.3124,3.3124,3.3124,3.3124,3.3124,3.3124,3.3124,3.3124,3.3124,3.3426,3.3608,3.3721,3.4085,3.4387,3.4123,3.3897,3.4048,3.352,3.3136,3.3124,3.3006,3.2704,3.2265,3.2043,3.148,3.0958,3.0918,3.1035,3.07,3.0849,3.0846,3.0469,3.0431,3.0241,2.9895,2.9779,2.9779,2.9921,3.0126,3.0292,3.0024,3.0203,3.0266,2.9972,2.983,2.9779,2.9779,2.9779,2.9779,2.9779,2.9779,2.9779,2.9779,2.9779,2.9779,2.9767,2.9666,2.9603,2.9729,2.9691,2.9654,2.9641,2.9252,2.9365,2.9453,2.9114,2.8775,2.8649,2.8536,2.8599,2.8712,2.8976,2.9151,2.9428,2.9541,2.9591,2.9603,2.9691,2.9729,2.9779,2.9779,2.9779,2.9779,2.9779,2.9779,2.9679,2.9603,2.9566,2.9415,2.9402,2.9553,2.9541,2.9453,2.9541,2.9704,2.9779,2.9779,3.1495,3.1717,3.1725,3.197,3.2374,3.2605,3.2865,3.3081,3.3124,3.3124,3.3124,3.3124,3.2918,3.2754,3.2893,3.2754,3.2441,3.2842,3.3111,3.3162,3.3162,3.3136,3.3124,3.3124,3.3124,3.3124,3.3187,3.3382,3.3734,3.3997,3.4286,3.4931,3.4675,3.4575,3.4562,3.3935,3.3646,3.347,3.3232,3.2767,3.2437,3.2485,3.2373,3.1661,3.1876,3.1832,3.1683,3.1076,3.0921,3.0532,3.0368,3.0062,2.9856,2.9818,2.9895,3.0305,3.0822,3.0809,3.0406,3.0545,3.0444,3.0228,2.9998,2.9779,2.9779,2.9779,2.9779,2.9779,2.9779,2.9779,2.9779,2.9779,2.9779,2.9779,2.9779,2.9779,2.9779,2.9779,2.9754,2.9779,2.9779,2.9779,2.9779,2.9553,2.9289,2.9227,2.9151,2.9214,2.9289,2.944,2.9578,2.9679,2.9729,2.9741,2.9729,2.9767,2.9754,2.9779,2.9779,2.9779,2.9779,2.9779,2.9779,2.9779,2.9716,2.9729,2.9779,2.9754,2.9691,2.9729,2.9779,2.9779,2.9779,2.9779,2.9779,3.0983,3.1306,3.1484,3.1805,3.2213,3.2344,3.2705,3.3081,3.3124,3.3124,3.3124,3.3111,3.283,3.2591,3.288,3.2943,3.2729,3.3093,3.3345,3.342,3.3345,3.3319,3.3325,3.3275,3.3124,3.3136,3.3307,3.3533,3.3822,3.4148,3.4605,3.5408,3.4643,3.4831,3.5006,3.4462,3.3834,3.3796,3.3319,3.288,3.2626,3.2873,3.2757,3.2512,3.2423,3.253,3.2519,3.1747,3.1132,3.1069,3.065,3.0303,2.9919,2.9818,2.9934,3.0343,3.0921,3.1244,3.102,3.102,3.0871,3.0545,3.0126,2.9779,2.9779,2.9779,2.9779,2.9779,2.9779,2.9779,2.9779,2.9779,2.9779,2.9779,2.9779,2.9779,2.9779,2.9779,2.9779,2.9779,2.9779,2.9779,2.9779,2.9779,2.9741,2.9754,2.9779,2.9779,2.9779,2.9767,2.9767,2.9779,2.9779,2.9779,2.9779,2.9779,2.9779,2.9779,2.9779,2.9779,2.9779,2.9779,2.9779,2.9779,2.9779,2.9779,2.9779,2.9779,2.9779,2.9779,2.9779,2.9779,2.9779,2.9779,2.9779,3.0296,3.0352,3.0769,3.1273,3.1805,3.2213,3.2649,3.3068,3.3081,3.3056,3.3036,3.3111,3.3074,3.3006,3.3068,3.3413,3.3734,3.3822,3.4073,3.4198,3.4123,3.3796,3.3608,3.3388,3.3136,3.3156,3.337,3.3658,3.3935,3.411,3.4731,3.5307,3.4655,3.4864,3.4893,3.4542,3.3997,3.3822,3.3357,3.3136,3.2986,3.3085,3.2928,3.2544,3.2435,3.2593,3.3152,3.2471,3.2051,3.2051,3.1358,3.0687,3.0083,2.9842,2.9908,3.0279,3.0996,3.1368,3.1479,3.17,3.1539,3.0809,3.0126,2.9779,2.9779,2.9779,2.9779,2.9779,2.9779,2.9779,2.9779,2.9779,2.9779,2.9779,2.9779,2.9779,2.9779,2.9779,2.9779,2.9779,2.9779,2.9779,2.9779,2.9779,2.9779,2.9779,2.9779,2.9779,2.9779,2.9779,2.9779,2.9779,2.9779,2.9779,2.9779,2.9779,2.9779,2.9779,2.9779,2.9779,2.9779,2.9779,2.9779,2.9779,2.9779,2.9779,2.9779,2.9779,2.9779,2.9779,2.9779,2.9779,2.9779,2.9779,2.9779,3.0216,3.0216,3.0397,3.0949,3.1705,3.2213,3.2649,3.2995,3.2779,3.2653,3.2604,3.288,3.288,3.2817,3.3357,3.3684,3.3947,3.4299,3.455,3.4462,3.4211,3.3947,3.3709,3.347,3.3136,3.3156,3.3357,3.3395,3.3407,3.3784,3.4035,3.4299,3.4575,3.5082,3.5119,3.4768,3.4336,3.3822,3.342,3.3136,3.3197,3.3526,3.3617,3.3465,3.3407,3.3489,3.3643,3.2803,3.2502,3.2176,3.1472,3.0837,3.0298,2.9994,2.9985,3.0266,3.1071,3.1553,3.1932,3.2151,3.1809,3.0809,3.0126,2.9779,2.9779,2.9779,2.9779,2.9779,2.9779,2.9779,2.9779,2.9779,2.9779,2.9779,2.9779,2.9779,2.9779,2.9779,2.9779,2.9779,2.9779,2.9779,2.9779,2.9779,2.9779,2.9779,2.9779,2.9779,2.9779,2.9779,2.9779,2.9779,2.9779,2.9779,2.9779,2.9779,2.9804,2.9792,2.9804,2.9829,2.9842,2.9779,2.9779,2.9779,2.9779,2.9779,2.9779,2.9779,2.9779,2.9779,2.9779,2.9779,2.9779,2.9779,2.9779,3.0216,3.0261,3.0532,3.0937,3.1484,3.1994,3.2475,3.2822,3.2736,3.258,3.2503,3.2893,3.2993,3.3006,3.3458,3.4186,3.4417,3.4768,3.5052,3.4939,3.4625,3.4311,3.4098,3.3784,3.3451,3.3357,3.3495,3.3596,3.3187,3.3244,3.3508,3.3947,3.4537,3.5002,3.5395,3.5119,3.4688,3.4148,3.3646,3.3206,3.323,3.3496,3.3727,3.3614,3.3409,3.3672,3.3514,3.2971,3.2351,3.2024,3.1503,3.0882,3.0462,3.0212,3.0177,3.0595,3.1132,3.17,3.1992,3.2028,3.1736,3.102,3.0177,2.9895,2.9779,2.9779,2.9779,2.9779,2.9779,2.9779,2.9779,2.9779,2.9779,2.9779,2.9779,2.9779,2.9779,2.9779,2.9779,2.9779,2.9779,2.9779,2.9792,2.9792,2.9804,2.9804,2.9779,2.9779,2.9779,2.9779,2.9779,2.9779,2.9779,2.9779,2.9779,3.0005,3.0168,2.9892,2.9905,2.993,2.9917,2.9867,2.9804,2.9779,2.9779,2.9779,2.9779,2.9779,2.9779,2.9779,2.9779,2.9779,2.9779,2.9779,2.9779,3.0216,3.0306,3.1205,3.135,3.1116,3.1528,3.2025,3.2562,3.2865,3.2963,3.2893,3.3074,3.3307,3.3608,3.3847,3.4474,3.5094,3.5345,3.5571,3.5667,3.4989,3.4956,3.4781,3.4399,3.3822,3.3997,3.4035,3.3771,3.3136,3.3395,3.3445,3.342,3.3922,3.4638,3.5395,3.5458,3.5157,3.4688,3.4098,3.3508,3.3224,3.324,3.3255,3.321,3.2931,3.3212,3.3435,3.2985,3.2495,3.2339,3.1797,3.1211,3.0726,3.0225,3.0151,3.0482,3.1132,3.1502,3.1626,3.1589,3.1553,3.1281,3.047,2.9972,2.9818,2.9779,2.9779,2.9779,2.9779,2.9779,2.9779,2.9779,2.9779,2.9779,2.9779,2.9779,2.9779,2.9779,2.9779,2.9779,2.9779,2.9792,2.9804,2.9817,2.9829,2.9817,2.9792,2.9792,2.9792,2.9792,2.9792,2.9867,2.9892,3.003,3.0131,3.0432,3.0495,3.0193,3.008,3.0181,3.0093,2.9967,2.9905,2.9829,2.9779,2.9779,2.9779,2.9779,2.9779,2.9779,2.9779,2.9779,2.9779,2.9779,2.9779,3.0397,3.0668,3.1038,3.1261,3.1484,3.1937,3.2419,3.2822,3.3,3.2867,3.2654,3.288,3.3187,3.3483,3.4123,3.4763,3.5357,3.5495,3.5708,3.5692,3.5014,3.4843,3.4768,3.4618,3.4248,3.4022,3.4073,3.3922,3.3124,3.3357,3.3294,3.3287,3.3658,3.4487,3.5094,3.5219,3.4793,3.4562,3.3897,3.3244,3.3162,3.3124,3.3096,3.3068,3.2869,3.3026,3.3463,3.2874,3.2752,3.2682,3.2118,3.1637,3.1156,3.0612,3.0248,3.0445,3.091,3.1919,3.2259,3.2417,3.1882,3.1405,3.0859,3.0216,2.9895,2.9779,2.9779,2.9779,2.9779,2.9779,2.9779,2.9779,2.9779,2.9779,2.9779,2.9779,2.9779,2.9779,2.9779,2.9779,2.9779,2.9829,2.9854,3.008,3.0143,3.0093,3.0093,2.988,2.9817,2.9804,2.9817,2.9967,3.0068,3.0256,3.0482,3.0859,3.0871,3.0557,3.0532,3.0633,3.047,3.0256,3.0068,3.0018,2.9892,2.9792,2.9854,2.9892,2.9817,2.9779,2.9779,2.9779,2.9779,2.9779,2.9779,3.0487,3.088,3.087,3.1272,3.1925,3.2257,3.2649,3.3038,3.3111,3.2842,3.2667,3.2943,3.3219,3.3508,3.3909,3.4781,3.5357,3.5044,3.5357,3.5282,3.4751,3.4743,3.4843,3.4768,3.4643,3.4374,3.4186,3.3935,3.342,3.3169,3.3136,3.3262,3.3621,3.4198,3.4718,3.4818,3.5031,3.4793,3.4286,3.3684,3.3445,3.3232,3.3124,3.3129,3.3086,3.3142,3.3111,3.3099,3.2968,3.2754,3.2403,3.2075,3.1587,3.1017,3.0615,3.0675,3.1026,3.2009,3.2489,3.2863,3.2299,3.1529,3.1108,3.057,3.0075,3.0024,2.9921,2.9895,2.9818,2.9779,2.9779,2.9779,2.9779,2.9779,2.9779,2.9779,2.9792,2.9792,2.9817,2.9804,2.9842,2.988,3.0043,3.0294,3.052,3.0457,3.0394,3.0168,2.998,3.0018,3.008,3.0231,3.0482,3.0758,3.1047,3.1386,3.1286,3.0934,3.1047,3.126,3.0972,3.0771,3.0482,3.0281,3.0407,3.0407,3.0131,3.003,2.9917,2.9829,2.9779,2.9779,2.9779,2.9779,2.9779,3.0441,3.0819,3.0818,3.138,3.2209,3.2259,3.2581,3.3111,3.3124,3.3099,3.3111,3.3086,3.3194,3.3558,3.3332,3.3935,3.4818,3.4274,3.458,3.4843,3.4387,3.468,3.4931,3.4969,3.5006,3.5094,3.4856,3.4261,3.3847,3.3319,3.3124,3.3212,3.352,3.3909,3.4299,3.47,3.5006,3.4756,3.4525,3.3947,3.3571,3.337,3.3206,3.3131,3.3124,3.3124,3.3124,3.3111,3.2817,3.2554,3.224,3.2206,3.1871,3.1217,3.1186,3.1306,3.1448,3.1793,3.2473,3.2905,3.2653,3.1951,3.176,3.0962,3.0241,3.0062,3.0037,2.9895,2.9779,2.9779,2.9779,2.9779,2.9779,2.9779,2.9779,2.9792,2.9804,2.9817,2.9842,2.988,2.9917,3.0055,3.0407,3.0683,3.1035,3.0997,3.0934,3.0771,3.0608,3.0557,3.0633,3.0721,3.0984,3.1336,3.1637,3.1913,3.1825,3.1524,3.1851,3.2014,3.1675,3.1273,3.1072,3.0972,3.1148,3.1072,3.0708,3.0331,3.0018,2.9955,3.0043,2.9779,2.9779,2.9779,2.9779,2.9702,2.9863,3.015,3.0694,3.1238,3.1597,3.2231,3.3061,3.3124,3.3124,3.3124,3.3124,3.2905,3.2704,3.2955,3.3345,3.3508,3.3596,3.3834,3.3922,3.3935,3.4387,3.4763,3.5019,3.5282,3.5232,3.4906,3.4399,3.3884,3.3345,3.3124,3.3187,3.3307,3.3545,3.3872,3.4223,3.4349,3.4412,3.4248,3.3947,3.3671,3.3483,3.3307,3.3169,3.3124,3.3124,3.3124,3.3124,3.2905,3.2842,3.2403,3.2117,3.1574,3.1029,3.086,3.1319,3.1301,3.1389,3.2529,3.2374,3.2176,3.2567,3.2654,3.1538,3.0611,3.0049,3.0126,2.9959,2.988,2.9917,2.9892,2.9867,2.9905,2.9942,2.9955,2.9993,3.0055,3.0244,3.0256,3.0168,3.0206,3.0495,3.0846,3.1336,3.165,3.1599,3.1524,3.1399,3.1248,3.121,3.116,3.1248,3.1574,3.1938,3.2152,3.2416,3.229,3.2215,3.2466,3.2466,3.1964,3.1637,3.1587,3.1537,3.1499,3.1399,3.1223,3.0834,3.0419,3.0457,3.0495,3.0093,2.9792,2.9905,2.998,2.9385,2.9447,2.9624,3.0092,3.0757,3.1176,3.1825,3.2365,3.2416,3.2503,3.2704,3.252,3.2215,3.1951,3.2039,3.229,3.2729,3.2277,3.2428,3.3106,3.3269,3.3571,3.4073,3.4638,3.4868,3.4868,3.4668,3.4186,3.3796,3.3395,3.3124,3.3124,3.3124,3.3269,3.3483,3.3583,3.3583,3.3696,3.3721,3.3633,3.3596,3.3508,3.3282,3.3181,3.3136,3.3124,3.3124,3.3124,3.3124,3.3048,3.2516,3.2102,3.1574,3.1085,3.0673,3.1072,3.1229,3.1615,3.2468,3.2499,3.2548,3.2831,3.3131,3.2071,3.1332,3.0752,3.0381,3.0073,3.0083,3.0093,3.0018,2.998,3.0068,3.0143,3.0193,3.0256,3.0482,3.0746,3.0708,3.0583,3.0733,3.1022,3.1424,3.1938,3.2303,3.2328,3.2353,3.2315,3.2089,3.1876,3.1788,3.175,3.2164,3.2579,3.2729,3.2767,3.2679,3.2616,3.2767,3.2654,3.219,3.2164,3.2277,3.2026,3.17,3.165,3.1662,3.1273,3.0947,3.1009,3.1035,3.0771,3.0495,3.0331,3.0407,2.9256,2.9155,2.9165,2.9679,3.0541,3.1009,3.126,3.1311,3.1311,3.1612,3.1976,3.165,3.1461,3.1323,3.116,3.1399,3.1612,3.1336,3.1512,3.2152,3.2277,3.2604,3.3131,3.3583,3.4198,3.4336,3.4236,3.3935,3.3709,3.3357,3.3124,3.3124,3.3124,3.3199,3.3237,3.325,3.3244,3.3338,3.352,3.3621,3.3608,3.3395,3.3162,3.3136,3.3124,3.3124,3.3124,3.3124,3.3124,3.2893,3.2591,3.2215,3.1725,3.1298,3.0911,3.0903,3.1262,3.1796,3.233,3.2471,3.2643,3.28,3.2927,3.247,3.1991,3.1604,3.1228,3.0622,3.0607,3.0771,3.0771,3.0637,3.0633,3.067,3.0696,3.0771,3.0947,3.1148,3.1185,3.1135,3.1336,3.1599,3.1813,3.229,3.2591,3.2842,3.2918,3.296,3.2792,3.2478,3.2365,3.2252,3.2541,3.2867,3.296,3.3011,3.3048,3.3074,3.3111,3.3061,3.2709,3.2835,3.3074,3.2696,3.224,3.2152,3.2064,3.1725,3.1562,3.1662,3.1637,3.1499,3.1273,3.1072,3.0884,2.804,2.7823,2.8376,2.9181,2.9927,3.0118,3.0432,3.0746,3.0344,3.0733,3.1424,3.1411,3.1135,3.0771,3.0645,3.0821,3.0809,3.0796,3.106,3.1399,3.1562,3.1838,3.2428,3.2968,3.3533,3.3897,3.3897,3.3658,3.3382,3.3212,3.3124,3.3124,3.3124,3.3124,3.3124,3.3124,3.3136,3.3149,3.3275,3.3382,3.3319,3.3583,3.3583,3.3312,3.3124,3.3124,3.3124,3.3124,3.3124,3.3023,3.2503,3.2039,3.1562,3.1323,3.1449,3.1703,3.1602,3.2039,3.2403,3.257,3.2534,3.3339,3.3645,3.3311,3.293,3.2619,3.2149,3.1511,3.1249,3.1428,3.149,3.1312,3.121,3.121,3.1223,3.1323,3.1436,3.1562,3.1662,3.1813,3.1989,3.2139,3.2315,3.2541,3.2842,3.2993,3.3074,3.3086,3.3074,3.2842,3.2805,3.2742,3.2817,3.3074,3.3124,3.3124,3.3124,3.3124,3.3111,3.3124,3.3124,3.3124,3.3124,3.3086,3.2842,3.2679,3.2491,3.2303,3.2202,3.2265,3.2152,3.1964,3.2139,3.2051,3.17,2.8191,2.7881,2.851,2.9013,2.9468,2.9714,2.998,3.0168,2.9917,3.0118,3.062,3.0658,3.052,3.0269,3.0256,3.0281,3.0281,3.0244,3.0357,3.0608,3.0997,3.1185,3.17,3.2328,3.2704,3.3119,3.3432,3.3332,3.3111,3.3124,3.3124,3.3124,3.3124,3.3124,3.3124,3.3124,3.3124,3.3124,3.3124,3.3124,3.3124,3.3332,3.3445,3.3162,3.3124,3.3124,3.3124,3.3124,3.3124,3.293,3.2516,3.1964,3.1574,3.1373,3.1662,3.1926,3.2005,3.2155,3.2612,3.2717,3.2577,3.3429,3.4065,3.3628,3.299,3.2699,3.3026,3.2459,3.231,3.2425,3.2085,3.1856,3.1786,3.1763,3.1825,3.1913,3.2152,3.2378,3.2441,3.2503,3.2604,3.2629,3.2754,3.278,3.3031,3.3074,3.3124,3.3124,3.3124,3.3124,3.3124,3.3124,3.3124,3.3124,3.3124,3.3124,3.3124,3.3124,3.3124,3.3124,3.3124,3.3124,3.3111,3.3099,3.3099,3.3061,3.2842,3.2654,3.2692,3.2754,3.2591,3.2403,3.2684,3.2932,3.2563,2.8828,2.863,2.8934,2.9131,2.9248,2.9624,2.9804,2.9804,2.9792,2.9792,2.9867,2.988,2.9779,2.9792,2.9792,2.9792,2.9829,2.993,2.9905,3.0005,3.0331,3.067,3.111,3.1625,3.2102,3.2466,3.278,3.2905,3.2855,3.2867,3.2893,3.3074,3.3124,3.3124,3.3124,3.3124,3.3124,3.3124,3.3124,3.3124,3.3124,3.3124,3.3149,3.3136,3.3124,3.3124,3.3124,3.3124,3.3124,3.2943,3.2679,3.2303,3.2001,3.1876,3.2026,3.2303,3.2416,3.2621,3.294,3.3046,3.3016,3.333,3.3793,3.374,3.3088,3.3294,3.3616,3.344,3.3275,3.3114,3.2772,3.2421,3.2331,3.2328,3.2403,3.2554,3.2855,3.3081,3.3081,3.3149,3.3162,3.3162,3.3093,3.3106,3.3119,3.3162,3.3136,3.3124,3.3124,3.3124,3.3124,3.3124,3.3124,3.3124,3.3124,3.3124,3.3124,3.3124,3.3124,3.3124,3.3124,3.3124,3.3124,3.3124,3.3124,3.3149,3.3136,3.2986,3.3043,3.3285,3.3216,3.3182,3.3427,3.3581,3.3335,2.8749,2.8973,2.904,2.9287,2.9624,2.9753,2.9779,2.9779,2.9779,2.9779,2.9779,2.9779,2.9779,2.9779,2.9779,2.9779,2.9779,2.9779,2.9779,2.9867,2.998,3.0256,3.0696,3.1298,3.1763,3.2202,3.2491,3.2403,3.2704,3.2604,3.2654,3.3056,3.3124,3.3124,3.3124,3.3136,3.3149,3.3174,3.3162,3.3136,3.3162,3.3149,3.3124,3.3124,3.3124,3.3124,3.3124,3.3124,3.3124,3.3074,3.2943,3.2767,3.2641,3.2583,3.2654,3.2667,3.278,3.2867,3.3099,3.3124,3.3124,3.3167,3.3581,3.3683,3.3634,3.4369,3.4372,3.3848,3.372,3.383,3.3521,3.3047,3.2805,3.288,3.2955,3.3244,3.3558,3.347,3.337,3.3407,3.3445,3.3382,3.3294,3.3307,3.3307,3.3282,3.3275,3.3262,3.3219,3.3199,3.3136,3.3162,3.3174,3.3124,3.3124,3.3124,3.3124,3.3124,3.3149,3.3199,3.3199,3.3136,3.3136,3.3275,3.3237,3.3181,3.3156,3.3432,3.3652,3.3875,3.3913,3.3982,3.4269,3.4243,3.403]}]]